<?xml version="1.0" encoding="UTF-8" standalone="no" ?>
<gpx xmlns="http://www.topografix.com/GPX/1/1" xmlns:xsi="http://www.w3.org/2001/XMLSchema-instance" xsi:schemaLocation="http://www.topografix.com/GPX/1/1 http://www.topografix.com/GPX/1/1/gpx.xsd" version="1.1" creator="VisuGPX - https://www.visugpx.com">
  <metadata>
    <name>Le truc</name>
    <desc><![CDATA[
]]></desc>
  </metadata>
  <trk>
    <name><![CDATA[Le truc_1]]></name>
    <extensions>
      <line xmlns="http://www.topografix.com/GPX/gpx_style/0/2">
        <color>0000FF</color>
        <width>4</width>
      </line>
    </extensions>
    <trkseg>
      <trkpt lat="45.29888" lon="5.89887">
        <ele>251.44599914551</ele>
        <time>2017-10-21T06:01:14Z</time>
      </trkpt>
      <trkpt lat="45.29893" lon="5.89884">
        <ele>254.44599914551</ele>
        <time>2017-10-21T06:01:43Z</time>
      </trkpt>
      <trkpt lat="45.29897" lon="5.89881">
        <ele>256.4460144043</ele>
        <time>2017-10-21T06:01:47Z</time>
      </trkpt>
      <trkpt lat="45.29902" lon="5.89877">
        <ele>256.4460144043</ele>
        <time>2017-10-21T06:01:50Z</time>
      </trkpt>
      <trkpt lat="45.29906" lon="5.89874">
        <ele>254.44599914551</ele>
        <time>2017-10-21T06:01:52Z</time>
      </trkpt>
      <trkpt lat="45.2991" lon="5.89871">
        <ele>255.44599914551</ele>
        <time>2017-10-21T06:01:55Z</time>
      </trkpt>
      <trkpt lat="45.29915" lon="5.89868">
        <ele>256.4460144043</ele>
        <time>2017-10-21T06:01:58Z</time>
      </trkpt>
      <trkpt lat="45.29919" lon="5.89864">
        <ele>256.4460144043</ele>
        <time>2017-10-21T06:02:01Z</time>
      </trkpt>
      <trkpt lat="45.29923" lon="5.8986">
        <ele>256.4460144043</ele>
        <time>2017-10-21T06:02:05Z</time>
      </trkpt>
      <trkpt lat="45.29928" lon="5.89857">
        <ele>256.4460144043</ele>
        <time>2017-10-21T06:02:08Z</time>
      </trkpt>
      <trkpt lat="45.29931" lon="5.89851">
        <ele>255.44599914551</ele>
        <time>2017-10-21T06:02:12Z</time>
      </trkpt>
      <trkpt lat="45.29934" lon="5.89846">
        <ele>256.4460144043</ele>
        <time>2017-10-21T06:02:15Z</time>
      </trkpt>
      <trkpt lat="45.29939" lon="5.89846">
        <ele>255.44599914551</ele>
        <time>2017-10-21T06:02:17Z</time>
      </trkpt>
      <trkpt lat="45.29938" lon="5.89839">
        <ele>257.4460144043</ele>
        <time>2017-10-21T06:02:21Z</time>
      </trkpt>
      <trkpt lat="45.29944" lon="5.89835">
        <ele>257.4460144043</ele>
        <time>2017-10-21T06:02:24Z</time>
      </trkpt>
      <trkpt lat="45.29949" lon="5.89832">
        <ele>258.4460144043</ele>
        <time>2017-10-21T06:02:27Z</time>
      </trkpt>
      <trkpt lat="45.29955" lon="5.89832">
        <ele>258.4460144043</ele>
        <time>2017-10-21T06:02:30Z</time>
      </trkpt>
      <trkpt lat="45.2996" lon="5.89828">
        <ele>258.4460144043</ele>
        <time>2017-10-21T06:02:34Z</time>
      </trkpt>
      <trkpt lat="45.29965" lon="5.89824">
        <ele>263.4460144043</ele>
        <time>2017-10-21T06:02:38Z</time>
      </trkpt>
      <trkpt lat="45.29971" lon="5.89823">
        <ele>264.4460144043</ele>
        <time>2017-10-21T06:02:41Z</time>
      </trkpt>
      <trkpt lat="45.29976" lon="5.89825">
        <ele>266.4460144043</ele>
        <time>2017-10-21T06:02:44Z</time>
      </trkpt>
      <trkpt lat="45.29982" lon="5.89822">
        <ele>268.4460144043</ele>
        <time>2017-10-21T06:02:47Z</time>
      </trkpt>
      <trkpt lat="45.29988" lon="5.89816">
        <ele>267.4460144043</ele>
        <time>2017-10-21T06:02:49Z</time>
      </trkpt>
      <trkpt lat="45.29991" lon="5.89807">
        <ele>268.4460144043</ele>
        <time>2017-10-21T06:02:51Z</time>
      </trkpt>
      <trkpt lat="45.29996" lon="5.89802">
        <ele>269.4460144043</ele>
        <time>2017-10-21T06:02:54Z</time>
      </trkpt>
      <trkpt lat="45.30002" lon="5.89799">
        <ele>266.4460144043</ele>
        <time>2017-10-21T06:02:57Z</time>
      </trkpt>
      <trkpt lat="45.30007" lon="5.89797">
        <ele>268.4460144043</ele>
        <time>2017-10-21T06:03:02Z</time>
      </trkpt>
      <trkpt lat="45.30013" lon="5.89796">
        <ele>269.4460144043</ele>
        <time>2017-10-21T06:03:06Z</time>
      </trkpt>
      <trkpt lat="45.30018" lon="5.89794">
        <ele>272.4460144043</ele>
        <time>2017-10-21T06:03:11Z</time>
      </trkpt>
      <trkpt lat="45.30022" lon="5.8979">
        <ele>272.4460144043</ele>
        <time>2017-10-21T06:03:16Z</time>
      </trkpt>
      <trkpt lat="45.30026" lon="5.89786">
        <ele>273.4460144043</ele>
        <time>2017-10-21T06:03:20Z</time>
      </trkpt>
      <trkpt lat="45.30031" lon="5.89783">
        <ele>274.4460144043</ele>
        <time>2017-10-21T06:03:24Z</time>
      </trkpt>
      <trkpt lat="45.30035" lon="5.8978">
        <ele>274.4460144043</ele>
        <time>2017-10-21T06:03:28Z</time>
      </trkpt>
      <trkpt lat="45.30039" lon="5.89773">
        <ele>273.4460144043</ele>
        <time>2017-10-21T06:03:33Z</time>
      </trkpt>
      <trkpt lat="45.30044" lon="5.89768">
        <ele>273.4460144043</ele>
        <time>2017-10-21T06:03:38Z</time>
      </trkpt>
      <trkpt lat="45.30047" lon="5.89764">
        <ele>272.4460144043</ele>
        <time>2017-10-21T06:03:42Z</time>
      </trkpt>
      <trkpt lat="45.3005" lon="5.89758">
        <ele>271.4460144043</ele>
        <time>2017-10-21T06:03:45Z</time>
      </trkpt>
      <trkpt lat="45.30055" lon="5.89753">
        <ele>270.4460144043</ele>
        <time>2017-10-21T06:03:49Z</time>
      </trkpt>
      <trkpt lat="45.30057" lon="5.89748">
        <ele>271.4460144043</ele>
        <time>2017-10-21T06:03:53Z</time>
      </trkpt>
      <trkpt lat="45.30062" lon="5.89743">
        <ele>276.4460144043</ele>
        <time>2017-10-21T06:03:57Z</time>
      </trkpt>
      <trkpt lat="45.30064" lon="5.89733">
        <ele>278.4460144043</ele>
        <time>2017-10-21T06:04:02Z</time>
      </trkpt>
      <trkpt lat="45.30065" lon="5.89726">
        <ele>280.4460144043</ele>
        <time>2017-10-21T06:04:06Z</time>
      </trkpt>
      <trkpt lat="45.30066" lon="5.8972">
        <ele>280.4460144043</ele>
        <time>2017-10-21T06:04:09Z</time>
      </trkpt>
      <trkpt lat="45.30065" lon="5.89711">
        <ele>282.4460144043</ele>
        <time>2017-10-21T06:04:13Z</time>
      </trkpt>
      <trkpt lat="45.30064" lon="5.89704">
        <ele>285.4460144043</ele>
        <time>2017-10-21T06:04:17Z</time>
      </trkpt>
      <trkpt lat="45.30063" lon="5.89696">
        <ele>287.4460144043</ele>
        <time>2017-10-21T06:04:21Z</time>
      </trkpt>
      <trkpt lat="45.30063" lon="5.89688">
        <ele>289.4460144043</ele>
        <time>2017-10-21T06:04:25Z</time>
      </trkpt>
      <trkpt lat="45.30065" lon="5.89681">
        <ele>291.4460144043</ele>
        <time>2017-10-21T06:04:31Z</time>
      </trkpt>
      <trkpt lat="45.30064" lon="5.89672">
        <ele>291.4460144043</ele>
        <time>2017-10-21T06:04:35Z</time>
      </trkpt>
      <trkpt lat="45.30066" lon="5.89666">
        <ele>292.4460144043</ele>
        <time>2017-10-21T06:04:40Z</time>
      </trkpt>
      <trkpt lat="45.30071" lon="5.89661">
        <ele>292.4460144043</ele>
        <time>2017-10-21T06:04:43Z</time>
      </trkpt>
      <trkpt lat="45.30071" lon="5.89654">
        <ele>291.4460144043</ele>
        <time>2017-10-21T06:04:47Z</time>
      </trkpt>
      <trkpt lat="45.30074" lon="5.89649">
        <ele>289.4460144043</ele>
        <time>2017-10-21T06:04:50Z</time>
      </trkpt>
      <trkpt lat="45.30074" lon="5.8964">
        <ele>289.4460144043</ele>
        <time>2017-10-21T06:04:56Z</time>
      </trkpt>
      <trkpt lat="45.30076" lon="5.89634">
        <ele>296.4460144043</ele>
        <time>2017-10-21T06:05:05Z</time>
      </trkpt>
      <trkpt lat="45.3008" lon="5.89631">
        <ele>297.4460144043</ele>
        <time>2017-10-21T06:05:09Z</time>
      </trkpt>
      <trkpt lat="45.30086" lon="5.89627">
        <ele>299.4460144043</ele>
        <time>2017-10-21T06:05:13Z</time>
      </trkpt>
      <trkpt lat="45.30089" lon="5.89622">
        <ele>300.4460144043</ele>
        <time>2017-10-21T06:05:18Z</time>
      </trkpt>
      <trkpt lat="45.30089" lon="5.89616">
        <ele>301.4460144043</ele>
        <time>2017-10-21T06:05:23Z</time>
      </trkpt>
      <trkpt lat="45.30089" lon="5.89608">
        <ele>300.4460144043</ele>
        <time>2017-10-21T06:05:28Z</time>
      </trkpt>
      <trkpt lat="45.30085" lon="5.89604">
        <ele>298.4460144043</ele>
        <time>2017-10-21T06:05:33Z</time>
      </trkpt>
      <trkpt lat="45.30079" lon="5.89605">
        <ele>300.4460144043</ele>
        <time>2017-10-21T06:05:39Z</time>
      </trkpt>
      <trkpt lat="45.30072" lon="5.89604">
        <ele>303.4460144043</ele>
        <time>2017-10-21T06:05:43Z</time>
      </trkpt>
      <trkpt lat="45.30067" lon="5.89602">
        <ele>305.4460144043</ele>
        <time>2017-10-21T06:05:47Z</time>
      </trkpt>
      <trkpt lat="45.30066" lon="5.89595">
        <ele>303.4460144043</ele>
        <time>2017-10-21T06:05:53Z</time>
      </trkpt>
      <trkpt lat="45.30063" lon="5.89588">
        <ele>301.4460144043</ele>
        <time>2017-10-21T06:06:07Z</time>
      </trkpt>
      <trkpt lat="45.30065" lon="5.8958">
        <ele>299.4460144043</ele>
        <time>2017-10-21T06:06:09Z</time>
      </trkpt>
      <trkpt lat="45.30061" lon="5.89573">
        <ele>297.4460144043</ele>
        <time>2017-10-21T06:06:12Z</time>
      </trkpt>
      <trkpt lat="45.30059" lon="5.89567">
        <ele>296.4460144043</ele>
        <time>2017-10-21T06:06:15Z</time>
      </trkpt>
      <trkpt lat="45.30055" lon="5.89559">
        <ele>299.4460144043</ele>
        <time>2017-10-21T06:06:19Z</time>
      </trkpt>
      <trkpt lat="45.30061" lon="5.89557">
        <ele>302.4460144043</ele>
        <time>2017-10-21T06:06:21Z</time>
      </trkpt>
      <trkpt lat="45.30058" lon="5.89552">
        <ele>303.4460144043</ele>
        <time>2017-10-21T06:06:23Z</time>
      </trkpt>
      <trkpt lat="45.30054" lon="5.89548">
        <ele>305.4460144043</ele>
        <time>2017-10-21T06:06:25Z</time>
      </trkpt>
      <trkpt lat="45.30057" lon="5.89542">
        <ele>310.4460144043</ele>
        <time>2017-10-21T06:06:31Z</time>
      </trkpt>
      <trkpt lat="45.30052" lon="5.89537">
        <ele>310.4460144043</ele>
        <time>2017-10-21T06:06:33Z</time>
      </trkpt>
      <trkpt lat="45.30046" lon="5.89533">
        <ele>313.4460144043</ele>
        <time>2017-10-21T06:06:35Z</time>
      </trkpt>
      <trkpt lat="45.3005" lon="5.8953">
        <ele>315.4460144043</ele>
        <time>2017-10-21T06:06:38Z</time>
      </trkpt>
      <trkpt lat="45.30051" lon="5.89524">
        <ele>313.4460144043</ele>
        <time>2017-10-21T06:06:45Z</time>
      </trkpt>
      <trkpt lat="45.30045" lon="5.8952">
        <ele>315.4460144043</ele>
        <time>2017-10-21T06:06:50Z</time>
      </trkpt>
      <trkpt lat="45.30044" lon="5.89513">
        <ele>316.4460144043</ele>
        <time>2017-10-21T06:06:55Z</time>
      </trkpt>
      <trkpt lat="45.3004" lon="5.8951">
        <ele>321.4460144043</ele>
        <time>2017-10-21T06:07:04Z</time>
      </trkpt>
      <trkpt lat="45.30036" lon="5.89505">
        <ele>323.4460144043</ele>
        <time>2017-10-21T06:07:19Z</time>
      </trkpt>
      <trkpt lat="45.30034" lon="5.89498">
        <ele>329.4460144043</ele>
        <time>2017-10-21T06:07:23Z</time>
      </trkpt>
      <trkpt lat="45.30031" lon="5.89493">
        <ele>327.4460144043</ele>
        <time>2017-10-21T06:07:26Z</time>
      </trkpt>
      <trkpt lat="45.3003" lon="5.89486">
        <ele>324.4460144043</ele>
        <time>2017-10-21T06:07:30Z</time>
      </trkpt>
      <trkpt lat="45.30027" lon="5.8948">
        <ele>327.4460144043</ele>
        <time>2017-10-21T06:07:34Z</time>
      </trkpt>
      <trkpt lat="45.30024" lon="5.89472">
        <ele>329.4460144043</ele>
        <time>2017-10-21T06:07:37Z</time>
      </trkpt>
      <trkpt lat="45.30021" lon="5.89467">
        <ele>332.4460144043</ele>
        <time>2017-10-21T06:07:41Z</time>
      </trkpt>
      <trkpt lat="45.30018" lon="5.89462">
        <ele>338.4460144043</ele>
        <time>2017-10-21T06:07:46Z</time>
      </trkpt>
      <trkpt lat="45.30015" lon="5.89454">
        <ele>343.4460144043</ele>
        <time>2017-10-21T06:07:50Z</time>
      </trkpt>
      <trkpt lat="45.30011" lon="5.89452">
        <ele>349.4460144043</ele>
        <time>2017-10-21T06:07:58Z</time>
      </trkpt>
      <trkpt lat="45.30007" lon="5.89448">
        <ele>353.4460144043</ele>
        <time>2017-10-21T06:08:01Z</time>
      </trkpt>
      <trkpt lat="45.30005" lon="5.89442">
        <ele>353.4460144043</ele>
        <time>2017-10-21T06:08:04Z</time>
      </trkpt>
      <trkpt lat="45.30005" lon="5.89435">
        <ele>357.4460144043</ele>
        <time>2017-10-21T06:08:08Z</time>
      </trkpt>
      <trkpt lat="45.30005" lon="5.89428">
        <ele>360.4460144043</ele>
        <time>2017-10-21T06:08:15Z</time>
      </trkpt>
      <trkpt lat="45.30007" lon="5.8942">
        <ele>363.4460144043</ele>
        <time>2017-10-21T06:08:19Z</time>
      </trkpt>
      <trkpt lat="45.30008" lon="5.89413">
        <ele>366.4460144043</ele>
        <time>2017-10-21T06:08:24Z</time>
      </trkpt>
      <trkpt lat="45.30011" lon="5.89406">
        <ele>365.4460144043</ele>
        <time>2017-10-21T06:08:27Z</time>
      </trkpt>
      <trkpt lat="45.30014" lon="5.89401">
        <ele>366.4460144043</ele>
        <time>2017-10-21T06:08:34Z</time>
      </trkpt>
      <trkpt lat="45.30017" lon="5.89395">
        <ele>365.4460144043</ele>
        <time>2017-10-21T06:08:39Z</time>
      </trkpt>
      <trkpt lat="45.30021" lon="5.8939">
        <ele>365.4460144043</ele>
        <time>2017-10-21T06:08:44Z</time>
      </trkpt>
      <trkpt lat="45.30023" lon="5.89382">
        <ele>368.4460144043</ele>
        <time>2017-10-21T06:08:49Z</time>
      </trkpt>
      <trkpt lat="45.30027" lon="5.89378">
        <ele>370.4460144043</ele>
        <time>2017-10-21T06:08:54Z</time>
      </trkpt>
      <trkpt lat="45.30028" lon="5.89371">
        <ele>371.4460144043</ele>
        <time>2017-10-21T06:08:59Z</time>
      </trkpt>
      <trkpt lat="45.30031" lon="5.89365">
        <ele>372.4460144043</ele>
        <time>2017-10-21T06:09:05Z</time>
      </trkpt>
      <trkpt lat="45.30033" lon="5.89357">
        <ele>377.4460144043</ele>
        <time>2017-10-21T06:09:12Z</time>
      </trkpt>
      <trkpt lat="45.30038" lon="5.89357">
        <ele>377.4460144043</ele>
        <time>2017-10-21T06:09:18Z</time>
      </trkpt>
      <trkpt lat="45.30043" lon="5.89355">
        <ele>382.4460144043</ele>
        <time>2017-10-21T06:09:23Z</time>
      </trkpt>
      <trkpt lat="45.30048" lon="5.89354">
        <ele>383.4460144043</ele>
        <time>2017-10-21T06:09:28Z</time>
      </trkpt>
      <trkpt lat="45.30052" lon="5.89355">
        <ele>383.4460144043</ele>
        <time>2017-10-21T06:09:38Z</time>
      </trkpt>
      <trkpt lat="45.30058" lon="5.89356">
        <ele>385.4460144043</ele>
        <time>2017-10-21T06:09:44Z</time>
      </trkpt>
      <trkpt lat="45.30063" lon="5.89358">
        <ele>385.4460144043</ele>
        <time>2017-10-21T06:09:46Z</time>
      </trkpt>
      <trkpt lat="45.30073" lon="5.89358">
        <ele>386.4460144043</ele>
        <time>2017-10-21T06:09:51Z</time>
      </trkpt>
      <trkpt lat="45.30077" lon="5.8936">
        <ele>389.4460144043</ele>
        <time>2017-10-21T06:09:55Z</time>
      </trkpt>
      <trkpt lat="45.30082" lon="5.89361">
        <ele>389.4460144043</ele>
        <time>2017-10-21T06:10:03Z</time>
      </trkpt>
      <trkpt lat="45.30087" lon="5.89359">
        <ele>388.4460144043</ele>
        <time>2017-10-21T06:10:13Z</time>
      </trkpt>
      <trkpt lat="45.30092" lon="5.89358">
        <ele>390.4460144043</ele>
        <time>2017-10-21T06:10:16Z</time>
      </trkpt>
      <trkpt lat="45.30097" lon="5.89356">
        <ele>394.4460144043</ele>
        <time>2017-10-21T06:10:20Z</time>
      </trkpt>
      <trkpt lat="45.30102" lon="5.89357">
        <ele>396.4460144043</ele>
        <time>2017-10-21T06:10:26Z</time>
      </trkpt>
      <trkpt lat="45.30106" lon="5.89355">
        <ele>396.4460144043</ele>
        <time>2017-10-21T06:10:33Z</time>
      </trkpt>
      <trkpt lat="45.30112" lon="5.89356">
        <ele>395.4460144043</ele>
        <time>2017-10-21T06:10:39Z</time>
      </trkpt>
      <trkpt lat="45.30117" lon="5.8936">
        <ele>398.4460144043</ele>
        <time>2017-10-21T06:10:43Z</time>
      </trkpt>
      <trkpt lat="45.30122" lon="5.89361">
        <ele>400.4460144043</ele>
        <time>2017-10-21T06:10:48Z</time>
      </trkpt>
      <trkpt lat="45.30128" lon="5.89363">
        <ele>401.4460144043</ele>
        <time>2017-10-21T06:10:52Z</time>
      </trkpt>
      <trkpt lat="45.30132" lon="5.89366">
        <ele>404.4460144043</ele>
        <time>2017-10-21T06:10:57Z</time>
      </trkpt>
      <trkpt lat="45.30138" lon="5.89368">
        <ele>406.4460144043</ele>
        <time>2017-10-21T06:11:01Z</time>
      </trkpt>
      <trkpt lat="45.30143" lon="5.89367">
        <ele>409.4460144043</ele>
        <time>2017-10-21T06:11:10Z</time>
      </trkpt>
      <trkpt lat="45.3015" lon="5.89366">
        <ele>410.4460144043</ele>
        <time>2017-10-21T06:11:19Z</time>
      </trkpt>
      <trkpt lat="45.30156" lon="5.89364">
        <ele>410.4460144043</ele>
        <time>2017-10-21T06:11:23Z</time>
      </trkpt>
      <trkpt lat="45.30163" lon="5.89365">
        <ele>409.4460144043</ele>
        <time>2017-10-21T06:11:26Z</time>
      </trkpt>
      <trkpt lat="45.30168" lon="5.89361">
        <ele>409.4460144043</ele>
        <time>2017-10-21T06:11:29Z</time>
      </trkpt>
      <trkpt lat="45.30173" lon="5.89361">
        <ele>409.4460144043</ele>
        <time>2017-10-21T06:11:32Z</time>
      </trkpt>
      <trkpt lat="45.30179" lon="5.89361">
        <ele>412.4460144043</ele>
        <time>2017-10-21T06:11:37Z</time>
      </trkpt>
      <trkpt lat="45.30184" lon="5.89363">
        <ele>413.4460144043</ele>
        <time>2017-10-21T06:11:42Z</time>
      </trkpt>
      <trkpt lat="45.30189" lon="5.89363">
        <ele>414.4460144043</ele>
        <time>2017-10-21T06:11:46Z</time>
      </trkpt>
      <trkpt lat="45.30194" lon="5.89362">
        <ele>414.4460144043</ele>
        <time>2017-10-21T06:11:51Z</time>
      </trkpt>
      <trkpt lat="45.30199" lon="5.89364">
        <ele>417.4460144043</ele>
        <time>2017-10-21T06:11:58Z</time>
      </trkpt>
      <trkpt lat="45.30204" lon="5.89363">
        <ele>417.4460144043</ele>
        <time>2017-10-21T06:12:02Z</time>
      </trkpt>
      <trkpt lat="45.30209" lon="5.89364">
        <ele>418.4460144043</ele>
        <time>2017-10-21T06:12:05Z</time>
      </trkpt>
      <trkpt lat="45.30214" lon="5.89366">
        <ele>419.4460144043</ele>
        <time>2017-10-21T06:12:08Z</time>
      </trkpt>
      <trkpt lat="45.3022" lon="5.89368">
        <ele>418.4460144043</ele>
        <time>2017-10-21T06:12:10Z</time>
      </trkpt>
      <trkpt lat="45.30224" lon="5.89366">
        <ele>420.4460144043</ele>
        <time>2017-10-21T06:12:15Z</time>
      </trkpt>
      <trkpt lat="45.30229" lon="5.89365">
        <ele>422.4460144043</ele>
        <time>2017-10-21T06:12:19Z</time>
      </trkpt>
      <trkpt lat="45.30234" lon="5.89362">
        <ele>421.4460144043</ele>
        <time>2017-10-21T06:12:23Z</time>
      </trkpt>
      <trkpt lat="45.30238" lon="5.89358">
        <ele>426.4460144043</ele>
        <time>2017-10-21T06:12:29Z</time>
      </trkpt>
      <trkpt lat="45.30242" lon="5.89356">
        <ele>426.4460144043</ele>
        <time>2017-10-21T06:12:32Z</time>
      </trkpt>
      <trkpt lat="45.30247" lon="5.89353">
        <ele>431.4460144043</ele>
        <time>2017-10-21T06:12:37Z</time>
      </trkpt>
      <trkpt lat="45.30253" lon="5.89351">
        <ele>433.4460144043</ele>
        <time>2017-10-21T06:12:43Z</time>
      </trkpt>
      <trkpt lat="45.30259" lon="5.89348">
        <ele>432.4460144043</ele>
        <time>2017-10-21T06:12:47Z</time>
      </trkpt>
      <trkpt lat="45.30263" lon="5.89344">
        <ele>433.4460144043</ele>
        <time>2017-10-21T06:12:52Z</time>
      </trkpt>
      <trkpt lat="45.30267" lon="5.89339">
        <ele>432.4460144043</ele>
        <time>2017-10-21T06:12:59Z</time>
      </trkpt>
      <trkpt lat="45.30271" lon="5.89334">
        <ele>434.4460144043</ele>
        <time>2017-10-21T06:13:16Z</time>
      </trkpt>
      <trkpt lat="45.30275" lon="5.89331">
        <ele>438.4460144043</ele>
        <time>2017-10-21T06:13:21Z</time>
      </trkpt>
      <trkpt lat="45.3028" lon="5.89328">
        <ele>442.4460144043</ele>
        <time>2017-10-21T06:13:25Z</time>
      </trkpt>
      <trkpt lat="45.30283" lon="5.89324">
        <ele>447.4460144043</ele>
        <time>2017-10-21T06:13:30Z</time>
      </trkpt>
      <trkpt lat="45.30289" lon="5.89321">
        <ele>446.4460144043</ele>
        <time>2017-10-21T06:13:33Z</time>
      </trkpt>
      <trkpt lat="45.30291" lon="5.89314">
        <ele>448.4460144043</ele>
        <time>2017-10-21T06:13:38Z</time>
      </trkpt>
      <trkpt lat="45.30295" lon="5.8931">
        <ele>448.4460144043</ele>
        <time>2017-10-21T06:13:42Z</time>
      </trkpt>
      <trkpt lat="45.30299" lon="5.89305">
        <ele>448.4460144043</ele>
        <time>2017-10-21T06:13:47Z</time>
      </trkpt>
      <trkpt lat="45.30301" lon="5.89298">
        <ele>447.4460144043</ele>
        <time>2017-10-21T06:13:51Z</time>
      </trkpt>
      <trkpt lat="45.30304" lon="5.89293">
        <ele>453.4460144043</ele>
        <time>2017-10-21T06:13:58Z</time>
      </trkpt>
      <trkpt lat="45.30306" lon="5.89287">
        <ele>454.4460144043</ele>
        <time>2017-10-21T06:14:05Z</time>
      </trkpt>
      <trkpt lat="45.30308" lon="5.89281">
        <ele>454.4460144043</ele>
        <time>2017-10-21T06:14:10Z</time>
      </trkpt>
      <trkpt lat="45.3031" lon="5.89275">
        <ele>453.4460144043</ele>
        <time>2017-10-21T06:14:13Z</time>
      </trkpt>
      <trkpt lat="45.30315" lon="5.89271">
        <ele>457.4460144043</ele>
        <time>2017-10-21T06:14:16Z</time>
      </trkpt>
      <trkpt lat="45.30319" lon="5.89263">
        <ele>459.4460144043</ele>
        <time>2017-10-21T06:14:22Z</time>
      </trkpt>
      <trkpt lat="45.3032" lon="5.89257">
        <ele>460.4460144043</ele>
        <time>2017-10-21T06:14:26Z</time>
      </trkpt>
      <trkpt lat="45.30323" lon="5.89249">
        <ele>459.4460144043</ele>
        <time>2017-10-21T06:14:30Z</time>
      </trkpt>
      <trkpt lat="45.30322" lon="5.89241">
        <ele>457.4460144043</ele>
        <time>2017-10-21T06:14:33Z</time>
      </trkpt>
      <trkpt lat="45.30323" lon="5.89233">
        <ele>455.4460144043</ele>
        <time>2017-10-21T06:14:37Z</time>
      </trkpt>
      <trkpt lat="45.30324" lon="5.89227">
        <ele>455.4460144043</ele>
        <time>2017-10-21T06:14:41Z</time>
      </trkpt>
      <trkpt lat="45.3033" lon="5.89224">
        <ele>455.4460144043</ele>
        <time>2017-10-21T06:14:45Z</time>
      </trkpt>
      <trkpt lat="45.30335" lon="5.89223">
        <ele>462.4460144043</ele>
        <time>2017-10-21T06:14:50Z</time>
      </trkpt>
      <trkpt lat="45.30339" lon="5.89218">
        <ele>464.4460144043</ele>
        <time>2017-10-21T06:14:53Z</time>
      </trkpt>
      <trkpt lat="45.30342" lon="5.89212">
        <ele>461.4460144043</ele>
        <time>2017-10-21T06:14:56Z</time>
      </trkpt>
      <trkpt lat="45.30346" lon="5.89209">
        <ele>467.4460144043</ele>
        <time>2017-10-21T06:15:01Z</time>
      </trkpt>
      <trkpt lat="45.30351" lon="5.89207">
        <ele>469.4460144043</ele>
        <time>2017-10-21T06:15:06Z</time>
      </trkpt>
      <trkpt lat="45.30353" lon="5.89201">
        <ele>477.4460144043</ele>
        <time>2017-10-21T06:15:22Z</time>
      </trkpt>
      <trkpt lat="45.30357" lon="5.89198">
        <ele>481.4460144043</ele>
        <time>2017-10-21T06:15:24Z</time>
      </trkpt>
      <trkpt lat="45.30359" lon="5.89191">
        <ele>480.4460144043</ele>
        <time>2017-10-21T06:15:27Z</time>
      </trkpt>
      <trkpt lat="45.3036" lon="5.89183">
        <ele>484.4460144043</ele>
        <time>2017-10-21T06:15:33Z</time>
      </trkpt>
      <trkpt lat="45.30364" lon="5.89178">
        <ele>483.4460144043</ele>
        <time>2017-10-21T06:15:37Z</time>
      </trkpt>
      <trkpt lat="45.30369" lon="5.89169">
        <ele>481.4460144043</ele>
        <time>2017-10-21T06:15:40Z</time>
      </trkpt>
      <trkpt lat="45.3037" lon="5.89162">
        <ele>478.4460144043</ele>
        <time>2017-10-21T06:15:44Z</time>
      </trkpt>
      <trkpt lat="45.3037" lon="5.89155">
        <ele>479.4460144043</ele>
        <time>2017-10-21T06:15:48Z</time>
      </trkpt>
      <trkpt lat="45.30372" lon="5.89148">
        <ele>476.4460144043</ele>
        <time>2017-10-21T06:15:51Z</time>
      </trkpt>
      <trkpt lat="45.30374" lon="5.89141">
        <ele>478.4460144043</ele>
        <time>2017-10-21T06:15:55Z</time>
      </trkpt>
      <trkpt lat="45.30379" lon="5.89139">
        <ele>480.4460144043</ele>
        <time>2017-10-21T06:15:59Z</time>
      </trkpt>
      <trkpt lat="45.30384" lon="5.89143">
        <ele>487.4460144043</ele>
        <time>2017-10-21T06:16:02Z</time>
      </trkpt>
      <trkpt lat="45.30387" lon="5.89148">
        <ele>489.4460144043</ele>
        <time>2017-10-21T06:16:04Z</time>
      </trkpt>
      <trkpt lat="45.30392" lon="5.89148">
        <ele>489.4460144043</ele>
        <time>2017-10-21T06:16:07Z</time>
      </trkpt>
      <trkpt lat="45.30396" lon="5.89152">
        <ele>492.4460144043</ele>
        <time>2017-10-21T06:16:11Z</time>
      </trkpt>
      <trkpt lat="45.30402" lon="5.89153">
        <ele>492.4460144043</ele>
        <time>2017-10-21T06:16:13Z</time>
      </trkpt>
      <trkpt lat="45.30404" lon="5.89162">
        <ele>494.4460144043</ele>
        <time>2017-10-21T06:16:18Z</time>
      </trkpt>
      <trkpt lat="45.30403" lon="5.89154">
        <ele>497.4460144043</ele>
        <time>2017-10-21T06:16:23Z</time>
      </trkpt>
      <trkpt lat="45.30408" lon="5.89155">
        <ele>496.4460144043</ele>
        <time>2017-10-21T06:16:28Z</time>
      </trkpt>
      <trkpt lat="45.30413" lon="5.89161">
        <ele>493.4460144043</ele>
        <time>2017-10-21T06:16:32Z</time>
      </trkpt>
      <trkpt lat="45.30418" lon="5.89164">
        <ele>496.4460144043</ele>
        <time>2017-10-21T06:16:39Z</time>
      </trkpt>
      <trkpt lat="45.30422" lon="5.89167">
        <ele>499.4460144043</ele>
        <time>2017-10-21T06:16:44Z</time>
      </trkpt>
      <trkpt lat="45.30426" lon="5.89173">
        <ele>504.4460144043</ele>
        <time>2017-10-21T06:16:49Z</time>
      </trkpt>
      <trkpt lat="45.30431" lon="5.89175">
        <ele>502.4460144043</ele>
        <time>2017-10-21T06:16:54Z</time>
      </trkpt>
      <trkpt lat="45.30433" lon="5.89183">
        <ele>508.4460144043</ele>
        <time>2017-10-21T06:17:07Z</time>
      </trkpt>
      <trkpt lat="45.30439" lon="5.89187">
        <ele>510.4460144043</ele>
        <time>2017-10-21T06:17:10Z</time>
      </trkpt>
      <trkpt lat="45.30441" lon="5.89192">
        <ele>509.4460144043</ele>
        <time>2017-10-21T06:17:13Z</time>
      </trkpt>
      <trkpt lat="45.30443" lon="5.89201">
        <ele>511.4460144043</ele>
        <time>2017-10-21T06:17:17Z</time>
      </trkpt>
      <trkpt lat="45.30447" lon="5.89205">
        <ele>512.44598388672</ele>
        <time>2017-10-21T06:17:21Z</time>
      </trkpt>
      <trkpt lat="45.30453" lon="5.89206">
        <ele>513.44598388672</ele>
        <time>2017-10-21T06:17:24Z</time>
      </trkpt>
      <trkpt lat="45.30457" lon="5.89215">
        <ele>513.44598388672</ele>
        <time>2017-10-21T06:17:26Z</time>
      </trkpt>
      <trkpt lat="45.30459" lon="5.89221">
        <ele>513.44598388672</ele>
        <time>2017-10-21T06:17:28Z</time>
      </trkpt>
      <trkpt lat="45.30463" lon="5.89224">
        <ele>513.44598388672</ele>
        <time>2017-10-21T06:17:31Z</time>
      </trkpt>
      <trkpt lat="45.30466" lon="5.89231">
        <ele>520.44598388672</ele>
        <time>2017-10-21T06:17:38Z</time>
      </trkpt>
      <trkpt lat="45.30469" lon="5.89236">
        <ele>521.44598388672</ele>
        <time>2017-10-21T06:17:43Z</time>
      </trkpt>
      <trkpt lat="45.30474" lon="5.89242">
        <ele>519.44598388672</ele>
        <time>2017-10-21T06:17:47Z</time>
      </trkpt>
      <trkpt lat="45.30479" lon="5.89243">
        <ele>522.44598388672</ele>
        <time>2017-10-21T06:17:53Z</time>
      </trkpt>
      <trkpt lat="45.30483" lon="5.89245">
        <ele>521.44598388672</ele>
        <time>2017-10-21T06:17:56Z</time>
      </trkpt>
      <trkpt lat="45.30488" lon="5.89246">
        <ele>524.44598388672</ele>
        <time>2017-10-21T06:18:02Z</time>
      </trkpt>
      <trkpt lat="45.30492" lon="5.89249">
        <ele>529.44598388672</ele>
        <time>2017-10-21T06:18:11Z</time>
      </trkpt>
      <trkpt lat="45.30495" lon="5.89253">
        <ele>533.44702148438</ele>
        <time>2017-10-21T06:18:16Z</time>
      </trkpt>
      <trkpt lat="45.305" lon="5.89252">
        <ele>536.44702148438</ele>
        <time>2017-10-21T06:18:24Z</time>
      </trkpt>
      <trkpt lat="45.30504" lon="5.89255">
        <ele>538.44702148438</ele>
        <time>2017-10-21T06:18:32Z</time>
      </trkpt>
      <trkpt lat="45.30509" lon="5.89257">
        <ele>541.44702148438</ele>
        <time>2017-10-21T06:18:41Z</time>
      </trkpt>
      <trkpt lat="45.30512" lon="5.89263">
        <ele>545.44702148438</ele>
        <time>2017-10-21T06:18:48Z</time>
      </trkpt>
      <trkpt lat="45.30514" lon="5.89271">
        <ele>545.44702148438</ele>
        <time>2017-10-21T06:18:52Z</time>
      </trkpt>
      <trkpt lat="45.30518" lon="5.89277">
        <ele>544.44702148438</ele>
        <time>2017-10-21T06:18:55Z</time>
      </trkpt>
      <trkpt lat="45.30522" lon="5.89279">
        <ele>546.44702148438</ele>
        <time>2017-10-21T06:18:59Z</time>
      </trkpt>
      <trkpt lat="45.30527" lon="5.89282">
        <ele>546.44702148438</ele>
        <time>2017-10-21T06:19:03Z</time>
      </trkpt>
      <trkpt lat="45.30526" lon="5.89288">
        <ele>546.44702148438</ele>
        <time>2017-10-21T06:19:06Z</time>
      </trkpt>
      <trkpt lat="45.30528" lon="5.89296">
        <ele>544.44702148438</ele>
        <time>2017-10-21T06:19:09Z</time>
      </trkpt>
      <trkpt lat="45.30531" lon="5.89304">
        <ele>545.44702148438</ele>
        <time>2017-10-21T06:19:14Z</time>
      </trkpt>
      <trkpt lat="45.30535" lon="5.89308">
        <ele>547.44702148438</ele>
        <time>2017-10-21T06:19:22Z</time>
      </trkpt>
      <trkpt lat="45.30538" lon="5.89317">
        <ele>549.44702148438</ele>
        <time>2017-10-21T06:19:41Z</time>
      </trkpt>
      <trkpt lat="45.30542" lon="5.89321">
        <ele>549.44702148438</ele>
        <time>2017-10-21T06:19:46Z</time>
      </trkpt>
      <trkpt lat="45.30546" lon="5.89333">
        <ele>550.44702148438</ele>
        <time>2017-10-21T06:20:02Z</time>
      </trkpt>
      <trkpt lat="45.30553" lon="5.8934">
        <ele>551.44702148438</ele>
        <time>2017-10-21T06:20:07Z</time>
      </trkpt>
      <trkpt lat="45.30555" lon="5.89346">
        <ele>554.44702148438</ele>
        <time>2017-10-21T06:20:11Z</time>
      </trkpt>
      <trkpt lat="45.30558" lon="5.89353">
        <ele>556.44702148438</ele>
        <time>2017-10-21T06:20:15Z</time>
      </trkpt>
      <trkpt lat="45.30563" lon="5.89357">
        <ele>556.44702148438</ele>
        <time>2017-10-21T06:20:20Z</time>
      </trkpt>
      <trkpt lat="45.30565" lon="5.89363">
        <ele>559.44702148438</ele>
        <time>2017-10-21T06:20:24Z</time>
      </trkpt>
      <trkpt lat="45.30565" lon="5.89371">
        <ele>385.4469909668</ele>
        <time>2017-10-21T06:20:30Z</time>
      </trkpt>
      <trkpt lat="45.30563" lon="5.8938">
        <ele>533.44702148438</ele>
        <time>2017-10-21T06:20:36Z</time>
      </trkpt>
      <trkpt lat="45.30566" lon="5.89386">
        <ele>562.44702148438</ele>
        <time>2017-10-21T06:20:41Z</time>
      </trkpt>
      <trkpt lat="45.30567" lon="5.89392">
        <ele>572.44702148438</ele>
        <time>2017-10-21T06:20:50Z</time>
      </trkpt>
      <trkpt lat="45.30572" lon="5.89398">
        <ele>573.44702148438</ele>
        <time>2017-10-21T06:20:59Z</time>
      </trkpt>
      <trkpt lat="45.30576" lon="5.89401">
        <ele>580.44702148438</ele>
        <time>2017-10-21T06:21:18Z</time>
      </trkpt>
      <trkpt lat="45.3058" lon="5.89399">
        <ele>581.44702148438</ele>
        <time>2017-10-21T06:21:21Z</time>
      </trkpt>
      <trkpt lat="45.30587" lon="5.89398">
        <ele>590.44702148438</ele>
        <time>2017-10-21T06:21:32Z</time>
      </trkpt>
      <trkpt lat="45.30592" lon="5.89401">
        <ele>594.44702148438</ele>
        <time>2017-10-21T06:21:40Z</time>
      </trkpt>
      <trkpt lat="45.30599" lon="5.89404">
        <ele>387.4469909668</ele>
        <time>2017-10-21T06:21:44Z</time>
      </trkpt>
      <trkpt lat="45.30604" lon="5.89406">
        <ele>589.44702148438</ele>
        <time>2017-10-21T06:22:07Z</time>
      </trkpt>
      <trkpt lat="45.30608" lon="5.89401">
        <ele>562.44702148438</ele>
        <time>2017-10-21T06:22:18Z</time>
      </trkpt>
      <trkpt lat="45.30604" lon="5.89397">
        <ele>602.44702148438</ele>
        <time>2017-10-21T06:22:27Z</time>
      </trkpt>
      <trkpt lat="45.30604" lon="5.8939">
        <ele>602.44702148438</ele>
        <time>2017-10-21T06:22:31Z</time>
      </trkpt>
      <trkpt lat="45.30604" lon="5.89383">
        <ele>605.44702148438</ele>
        <time>2017-10-21T06:22:34Z</time>
      </trkpt>
      <trkpt lat="45.30606" lon="5.89377">
        <ele>608.44702148438</ele>
        <time>2017-10-21T06:22:38Z</time>
      </trkpt>
      <trkpt lat="45.30609" lon="5.89373">
        <ele>606.44702148438</ele>
        <time>2017-10-21T06:22:43Z</time>
      </trkpt>
      <trkpt lat="45.30608" lon="5.89366">
        <ele>611.44702148438</ele>
        <time>2017-10-21T06:22:47Z</time>
      </trkpt>
      <trkpt lat="45.30607" lon="5.89359">
        <ele>614.44702148438</ele>
        <time>2017-10-21T06:22:51Z</time>
      </trkpt>
      <trkpt lat="45.30608" lon="5.89353">
        <ele>616.44702148438</ele>
        <time>2017-10-21T06:22:55Z</time>
      </trkpt>
      <trkpt lat="45.30612" lon="5.89349">
        <ele>624.44702148438</ele>
        <time>2017-10-21T06:23:03Z</time>
      </trkpt>
      <trkpt lat="45.30614" lon="5.89354">
        <ele>626.44702148438</ele>
        <time>2017-10-21T06:23:08Z</time>
      </trkpt>
      <trkpt lat="45.30619" lon="5.89357">
        <ele>627.44702148438</ele>
        <time>2017-10-21T06:23:13Z</time>
      </trkpt>
      <trkpt lat="45.30624" lon="5.8936">
        <ele>626.44702148438</ele>
        <time>2017-10-21T06:23:21Z</time>
      </trkpt>
      <trkpt lat="45.30627" lon="5.89354">
        <ele>628.44702148438</ele>
        <time>2017-10-21T06:23:26Z</time>
      </trkpt>
      <trkpt lat="45.30626" lon="5.89347">
        <ele>631.44702148438</ele>
        <time>2017-10-21T06:23:32Z</time>
      </trkpt>
      <trkpt lat="45.30624" lon="5.89341">
        <ele>634.44702148438</ele>
        <time>2017-10-21T06:23:36Z</time>
      </trkpt>
      <trkpt lat="45.30623" lon="5.89334">
        <ele>636.44702148438</ele>
        <time>2017-10-21T06:23:39Z</time>
      </trkpt>
      <trkpt lat="45.30623" lon="5.89326">
        <ele>639.44702148438</ele>
        <time>2017-10-21T06:23:44Z</time>
      </trkpt>
      <trkpt lat="45.30623" lon="5.89319">
        <ele>641.44702148438</ele>
        <time>2017-10-21T06:23:50Z</time>
      </trkpt>
      <trkpt lat="45.30628" lon="5.89322">
        <ele>643.44702148438</ele>
        <time>2017-10-21T06:23:56Z</time>
      </trkpt>
      <trkpt lat="45.30632" lon="5.89326">
        <ele>645.44702148438</ele>
        <time>2017-10-21T06:24:01Z</time>
      </trkpt>
      <trkpt lat="45.30636" lon="5.8933">
        <ele>643.44702148438</ele>
        <time>2017-10-21T06:24:04Z</time>
      </trkpt>
      <trkpt lat="45.30641" lon="5.89332">
        <ele>643.44702148438</ele>
        <time>2017-10-21T06:24:08Z</time>
      </trkpt>
      <trkpt lat="45.30645" lon="5.89338">
        <ele>646.44702148438</ele>
        <time>2017-10-21T06:24:14Z</time>
      </trkpt>
      <trkpt lat="45.30649" lon="5.89344">
        <ele>645.44702148438</ele>
        <time>2017-10-21T06:24:20Z</time>
      </trkpt>
      <trkpt lat="45.30653" lon="5.8935">
        <ele>648.44702148438</ele>
        <time>2017-10-21T06:24:25Z</time>
      </trkpt>
      <trkpt lat="45.30656" lon="5.89355">
        <ele>650.44702148438</ele>
        <time>2017-10-21T06:24:29Z</time>
      </trkpt>
      <trkpt lat="45.30658" lon="5.89349">
        <ele>651.44702148438</ele>
        <time>2017-10-21T06:24:37Z</time>
      </trkpt>
      <trkpt lat="45.30658" lon="5.89343">
        <ele>653.44702148438</ele>
        <time>2017-10-21T06:24:42Z</time>
      </trkpt>
      <trkpt lat="45.30663" lon="5.89344">
        <ele>654.44702148438</ele>
        <time>2017-10-21T06:24:51Z</time>
      </trkpt>
      <trkpt lat="45.30686" lon="5.89322">
        <ele>660.44702148438</ele>
        <time>2017-10-21T06:25:19Z</time>
      </trkpt>
      <trkpt lat="45.30683" lon="5.89327">
        <ele>666.44702148438</ele>
        <time>2017-10-21T06:25:20Z</time>
      </trkpt>
      <trkpt lat="45.30685" lon="5.89335">
        <ele>674.44702148438</ele>
        <time>2017-10-21T06:25:42Z</time>
      </trkpt>
      <trkpt lat="45.30687" lon="5.89342">
        <ele>677.44702148438</ele>
        <time>2017-10-21T06:25:46Z</time>
      </trkpt>
      <trkpt lat="45.30691" lon="5.89346">
        <ele>680.44702148438</ele>
        <time>2017-10-21T06:25:48Z</time>
      </trkpt>
      <trkpt lat="45.30697" lon="5.89351">
        <ele>680.44702148438</ele>
        <time>2017-10-21T06:25:51Z</time>
      </trkpt>
      <trkpt lat="45.30702" lon="5.89351">
        <ele>679.44702148438</ele>
        <time>2017-10-21T06:25:56Z</time>
      </trkpt>
      <trkpt lat="45.30705" lon="5.89345">
        <ele>679.44702148438</ele>
        <time>2017-10-21T06:26:02Z</time>
      </trkpt>
      <trkpt lat="45.30703" lon="5.89337">
        <ele>683.44702148438</ele>
        <time>2017-10-21T06:26:10Z</time>
      </trkpt>
      <trkpt lat="45.30704" lon="5.89331">
        <ele>685.44702148438</ele>
        <time>2017-10-21T06:26:17Z</time>
      </trkpt>
      <trkpt lat="45.30707" lon="5.89325">
        <ele>684.44702148438</ele>
        <time>2017-10-21T06:26:24Z</time>
      </trkpt>
      <trkpt lat="45.30708" lon="5.89318">
        <ele>688.44702148438</ele>
        <time>2017-10-21T06:26:31Z</time>
      </trkpt>
      <trkpt lat="45.30707" lon="5.89311">
        <ele>688.44702148438</ele>
        <time>2017-10-21T06:26:35Z</time>
      </trkpt>
      <trkpt lat="45.30708" lon="5.89305">
        <ele>690.44702148438</ele>
        <time>2017-10-21T06:26:41Z</time>
      </trkpt>
      <trkpt lat="45.3071" lon="5.89299">
        <ele>692.44702148438</ele>
        <time>2017-10-21T06:26:46Z</time>
      </trkpt>
      <trkpt lat="45.3071" lon="5.89292">
        <ele>692.44702148438</ele>
        <time>2017-10-21T06:26:52Z</time>
      </trkpt>
      <trkpt lat="45.30712" lon="5.89285">
        <ele>692.44702148438</ele>
        <time>2017-10-21T06:26:56Z</time>
      </trkpt>
      <trkpt lat="45.30712" lon="5.89278">
        <ele>692.44702148438</ele>
        <time>2017-10-21T06:27:00Z</time>
      </trkpt>
      <trkpt lat="45.30713" lon="5.89272">
        <ele>692.44702148438</ele>
        <time>2017-10-21T06:27:04Z</time>
      </trkpt>
      <trkpt lat="45.30712" lon="5.89265">
        <ele>692.44702148438</ele>
        <time>2017-10-21T06:27:09Z</time>
      </trkpt>
      <trkpt lat="45.30711" lon="5.89259">
        <ele>695.44702148438</ele>
        <time>2017-10-21T06:27:13Z</time>
      </trkpt>
      <trkpt lat="45.30709" lon="5.89252">
        <ele>697.44702148438</ele>
        <time>2017-10-21T06:27:18Z</time>
      </trkpt>
      <trkpt lat="45.30709" lon="5.89243">
        <ele>697.44702148438</ele>
        <time>2017-10-21T06:27:23Z</time>
      </trkpt>
      <trkpt lat="45.30709" lon="5.89236">
        <ele>699.44702148438</ele>
        <time>2017-10-21T06:27:26Z</time>
      </trkpt>
      <trkpt lat="45.30708" lon="5.89228">
        <ele>702.44702148438</ele>
        <time>2017-10-21T06:27:31Z</time>
      </trkpt>
      <trkpt lat="45.30705" lon="5.89223">
        <ele>706.44702148438</ele>
        <time>2017-10-21T06:27:35Z</time>
      </trkpt>
      <trkpt lat="45.30705" lon="5.89216">
        <ele>708.44702148438</ele>
        <time>2017-10-21T06:27:40Z</time>
      </trkpt>
      <trkpt lat="45.30706" lon="5.89209">
        <ele>709.44702148438</ele>
        <time>2017-10-21T06:27:46Z</time>
      </trkpt>
      <trkpt lat="45.30704" lon="5.89202">
        <ele>713.44702148438</ele>
        <time>2017-10-21T06:27:51Z</time>
      </trkpt>
      <trkpt lat="45.30704" lon="5.89195">
        <ele>715.44702148438</ele>
        <time>2017-10-21T06:27:57Z</time>
      </trkpt>
      <trkpt lat="45.30704" lon="5.89187">
        <ele>716.44702148438</ele>
        <time>2017-10-21T06:28:03Z</time>
      </trkpt>
      <trkpt lat="45.30703" lon="5.89179">
        <ele>719.44702148438</ele>
        <time>2017-10-21T06:28:08Z</time>
      </trkpt>
      <trkpt lat="45.30702" lon="5.89173">
        <ele>723.44702148438</ele>
        <time>2017-10-21T06:28:12Z</time>
      </trkpt>
      <trkpt lat="45.307" lon="5.89166">
        <ele>727.44702148438</ele>
        <time>2017-10-21T06:28:18Z</time>
      </trkpt>
      <trkpt lat="45.30699" lon="5.8916">
        <ele>729.44702148438</ele>
        <time>2017-10-21T06:28:23Z</time>
      </trkpt>
      <trkpt lat="45.30699" lon="5.89153">
        <ele>730.44702148438</ele>
        <time>2017-10-21T06:28:29Z</time>
      </trkpt>
      <trkpt lat="45.30699" lon="5.89145">
        <ele>727.44702148438</ele>
        <time>2017-10-21T06:28:35Z</time>
      </trkpt>
      <trkpt lat="45.30697" lon="5.89138">
        <ele>730.44702148438</ele>
        <time>2017-10-21T06:28:40Z</time>
      </trkpt>
      <trkpt lat="45.30696" lon="5.89131">
        <ele>734.44702148438</ele>
        <time>2017-10-21T06:28:44Z</time>
      </trkpt>
      <trkpt lat="45.30696" lon="5.89123">
        <ele>735.44702148438</ele>
        <time>2017-10-21T06:28:53Z</time>
      </trkpt>
      <trkpt lat="45.30694" lon="5.89117">
        <ele>737.44702148438</ele>
        <time>2017-10-21T06:28:57Z</time>
      </trkpt>
      <trkpt lat="45.3069" lon="5.89112">
        <ele>739.44702148438</ele>
        <time>2017-10-21T06:29:02Z</time>
      </trkpt>
      <trkpt lat="45.3069" lon="5.89105">
        <ele>735.44702148438</ele>
        <time>2017-10-21T06:29:08Z</time>
      </trkpt>
      <trkpt lat="45.30688" lon="5.89099">
        <ele>737.44702148438</ele>
        <time>2017-10-21T06:29:13Z</time>
      </trkpt>
      <trkpt lat="45.30685" lon="5.89094">
        <ele>741.44702148438</ele>
        <time>2017-10-21T06:29:19Z</time>
      </trkpt>
      <trkpt lat="45.30682" lon="5.89088">
        <ele>744.44702148438</ele>
        <time>2017-10-21T06:29:26Z</time>
      </trkpt>
      <trkpt lat="45.30684" lon="5.89082">
        <ele>745.44702148438</ele>
        <time>2017-10-21T06:29:33Z</time>
      </trkpt>
      <trkpt lat="45.30689" lon="5.89085">
        <ele>748.44702148438</ele>
        <time>2017-10-21T06:29:41Z</time>
      </trkpt>
      <trkpt lat="45.30695" lon="5.89086">
        <ele>752.44702148438</ele>
        <time>2017-10-21T06:29:48Z</time>
      </trkpt>
      <trkpt lat="45.307" lon="5.89085">
        <ele>753.44702148438</ele>
        <time>2017-10-21T06:29:52Z</time>
      </trkpt>
      <trkpt lat="45.30705" lon="5.89086">
        <ele>755.44702148438</ele>
        <time>2017-10-21T06:29:57Z</time>
      </trkpt>
      <trkpt lat="45.3071" lon="5.89087">
        <ele>755.44702148438</ele>
        <time>2017-10-21T06:30:02Z</time>
      </trkpt>
      <trkpt lat="45.30715" lon="5.89085">
        <ele>756.44702148438</ele>
        <time>2017-10-21T06:30:07Z</time>
      </trkpt>
      <trkpt lat="45.30718" lon="5.8909">
        <ele>759.44702148438</ele>
        <time>2017-10-21T06:30:12Z</time>
      </trkpt>
      <trkpt lat="45.30723" lon="5.8909">
        <ele>762.44702148438</ele>
        <time>2017-10-21T06:30:17Z</time>
      </trkpt>
      <trkpt lat="45.30727" lon="5.89094">
        <ele>762.44702148438</ele>
        <time>2017-10-21T06:30:26Z</time>
      </trkpt>
      <trkpt lat="45.30732" lon="5.89097">
        <ele>762.44702148438</ele>
        <time>2017-10-21T06:30:40Z</time>
      </trkpt>
      <trkpt lat="45.30737" lon="5.89097">
        <ele>761.44702148438</ele>
        <time>2017-10-21T06:30:44Z</time>
      </trkpt>
      <trkpt lat="45.30742" lon="5.89101">
        <ele>760.44702148438</ele>
        <time>2017-10-21T06:30:47Z</time>
      </trkpt>
      <trkpt lat="45.30746" lon="5.89107">
        <ele>759.44702148438</ele>
        <time>2017-10-21T06:30:49Z</time>
      </trkpt>
      <trkpt lat="45.3075" lon="5.89111">
        <ele>760.44702148438</ele>
        <time>2017-10-21T06:30:52Z</time>
      </trkpt>
      <trkpt lat="45.30752" lon="5.89118">
        <ele>762.44702148438</ele>
        <time>2017-10-21T06:30:55Z</time>
      </trkpt>
      <trkpt lat="45.30756" lon="5.89123">
        <ele>762.44702148438</ele>
        <time>2017-10-21T06:30:59Z</time>
      </trkpt>
      <trkpt lat="45.30759" lon="5.89128">
        <ele>766.44702148438</ele>
        <time>2017-10-21T06:31:08Z</time>
      </trkpt>
      <trkpt lat="45.30765" lon="5.89132">
        <ele>765.44702148438</ele>
        <time>2017-10-21T06:31:19Z</time>
      </trkpt>
      <trkpt lat="45.30771" lon="5.89134">
        <ele>765.44702148438</ele>
        <time>2017-10-21T06:31:23Z</time>
      </trkpt>
      <trkpt lat="45.30773" lon="5.89139">
        <ele>766.44702148438</ele>
        <time>2017-10-21T06:31:26Z</time>
      </trkpt>
      <trkpt lat="45.30776" lon="5.89145">
        <ele>766.44702148438</ele>
        <time>2017-10-21T06:31:29Z</time>
      </trkpt>
      <trkpt lat="45.30779" lon="5.8915">
        <ele>769.44702148438</ele>
        <time>2017-10-21T06:31:32Z</time>
      </trkpt>
      <trkpt lat="45.30783" lon="5.89157">
        <ele>770.44702148438</ele>
        <time>2017-10-21T06:31:36Z</time>
      </trkpt>
      <trkpt lat="45.30783" lon="5.89166">
        <ele>773.44702148438</ele>
        <time>2017-10-21T06:31:39Z</time>
      </trkpt>
      <trkpt lat="45.30785" lon="5.89173">
        <ele>777.44702148438</ele>
        <time>2017-10-21T06:31:47Z</time>
      </trkpt>
      <trkpt lat="45.30789" lon="5.89169">
        <ele>785.44702148438</ele>
        <time>2017-10-21T06:32:01Z</time>
      </trkpt>
      <trkpt lat="45.3079" lon="5.89162">
        <ele>785.44702148438</ele>
        <time>2017-10-21T06:32:06Z</time>
      </trkpt>
      <trkpt lat="45.3079" lon="5.89154">
        <ele>787.44702148438</ele>
        <time>2017-10-21T06:32:13Z</time>
      </trkpt>
      <trkpt lat="45.3079" lon="5.89147">
        <ele>788.44702148438</ele>
        <time>2017-10-21T06:32:18Z</time>
      </trkpt>
      <trkpt lat="45.3079" lon="5.8914">
        <ele>788.44702148438</ele>
        <time>2017-10-21T06:32:24Z</time>
      </trkpt>
      <trkpt lat="45.30789" lon="5.89133">
        <ele>793.44702148438</ele>
        <time>2017-10-21T06:32:29Z</time>
      </trkpt>
      <trkpt lat="45.3079" lon="5.89126">
        <ele>795.44702148438</ele>
        <time>2017-10-21T06:32:32Z</time>
      </trkpt>
      <trkpt lat="45.30788" lon="5.89119">
        <ele>800.44702148438</ele>
        <time>2017-10-21T06:32:37Z</time>
      </trkpt>
      <trkpt lat="45.30785" lon="5.89113">
        <ele>802.44702148438</ele>
        <time>2017-10-21T06:32:41Z</time>
      </trkpt>
      <trkpt lat="45.30785" lon="5.89105">
        <ele>803.44702148438</ele>
        <time>2017-10-21T06:32:46Z</time>
      </trkpt>
      <trkpt lat="45.30784" lon="5.89098">
        <ele>803.44702148438</ele>
        <time>2017-10-21T06:32:51Z</time>
      </trkpt>
      <trkpt lat="45.30781" lon="5.89092">
        <ele>807.44702148438</ele>
        <time>2017-10-21T06:32:55Z</time>
      </trkpt>
      <trkpt lat="45.30779" lon="5.89086">
        <ele>807.44702148438</ele>
        <time>2017-10-21T06:33:00Z</time>
      </trkpt>
      <trkpt lat="45.30776" lon="5.8908">
        <ele>807.44702148438</ele>
        <time>2017-10-21T06:33:04Z</time>
      </trkpt>
      <trkpt lat="45.30773" lon="5.89075">
        <ele>768.44702148438</ele>
        <time>2017-10-21T06:33:08Z</time>
      </trkpt>
      <trkpt lat="45.3077" lon="5.89068">
        <ele>811.44702148438</ele>
        <time>2017-10-21T06:33:12Z</time>
      </trkpt>
      <trkpt lat="45.30767" lon="5.89062">
        <ele>811.44702148438</ele>
        <time>2017-10-21T06:33:18Z</time>
      </trkpt>
      <trkpt lat="45.30767" lon="5.89053">
        <ele>809.44702148438</ele>
        <time>2017-10-21T06:33:23Z</time>
      </trkpt>
      <trkpt lat="45.30764" lon="5.89047">
        <ele>810.44702148438</ele>
        <time>2017-10-21T06:33:28Z</time>
      </trkpt>
      <trkpt lat="45.30762" lon="5.89041">
        <ele>811.44702148438</ele>
        <time>2017-10-21T06:33:33Z</time>
      </trkpt>
      <trkpt lat="45.30761" lon="5.89034">
        <ele>811.44702148438</ele>
        <time>2017-10-21T06:33:38Z</time>
      </trkpt>
      <trkpt lat="45.30758" lon="5.89028">
        <ele>812.44702148438</ele>
        <time>2017-10-21T06:33:43Z</time>
      </trkpt>
      <trkpt lat="45.30755" lon="5.89022">
        <ele>814.44702148438</ele>
        <time>2017-10-21T06:33:48Z</time>
      </trkpt>
      <trkpt lat="45.30753" lon="5.89016">
        <ele>816.44702148438</ele>
        <time>2017-10-21T06:33:54Z</time>
      </trkpt>
      <trkpt lat="45.30749" lon="5.89009">
        <ele>818.44702148438</ele>
        <time>2017-10-21T06:34:00Z</time>
      </trkpt>
      <trkpt lat="45.30747" lon="5.89003">
        <ele>818.44702148438</ele>
        <time>2017-10-21T06:34:05Z</time>
      </trkpt>
      <trkpt lat="45.30747" lon="5.88996">
        <ele>821.44702148438</ele>
        <time>2017-10-21T06:34:10Z</time>
      </trkpt>
      <trkpt lat="45.30744" lon="5.88989">
        <ele>821.44702148438</ele>
        <time>2017-10-21T06:34:16Z</time>
      </trkpt>
      <trkpt lat="45.30741" lon="5.88982">
        <ele>821.44702148438</ele>
        <time>2017-10-21T06:34:21Z</time>
      </trkpt>
      <trkpt lat="45.30737" lon="5.88978">
        <ele>820.44702148438</ele>
        <time>2017-10-21T06:34:25Z</time>
      </trkpt>
      <trkpt lat="45.30733" lon="5.88972">
        <ele>821.44702148438</ele>
        <time>2017-10-21T06:34:29Z</time>
      </trkpt>
      <trkpt lat="45.3073" lon="5.88966">
        <ele>823.44702148438</ele>
        <time>2017-10-21T06:34:34Z</time>
      </trkpt>
      <trkpt lat="45.30727" lon="5.88961">
        <ele>824.44702148438</ele>
        <time>2017-10-21T06:34:43Z</time>
      </trkpt>
      <trkpt lat="45.30725" lon="5.88955">
        <ele>827.44702148438</ele>
        <time>2017-10-21T06:34:49Z</time>
      </trkpt>
      <trkpt lat="45.30723" lon="5.88949">
        <ele>829.44702148438</ele>
        <time>2017-10-21T06:34:55Z</time>
      </trkpt>
      <trkpt lat="45.30722" lon="5.88942">
        <ele>832.44702148438</ele>
        <time>2017-10-21T06:35:02Z</time>
      </trkpt>
      <trkpt lat="45.30724" lon="5.88934">
        <ele>833.44702148438</ele>
        <time>2017-10-21T06:35:09Z</time>
      </trkpt>
      <trkpt lat="45.30728" lon="5.8893">
        <ele>833.44702148438</ele>
        <time>2017-10-21T06:35:18Z</time>
      </trkpt>
      <trkpt lat="45.30732" lon="5.88927">
        <ele>830.44702148438</ele>
        <time>2017-10-21T06:35:26Z</time>
      </trkpt>
      <trkpt lat="45.30736" lon="5.88923">
        <ele>832.44702148438</ele>
        <time>2017-10-21T06:35:40Z</time>
      </trkpt>
      <trkpt lat="45.30737" lon="5.88916">
        <ele>832.44702148438</ele>
        <time>2017-10-21T06:35:54Z</time>
      </trkpt>
      <trkpt lat="45.30741" lon="5.88923">
        <ele>830.44702148438</ele>
        <time>2017-10-21T06:36:24Z</time>
      </trkpt>
      <trkpt lat="45.30744" lon="5.88929">
        <ele>830.44702148438</ele>
        <time>2017-10-21T06:36:27Z</time>
      </trkpt>
      <trkpt lat="45.30743" lon="5.88935">
        <ele>830.44702148438</ele>
        <time>2017-10-21T06:36:31Z</time>
      </trkpt>
      <trkpt lat="45.30746" lon="5.88943">
        <ele>833.44702148438</ele>
        <time>2017-10-21T06:36:35Z</time>
      </trkpt>
      <trkpt lat="45.30749" lon="5.88947">
        <ele>835.44702148438</ele>
        <time>2017-10-21T06:36:41Z</time>
      </trkpt>
      <trkpt lat="45.30753" lon="5.88952">
        <ele>836.44702148438</ele>
        <time>2017-10-21T06:36:47Z</time>
      </trkpt>
      <trkpt lat="45.30757" lon="5.88958">
        <ele>838.44702148438</ele>
        <time>2017-10-21T06:36:53Z</time>
      </trkpt>
      <trkpt lat="45.30759" lon="5.88964">
        <ele>840.44702148438</ele>
        <time>2017-10-21T06:36:59Z</time>
      </trkpt>
      <trkpt lat="45.30763" lon="5.88968">
        <ele>839.44702148438</ele>
        <time>2017-10-21T06:37:03Z</time>
      </trkpt>
      <trkpt lat="45.30766" lon="5.88975">
        <ele>840.44702148438</ele>
        <time>2017-10-21T06:37:08Z</time>
      </trkpt>
      <trkpt lat="45.30767" lon="5.88982">
        <ele>841.44702148438</ele>
        <time>2017-10-21T06:37:11Z</time>
      </trkpt>
      <trkpt lat="45.30769" lon="5.88989">
        <ele>847.44702148438</ele>
        <time>2017-10-21T06:37:15Z</time>
      </trkpt>
      <trkpt lat="45.30772" lon="5.88997">
        <ele>847.44702148438</ele>
        <time>2017-10-21T06:37:19Z</time>
      </trkpt>
      <trkpt lat="45.30774" lon="5.89003">
        <ele>848.44702148438</ele>
        <time>2017-10-21T06:37:21Z</time>
      </trkpt>
      <trkpt lat="45.30778" lon="5.89008">
        <ele>850.44702148438</ele>
        <time>2017-10-21T06:37:25Z</time>
      </trkpt>
      <trkpt lat="45.30782" lon="5.89012">
        <ele>851.44702148438</ele>
        <time>2017-10-21T06:37:30Z</time>
      </trkpt>
      <trkpt lat="45.30785" lon="5.89016">
        <ele>851.44702148438</ele>
        <time>2017-10-21T06:37:35Z</time>
      </trkpt>
      <trkpt lat="45.30787" lon="5.89023">
        <ele>853.44702148438</ele>
        <time>2017-10-21T06:37:41Z</time>
      </trkpt>
      <trkpt lat="45.3079" lon="5.89029">
        <ele>852.44702148438</ele>
        <time>2017-10-21T06:37:44Z</time>
      </trkpt>
      <trkpt lat="45.30793" lon="5.89035">
        <ele>853.44702148438</ele>
        <time>2017-10-21T06:37:49Z</time>
      </trkpt>
      <trkpt lat="45.30797" lon="5.8904">
        <ele>858.44702148438</ele>
        <time>2017-10-21T06:38:00Z</time>
      </trkpt>
      <trkpt lat="45.30798" lon="5.89048">
        <ele>859.44702148438</ele>
        <time>2017-10-21T06:38:07Z</time>
      </trkpt>
      <trkpt lat="45.30799" lon="5.89055">
        <ele>864.44702148438</ele>
        <time>2017-10-21T06:38:15Z</time>
      </trkpt>
      <trkpt lat="45.30801" lon="5.89061">
        <ele>866.44702148438</ele>
        <time>2017-10-21T06:38:18Z</time>
      </trkpt>
      <trkpt lat="45.30804" lon="5.89067">
        <ele>867.44702148438</ele>
        <time>2017-10-21T06:38:21Z</time>
      </trkpt>
      <trkpt lat="45.30807" lon="5.8907">
        <ele>867.44702148438</ele>
        <time>2017-10-21T06:38:26Z</time>
      </trkpt>
      <trkpt lat="45.3081" lon="5.89076">
        <ele>869.44702148438</ele>
        <time>2017-10-21T06:38:31Z</time>
      </trkpt>
      <trkpt lat="45.30813" lon="5.89082">
        <ele>874.44702148438</ele>
        <time>2017-10-21T06:38:37Z</time>
      </trkpt>
      <trkpt lat="45.30814" lon="5.89088">
        <ele>874.44702148438</ele>
        <time>2017-10-21T06:38:44Z</time>
      </trkpt>
      <trkpt lat="45.30818" lon="5.89094">
        <ele>877.44702148438</ele>
        <time>2017-10-21T06:38:48Z</time>
      </trkpt>
      <trkpt lat="45.3082" lon="5.891">
        <ele>879.44702148438</ele>
        <time>2017-10-21T06:38:53Z</time>
      </trkpt>
      <trkpt lat="45.30825" lon="5.89104">
        <ele>879.44702148438</ele>
        <time>2017-10-21T06:38:55Z</time>
      </trkpt>
      <trkpt lat="45.30829" lon="5.8911">
        <ele>881.44702148438</ele>
        <time>2017-10-21T06:38:59Z</time>
      </trkpt>
      <trkpt lat="45.30834" lon="5.89114">
        <ele>882.44702148438</ele>
        <time>2017-10-21T06:39:02Z</time>
      </trkpt>
      <trkpt lat="45.30837" lon="5.89118">
        <ele>882.44702148438</ele>
        <time>2017-10-21T06:39:06Z</time>
      </trkpt>
      <trkpt lat="45.3084" lon="5.89125">
        <ele>883.44702148438</ele>
        <time>2017-10-21T06:39:12Z</time>
      </trkpt>
      <trkpt lat="45.30843" lon="5.8913">
        <ele>882.44702148438</ele>
        <time>2017-10-21T06:39:15Z</time>
      </trkpt>
      <trkpt lat="45.30847" lon="5.89134">
        <ele>885.44702148438</ele>
        <time>2017-10-21T06:39:21Z</time>
      </trkpt>
      <trkpt lat="45.30851" lon="5.89132">
        <ele>887.44702148438</ele>
        <time>2017-10-21T06:39:29Z</time>
      </trkpt>
      <trkpt lat="45.30852" lon="5.89124">
        <ele>887.44702148438</ele>
        <time>2017-10-21T06:39:34Z</time>
      </trkpt>
      <trkpt lat="45.30854" lon="5.89118">
        <ele>886.44702148438</ele>
        <time>2017-10-21T06:39:39Z</time>
      </trkpt>
      <trkpt lat="45.30855" lon="5.89111">
        <ele>889.44702148438</ele>
        <time>2017-10-21T06:39:44Z</time>
      </trkpt>
      <trkpt lat="45.30856" lon="5.89103">
        <ele>891.44702148438</ele>
        <time>2017-10-21T06:39:49Z</time>
      </trkpt>
      <trkpt lat="45.30857" lon="5.89095">
        <ele>893.44702148438</ele>
        <time>2017-10-21T06:39:54Z</time>
      </trkpt>
      <trkpt lat="45.30861" lon="5.8909">
        <ele>894.44702148438</ele>
        <time>2017-10-21T06:39:58Z</time>
      </trkpt>
      <trkpt lat="45.30862" lon="5.89084">
        <ele>897.44702148438</ele>
        <time>2017-10-21T06:40:03Z</time>
      </trkpt>
      <trkpt lat="45.30865" lon="5.89077">
        <ele>899.44702148438</ele>
        <time>2017-10-21T06:40:08Z</time>
      </trkpt>
      <trkpt lat="45.30866" lon="5.8907">
        <ele>900.44702148438</ele>
        <time>2017-10-21T06:40:12Z</time>
      </trkpt>
      <trkpt lat="45.30867" lon="5.89064">
        <ele>902.44702148438</ele>
        <time>2017-10-21T06:40:16Z</time>
      </trkpt>
      <trkpt lat="45.30866" lon="5.89056">
        <ele>903.44702148438</ele>
        <time>2017-10-21T06:40:20Z</time>
      </trkpt>
      <trkpt lat="45.30867" lon="5.89049">
        <ele>904.44702148438</ele>
        <time>2017-10-21T06:40:24Z</time>
      </trkpt>
      <trkpt lat="45.30869" lon="5.89041">
        <ele>902.44702148438</ele>
        <time>2017-10-21T06:40:28Z</time>
      </trkpt>
      <trkpt lat="45.30869" lon="5.89034">
        <ele>904.44702148438</ele>
        <time>2017-10-21T06:40:32Z</time>
      </trkpt>
      <trkpt lat="45.3087" lon="5.89027">
        <ele>904.44702148438</ele>
        <time>2017-10-21T06:40:36Z</time>
      </trkpt>
      <trkpt lat="45.30868" lon="5.8902">
        <ele>906.44702148438</ele>
        <time>2017-10-21T06:40:40Z</time>
      </trkpt>
      <trkpt lat="45.30867" lon="5.89013">
        <ele>907.44702148438</ele>
        <time>2017-10-21T06:40:44Z</time>
      </trkpt>
      <trkpt lat="45.30866" lon="5.89007">
        <ele>906.44702148438</ele>
        <time>2017-10-21T06:40:47Z</time>
      </trkpt>
      <trkpt lat="45.30866" lon="5.89">
        <ele>908.44702148438</ele>
        <time>2017-10-21T06:40:51Z</time>
      </trkpt>
      <trkpt lat="45.30867" lon="5.88992">
        <ele>907.44702148438</ele>
        <time>2017-10-21T06:40:55Z</time>
      </trkpt>
      <trkpt lat="45.30866" lon="5.88986">
        <ele>908.44702148438</ele>
        <time>2017-10-21T06:40:58Z</time>
      </trkpt>
      <trkpt lat="45.30865" lon="5.88978">
        <ele>909.44702148438</ele>
        <time>2017-10-21T06:41:02Z</time>
      </trkpt>
      <trkpt lat="45.30865" lon="5.88971">
        <ele>910.44702148438</ele>
        <time>2017-10-21T06:41:06Z</time>
      </trkpt>
      <trkpt lat="45.30864" lon="5.88964">
        <ele>912.44702148438</ele>
        <time>2017-10-21T06:41:10Z</time>
      </trkpt>
      <trkpt lat="45.30862" lon="5.88957">
        <ele>912.44702148438</ele>
        <time>2017-10-21T06:41:14Z</time>
      </trkpt>
      <trkpt lat="45.3086" lon="5.88951">
        <ele>913.44702148438</ele>
        <time>2017-10-21T06:41:18Z</time>
      </trkpt>
      <trkpt lat="45.30861" lon="5.88943">
        <ele>911.44702148438</ele>
        <time>2017-10-21T06:41:23Z</time>
      </trkpt>
      <trkpt lat="45.3086" lon="5.88936">
        <ele>913.44702148438</ele>
        <time>2017-10-21T06:41:27Z</time>
      </trkpt>
      <trkpt lat="45.30861" lon="5.88929">
        <ele>916.44702148438</ele>
        <time>2017-10-21T06:41:32Z</time>
      </trkpt>
      <trkpt lat="45.3086" lon="5.88923">
        <ele>917.44702148438</ele>
        <time>2017-10-21T06:41:36Z</time>
      </trkpt>
      <trkpt lat="45.30858" lon="5.88915">
        <ele>918.44702148438</ele>
        <time>2017-10-21T06:41:42Z</time>
      </trkpt>
      <trkpt lat="45.30856" lon="5.88907">
        <ele>919.44702148438</ele>
        <time>2017-10-21T06:41:47Z</time>
      </trkpt>
      <trkpt lat="45.30854" lon="5.88901">
        <ele>920.44702148438</ele>
        <time>2017-10-21T06:41:51Z</time>
      </trkpt>
      <trkpt lat="45.30855" lon="5.88894">
        <ele>923.44702148438</ele>
        <time>2017-10-21T06:41:55Z</time>
      </trkpt>
      <trkpt lat="45.30859" lon="5.8889">
        <ele>928.44702148438</ele>
        <time>2017-10-21T06:42:03Z</time>
      </trkpt>
      <trkpt lat="45.30864" lon="5.88888">
        <ele>928.44702148438</ele>
        <time>2017-10-21T06:42:07Z</time>
      </trkpt>
      <trkpt lat="45.30867" lon="5.88883">
        <ele>927.44702148438</ele>
        <time>2017-10-21T06:42:11Z</time>
      </trkpt>
      <trkpt lat="45.30865" lon="5.88876">
        <ele>929.44702148438</ele>
        <time>2017-10-21T06:42:15Z</time>
      </trkpt>
      <trkpt lat="45.30864" lon="5.88869">
        <ele>930.44702148438</ele>
        <time>2017-10-21T06:42:19Z</time>
      </trkpt>
      <trkpt lat="45.30866" lon="5.88861">
        <ele>928.44702148438</ele>
        <time>2017-10-21T06:42:24Z</time>
      </trkpt>
      <trkpt lat="45.30864" lon="5.88853">
        <ele>929.44702148438</ele>
        <time>2017-10-21T06:42:28Z</time>
      </trkpt>
      <trkpt lat="45.30862" lon="5.88846">
        <ele>930.44702148438</ele>
        <time>2017-10-21T06:42:30Z</time>
      </trkpt>
      <trkpt lat="45.30865" lon="5.8884">
        <ele>935.44702148438</ele>
        <time>2017-10-21T06:42:36Z</time>
      </trkpt>
      <trkpt lat="45.30865" lon="5.88833">
        <ele>936.44702148438</ele>
        <time>2017-10-21T06:42:40Z</time>
      </trkpt>
      <trkpt lat="45.30863" lon="5.88827">
        <ele>938.44702148438</ele>
        <time>2017-10-21T06:42:44Z</time>
      </trkpt>
      <trkpt lat="45.30861" lon="5.8882">
        <ele>940.44702148438</ele>
        <time>2017-10-21T06:42:48Z</time>
      </trkpt>
      <trkpt lat="45.30859" lon="5.88814">
        <ele>940.44702148438</ele>
        <time>2017-10-21T06:42:52Z</time>
      </trkpt>
      <trkpt lat="45.30861" lon="5.88807">
        <ele>938.44702148438</ele>
        <time>2017-10-21T06:42:57Z</time>
      </trkpt>
      <trkpt lat="45.3086" lon="5.88799">
        <ele>940.44702148438</ele>
        <time>2017-10-21T06:43:01Z</time>
      </trkpt>
      <trkpt lat="45.30858" lon="5.88792">
        <ele>940.44702148438</ele>
        <time>2017-10-21T06:43:04Z</time>
      </trkpt>
      <trkpt lat="45.30857" lon="5.88784">
        <ele>941.44702148438</ele>
        <time>2017-10-21T06:43:09Z</time>
      </trkpt>
      <trkpt lat="45.30857" lon="5.88775">
        <ele>945.44702148438</ele>
        <time>2017-10-21T06:43:14Z</time>
      </trkpt>
      <trkpt lat="45.30858" lon="5.88769">
        <ele>944.44702148438</ele>
        <time>2017-10-21T06:43:18Z</time>
      </trkpt>
      <trkpt lat="45.30858" lon="5.88762">
        <ele>945.44702148438</ele>
        <time>2017-10-21T06:43:22Z</time>
      </trkpt>
      <trkpt lat="45.30858" lon="5.88756">
        <ele>949.44702148438</ele>
        <time>2017-10-21T06:43:26Z</time>
      </trkpt>
      <trkpt lat="45.30853" lon="5.88751">
        <ele>950.44702148438</ele>
        <time>2017-10-21T06:43:31Z</time>
      </trkpt>
      <trkpt lat="45.3085" lon="5.88746">
        <ele>950.44702148438</ele>
        <time>2017-10-21T06:43:40Z</time>
      </trkpt>
      <trkpt lat="45.30846" lon="5.88741">
        <ele>950.44702148438</ele>
        <time>2017-10-21T06:43:45Z</time>
      </trkpt>
      <trkpt lat="45.30843" lon="5.88737">
        <ele>952.44702148438</ele>
        <time>2017-10-21T06:43:55Z</time>
      </trkpt>
      <trkpt lat="45.30847" lon="5.8874">
        <ele>948.44702148438</ele>
        <time>2017-10-21T06:44:06Z</time>
      </trkpt>
      <trkpt lat="45.30853" lon="5.88742">
        <ele>947.44702148438</ele>
        <time>2017-10-21T06:44:10Z</time>
      </trkpt>
      <trkpt lat="45.30858" lon="5.88741">
        <ele>946.44702148438</ele>
        <time>2017-10-21T06:44:16Z</time>
      </trkpt>
      <trkpt lat="45.30862" lon="5.88737">
        <ele>949.44702148438</ele>
        <time>2017-10-21T06:44:22Z</time>
      </trkpt>
      <trkpt lat="45.30867" lon="5.88738">
        <ele>948.44702148438</ele>
        <time>2017-10-21T06:44:25Z</time>
      </trkpt>
      <trkpt lat="45.30873" lon="5.88738">
        <ele>950.44702148438</ele>
        <time>2017-10-21T06:44:29Z</time>
      </trkpt>
      <trkpt lat="45.30878" lon="5.88743">
        <ele>950.44702148438</ele>
        <time>2017-10-21T06:44:35Z</time>
      </trkpt>
      <trkpt lat="45.30883" lon="5.88747">
        <ele>951.44702148438</ele>
        <time>2017-10-21T06:44:39Z</time>
      </trkpt>
      <trkpt lat="45.30888" lon="5.88751">
        <ele>952.44702148438</ele>
        <time>2017-10-21T06:44:43Z</time>
      </trkpt>
      <trkpt lat="45.30893" lon="5.88754">
        <ele>953.44702148438</ele>
        <time>2017-10-21T06:44:46Z</time>
      </trkpt>
      <trkpt lat="45.30898" lon="5.88759">
        <ele>954.44702148438</ele>
        <time>2017-10-21T06:44:50Z</time>
      </trkpt>
      <trkpt lat="45.30901" lon="5.88764">
        <ele>955.44702148438</ele>
        <time>2017-10-21T06:44:54Z</time>
      </trkpt>
      <trkpt lat="45.30904" lon="5.88769">
        <ele>955.44702148438</ele>
        <time>2017-10-21T06:44:58Z</time>
      </trkpt>
      <trkpt lat="45.3091" lon="5.88771">
        <ele>956.44702148438</ele>
        <time>2017-10-21T06:45:02Z</time>
      </trkpt>
      <trkpt lat="45.30914" lon="5.88774">
        <ele>957.44702148438</ele>
        <time>2017-10-21T06:45:07Z</time>
      </trkpt>
      <trkpt lat="45.3092" lon="5.88775">
        <ele>959.44702148438</ele>
        <time>2017-10-21T06:45:12Z</time>
      </trkpt>
      <trkpt lat="45.30926" lon="5.88775">
        <ele>961.44702148438</ele>
        <time>2017-10-21T06:45:19Z</time>
      </trkpt>
      <trkpt lat="45.3093" lon="5.88773">
        <ele>961.44702148438</ele>
        <time>2017-10-21T06:45:22Z</time>
      </trkpt>
      <trkpt lat="45.30935" lon="5.88772">
        <ele>963.44702148438</ele>
        <time>2017-10-21T06:45:24Z</time>
      </trkpt>
      <trkpt lat="45.3094" lon="5.8877">
        <ele>965.44702148438</ele>
        <time>2017-10-21T06:45:28Z</time>
      </trkpt>
      <trkpt lat="45.30945" lon="5.88769">
        <ele>963.44702148438</ele>
        <time>2017-10-21T06:45:31Z</time>
      </trkpt>
      <trkpt lat="45.3095" lon="5.88769">
        <ele>962.44702148438</ele>
        <time>2017-10-21T06:45:35Z</time>
      </trkpt>
      <trkpt lat="45.30956" lon="5.88766">
        <ele>962.44702148438</ele>
        <time>2017-10-21T06:45:41Z</time>
      </trkpt>
      <trkpt lat="45.3096" lon="5.88763">
        <ele>965.44702148438</ele>
        <time>2017-10-21T06:45:45Z</time>
      </trkpt>
      <trkpt lat="45.30965" lon="5.88761">
        <ele>966.44702148438</ele>
        <time>2017-10-21T06:45:48Z</time>
      </trkpt>
      <trkpt lat="45.30968" lon="5.88757">
        <ele>968.44702148438</ele>
        <time>2017-10-21T06:45:51Z</time>
      </trkpt>
      <trkpt lat="45.30973" lon="5.88753">
        <ele>699.44702148438</ele>
        <time>2017-10-21T06:45:55Z</time>
      </trkpt>
      <trkpt lat="45.30974" lon="5.88746">
        <ele>880.44702148438</ele>
        <time>2017-10-21T06:46:00Z</time>
      </trkpt>
      <trkpt lat="45.30972" lon="5.88739">
        <ele>915.44702148438</ele>
        <time>2017-10-21T06:46:04Z</time>
      </trkpt>
      <trkpt lat="45.30974" lon="5.88732">
        <ele>940.44702148438</ele>
        <time>2017-10-21T06:46:08Z</time>
      </trkpt>
      <trkpt lat="45.3098" lon="5.88727">
        <ele>946.44702148438</ele>
        <time>2017-10-21T06:46:10Z</time>
      </trkpt>
      <trkpt lat="45.30985" lon="5.88726">
        <ele>957.44702148438</ele>
        <time>2017-10-21T06:46:12Z</time>
      </trkpt>
      <trkpt lat="45.30991" lon="5.88726">
        <ele>966.44702148438</ele>
        <time>2017-10-21T06:46:14Z</time>
      </trkpt>
      <trkpt lat="45.30997" lon="5.88728">
        <ele>966.44702148438</ele>
        <time>2017-10-21T06:46:16Z</time>
      </trkpt>
      <trkpt lat="45.31003" lon="5.88732">
        <ele>966.44702148438</ele>
        <time>2017-10-21T06:46:18Z</time>
      </trkpt>
      <trkpt lat="45.31009" lon="5.88734">
        <ele>965.44702148438</ele>
        <time>2017-10-21T06:46:20Z</time>
      </trkpt>
      <trkpt lat="45.31014" lon="5.88735">
        <ele>965.44702148438</ele>
        <time>2017-10-21T06:46:22Z</time>
      </trkpt>
      <trkpt lat="45.31021" lon="5.88734">
        <ele>966.44702148438</ele>
        <time>2017-10-21T06:46:24Z</time>
      </trkpt>
      <trkpt lat="45.31027" lon="5.88734">
        <ele>966.44702148438</ele>
        <time>2017-10-21T06:46:26Z</time>
      </trkpt>
      <trkpt lat="45.31032" lon="5.88734">
        <ele>966.44702148438</ele>
        <time>2017-10-21T06:46:28Z</time>
      </trkpt>
      <trkpt lat="45.31038" lon="5.88734">
        <ele>967.44702148438</ele>
        <time>2017-10-21T06:46:30Z</time>
      </trkpt>
      <trkpt lat="45.31043" lon="5.88735">
        <ele>966.44702148438</ele>
        <time>2017-10-21T06:46:32Z</time>
      </trkpt>
      <trkpt lat="45.31049" lon="5.88737">
        <ele>966.44702148438</ele>
        <time>2017-10-21T06:46:34Z</time>
      </trkpt>
      <trkpt lat="45.31054" lon="5.88737">
        <ele>965.44702148438</ele>
        <time>2017-10-21T06:46:36Z</time>
      </trkpt>
      <trkpt lat="45.31061" lon="5.88736">
        <ele>965.44702148438</ele>
        <time>2017-10-21T06:46:38Z</time>
      </trkpt>
      <trkpt lat="45.31066" lon="5.88736">
        <ele>963.44702148438</ele>
        <time>2017-10-21T06:46:40Z</time>
      </trkpt>
      <trkpt lat="45.3107" lon="5.88739">
        <ele>956.44702148438</ele>
        <time>2017-10-21T06:46:43Z</time>
      </trkpt>
      <trkpt lat="45.31075" lon="5.8874">
        <ele>955.44702148438</ele>
        <time>2017-10-21T06:46:45Z</time>
      </trkpt>
      <trkpt lat="45.31081" lon="5.88739">
        <ele>954.44702148438</ele>
        <time>2017-10-21T06:46:48Z</time>
      </trkpt>
      <trkpt lat="45.31086" lon="5.88739">
        <ele>954.44702148438</ele>
        <time>2017-10-21T06:46:50Z</time>
      </trkpt>
      <trkpt lat="45.31091" lon="5.88741">
        <ele>954.44702148438</ele>
        <time>2017-10-21T06:46:52Z</time>
      </trkpt>
      <trkpt lat="45.31097" lon="5.88742">
        <ele>956.44702148438</ele>
        <time>2017-10-21T06:46:54Z</time>
      </trkpt>
      <trkpt lat="45.31103" lon="5.88742">
        <ele>957.44702148438</ele>
        <time>2017-10-21T06:46:56Z</time>
      </trkpt>
      <trkpt lat="45.31109" lon="5.88743">
        <ele>957.44702148438</ele>
        <time>2017-10-21T06:46:58Z</time>
      </trkpt>
      <trkpt lat="45.31114" lon="5.88746">
        <ele>962.44702148438</ele>
        <time>2017-10-21T06:47:00Z</time>
      </trkpt>
      <trkpt lat="45.31122" lon="5.88745">
        <ele>961.44702148438</ele>
        <time>2017-10-21T06:47:02Z</time>
      </trkpt>
      <trkpt lat="45.31127" lon="5.88744">
        <ele>958.44702148438</ele>
        <time>2017-10-21T06:47:04Z</time>
      </trkpt>
      <trkpt lat="45.31134" lon="5.88744">
        <ele>958.44702148438</ele>
        <time>2017-10-21T06:47:06Z</time>
      </trkpt>
      <trkpt lat="45.31146" lon="5.88744">
        <ele>956.44702148438</ele>
        <time>2017-10-21T06:47:10Z</time>
      </trkpt>
      <trkpt lat="45.31153" lon="5.88745">
        <ele>957.44702148438</ele>
        <time>2017-10-21T06:47:12Z</time>
      </trkpt>
      <trkpt lat="45.31159" lon="5.88745">
        <ele>956.44702148438</ele>
        <time>2017-10-21T06:47:14Z</time>
      </trkpt>
      <trkpt lat="45.31165" lon="5.88746">
        <ele>955.44702148438</ele>
        <time>2017-10-21T06:47:16Z</time>
      </trkpt>
      <trkpt lat="45.31174" lon="5.88746">
        <ele>956.44702148438</ele>
        <time>2017-10-21T06:47:18Z</time>
      </trkpt>
      <trkpt lat="45.31185" lon="5.88746">
        <ele>955.44702148438</ele>
        <time>2017-10-21T06:47:22Z</time>
      </trkpt>
      <trkpt lat="45.3119" lon="5.88747">
        <ele>954.44702148438</ele>
        <time>2017-10-21T06:47:24Z</time>
      </trkpt>
      <trkpt lat="45.31196" lon="5.88746">
        <ele>955.44702148438</ele>
        <time>2017-10-21T06:47:26Z</time>
      </trkpt>
      <trkpt lat="45.31201" lon="5.88742">
        <ele>955.44702148438</ele>
        <time>2017-10-21T06:47:29Z</time>
      </trkpt>
      <trkpt lat="45.31207" lon="5.88741">
        <ele>954.44702148438</ele>
        <time>2017-10-21T06:47:31Z</time>
      </trkpt>
      <trkpt lat="45.31213" lon="5.88741">
        <ele>954.44702148438</ele>
        <time>2017-10-21T06:47:33Z</time>
      </trkpt>
      <trkpt lat="45.31219" lon="5.88741">
        <ele>955.44702148438</ele>
        <time>2017-10-21T06:47:35Z</time>
      </trkpt>
      <trkpt lat="45.31225" lon="5.88741">
        <ele>955.44702148438</ele>
        <time>2017-10-21T06:47:37Z</time>
      </trkpt>
      <trkpt lat="45.3123" lon="5.8874">
        <ele>956.44702148438</ele>
        <time>2017-10-21T06:47:38Z</time>
      </trkpt>
      <trkpt lat="45.31235" lon="5.88739">
        <ele>954.44702148438</ele>
        <time>2017-10-21T06:47:41Z</time>
      </trkpt>
      <trkpt lat="45.31241" lon="5.88735">
        <ele>954.44702148438</ele>
        <time>2017-10-21T06:47:43Z</time>
      </trkpt>
      <trkpt lat="45.31248" lon="5.8873">
        <ele>953.44702148438</ele>
        <time>2017-10-21T06:47:45Z</time>
      </trkpt>
      <trkpt lat="45.31253" lon="5.88722">
        <ele>954.44702148438</ele>
        <time>2017-10-21T06:47:47Z</time>
      </trkpt>
      <trkpt lat="45.31258" lon="5.88718">
        <ele>953.44702148438</ele>
        <time>2017-10-21T06:47:49Z</time>
      </trkpt>
      <trkpt lat="45.31264" lon="5.88716">
        <ele>952.44702148438</ele>
        <time>2017-10-21T06:47:50Z</time>
      </trkpt>
      <trkpt lat="45.31265" lon="5.88709">
        <ele>951.44702148438</ele>
        <time>2017-10-21T06:47:53Z</time>
      </trkpt>
      <trkpt lat="45.31268" lon="5.88702">
        <ele>953.44702148438</ele>
        <time>2017-10-21T06:47:55Z</time>
      </trkpt>
      <trkpt lat="45.31267" lon="5.88695">
        <ele>957.44702148438</ele>
        <time>2017-10-21T06:47:58Z</time>
      </trkpt>
      <trkpt lat="45.31268" lon="5.88688">
        <ele>958.44702148438</ele>
        <time>2017-10-21T06:48:02Z</time>
      </trkpt>
      <trkpt lat="45.31269" lon="5.88681">
        <ele>960.44702148438</ele>
        <time>2017-10-21T06:48:06Z</time>
      </trkpt>
      <trkpt lat="45.31272" lon="5.88676">
        <ele>958.44702148438</ele>
        <time>2017-10-21T06:48:09Z</time>
      </trkpt>
      <trkpt lat="45.31275" lon="5.88668">
        <ele>957.44702148438</ele>
        <time>2017-10-21T06:48:12Z</time>
      </trkpt>
      <trkpt lat="45.31279" lon="5.88663">
        <ele>957.44702148438</ele>
        <time>2017-10-21T06:48:14Z</time>
      </trkpt>
      <trkpt lat="45.31281" lon="5.88655">
        <ele>958.44702148438</ele>
        <time>2017-10-21T06:48:17Z</time>
      </trkpt>
      <trkpt lat="45.31284" lon="5.88647">
        <ele>958.44702148438</ele>
        <time>2017-10-21T06:48:20Z</time>
      </trkpt>
      <trkpt lat="45.31288" lon="5.88642">
        <ele>956.44702148438</ele>
        <time>2017-10-21T06:48:23Z</time>
      </trkpt>
      <trkpt lat="45.31291" lon="5.88636">
        <ele>954.44702148438</ele>
        <time>2017-10-21T06:48:26Z</time>
      </trkpt>
      <trkpt lat="45.31294" lon="5.88629">
        <ele>952.44702148438</ele>
        <time>2017-10-21T06:48:30Z</time>
      </trkpt>
      <trkpt lat="45.31298" lon="5.88625">
        <ele>952.44702148438</ele>
        <time>2017-10-21T06:48:33Z</time>
      </trkpt>
      <trkpt lat="45.313" lon="5.88616">
        <ele>950.44702148438</ele>
        <time>2017-10-21T06:48:37Z</time>
      </trkpt>
      <trkpt lat="45.313" lon="5.88608">
        <ele>952.44702148438</ele>
        <time>2017-10-21T06:48:39Z</time>
      </trkpt>
      <trkpt lat="45.313" lon="5.88601">
        <ele>951.44702148438</ele>
        <time>2017-10-21T06:48:42Z</time>
      </trkpt>
      <trkpt lat="45.31304" lon="5.88595">
        <ele>953.44702148438</ele>
        <time>2017-10-21T06:48:45Z</time>
      </trkpt>
      <trkpt lat="45.31309" lon="5.8859">
        <ele>952.44702148438</ele>
        <time>2017-10-21T06:48:49Z</time>
      </trkpt>
      <trkpt lat="45.31313" lon="5.88588">
        <ele>954.44702148438</ele>
        <time>2017-10-21T06:48:52Z</time>
      </trkpt>
      <trkpt lat="45.31318" lon="5.88588">
        <ele>956.44702148438</ele>
        <time>2017-10-21T06:48:55Z</time>
      </trkpt>
      <trkpt lat="45.31324" lon="5.8859">
        <ele>957.44702148438</ele>
        <time>2017-10-21T06:48:58Z</time>
      </trkpt>
      <trkpt lat="45.3133" lon="5.88593">
        <ele>958.44702148438</ele>
        <time>2017-10-21T06:49:00Z</time>
      </trkpt>
      <trkpt lat="45.31335" lon="5.88597">
        <ele>961.44702148438</ele>
        <time>2017-10-21T06:49:02Z</time>
      </trkpt>
      <trkpt lat="45.3134" lon="5.886">
        <ele>960.44702148438</ele>
        <time>2017-10-21T06:49:04Z</time>
      </trkpt>
      <trkpt lat="45.31347" lon="5.88601">
        <ele>958.44702148438</ele>
        <time>2017-10-21T06:49:07Z</time>
      </trkpt>
      <trkpt lat="45.31353" lon="5.88601">
        <ele>959.44702148438</ele>
        <time>2017-10-21T06:49:09Z</time>
      </trkpt>
      <trkpt lat="45.31359" lon="5.88601">
        <ele>960.44702148438</ele>
        <time>2017-10-21T06:49:11Z</time>
      </trkpt>
      <trkpt lat="45.31364" lon="5.88601">
        <ele>963.44702148438</ele>
        <time>2017-10-21T06:49:13Z</time>
      </trkpt>
      <trkpt lat="45.3137" lon="5.88602">
        <ele>965.44702148438</ele>
        <time>2017-10-21T06:49:15Z</time>
      </trkpt>
      <trkpt lat="45.31376" lon="5.88603">
        <ele>966.44702148438</ele>
        <time>2017-10-21T06:49:17Z</time>
      </trkpt>
      <trkpt lat="45.31382" lon="5.88604">
        <ele>966.44702148438</ele>
        <time>2017-10-21T06:49:19Z</time>
      </trkpt>
      <trkpt lat="45.31387" lon="5.88604">
        <ele>966.44702148438</ele>
        <time>2017-10-21T06:49:21Z</time>
      </trkpt>
      <trkpt lat="45.31392" lon="5.88606">
        <ele>965.44702148438</ele>
        <time>2017-10-21T06:49:23Z</time>
      </trkpt>
      <trkpt lat="45.314" lon="5.88607">
        <ele>964.44799804688</ele>
        <time>2017-10-21T06:49:25Z</time>
      </trkpt>
      <trkpt lat="45.31405" lon="5.88609">
        <ele>963.44799804688</ele>
        <time>2017-10-21T06:49:27Z</time>
      </trkpt>
      <trkpt lat="45.3141" lon="5.88611">
        <ele>962.44799804688</ele>
        <time>2017-10-21T06:49:29Z</time>
      </trkpt>
      <trkpt lat="45.31416" lon="5.88613">
        <ele>961.44799804688</ele>
        <time>2017-10-21T06:49:31Z</time>
      </trkpt>
      <trkpt lat="45.31421" lon="5.88615">
        <ele>961.44799804688</ele>
        <time>2017-10-21T06:49:33Z</time>
      </trkpt>
      <trkpt lat="45.31428" lon="5.88617">
        <ele>961.44799804688</ele>
        <time>2017-10-21T06:49:35Z</time>
      </trkpt>
      <trkpt lat="45.31434" lon="5.88621">
        <ele>961.44799804688</ele>
        <time>2017-10-21T06:49:37Z</time>
      </trkpt>
      <trkpt lat="45.31439" lon="5.88625">
        <ele>960.44799804688</ele>
        <time>2017-10-21T06:49:39Z</time>
      </trkpt>
      <trkpt lat="45.31448" lon="5.8863">
        <ele>961.44799804688</ele>
        <time>2017-10-21T06:49:42Z</time>
      </trkpt>
      <trkpt lat="45.31452" lon="5.88638">
        <ele>960.44799804688</ele>
        <time>2017-10-21T06:49:45Z</time>
      </trkpt>
      <trkpt lat="45.31457" lon="5.88641">
        <ele>960.44799804688</ele>
        <time>2017-10-21T06:49:47Z</time>
      </trkpt>
      <trkpt lat="45.31463" lon="5.88643">
        <ele>959.44799804688</ele>
        <time>2017-10-21T06:49:49Z</time>
      </trkpt>
      <trkpt lat="45.31468" lon="5.88646">
        <ele>959.44799804688</ele>
        <time>2017-10-21T06:49:52Z</time>
      </trkpt>
      <trkpt lat="45.31475" lon="5.88648">
        <ele>960.44799804688</ele>
        <time>2017-10-21T06:49:54Z</time>
      </trkpt>
      <trkpt lat="45.3148" lon="5.8865">
        <ele>960.44799804688</ele>
        <time>2017-10-21T06:49:56Z</time>
      </trkpt>
      <trkpt lat="45.31485" lon="5.88651">
        <ele>960.44799804688</ele>
        <time>2017-10-21T06:49:58Z</time>
      </trkpt>
      <trkpt lat="45.31491" lon="5.88652">
        <ele>960.44799804688</ele>
        <time>2017-10-21T06:50:00Z</time>
      </trkpt>
      <trkpt lat="45.31497" lon="5.88652">
        <ele>957.44799804688</ele>
        <time>2017-10-21T06:50:02Z</time>
      </trkpt>
      <trkpt lat="45.31502" lon="5.88653">
        <ele>956.44799804688</ele>
        <time>2017-10-21T06:50:04Z</time>
      </trkpt>
      <trkpt lat="45.31507" lon="5.88655">
        <ele>957.44799804688</ele>
        <time>2017-10-21T06:50:06Z</time>
      </trkpt>
      <trkpt lat="45.31512" lon="5.88655">
        <ele>956.44799804688</ele>
        <time>2017-10-21T06:50:08Z</time>
      </trkpt>
      <trkpt lat="45.31518" lon="5.88657">
        <ele>956.44799804688</ele>
        <time>2017-10-21T06:50:10Z</time>
      </trkpt>
      <trkpt lat="45.31524" lon="5.88658">
        <ele>957.44799804688</ele>
        <time>2017-10-21T06:50:12Z</time>
      </trkpt>
      <trkpt lat="45.31529" lon="5.88661">
        <ele>956.44799804688</ele>
        <time>2017-10-21T06:50:14Z</time>
      </trkpt>
      <trkpt lat="45.31536" lon="5.88662">
        <ele>957.44799804688</ele>
        <time>2017-10-21T06:50:16Z</time>
      </trkpt>
      <trkpt lat="45.31541" lon="5.88661">
        <ele>957.44799804688</ele>
        <time>2017-10-21T06:50:18Z</time>
      </trkpt>
      <trkpt lat="45.31545" lon="5.88659">
        <ele>959.44799804688</ele>
        <time>2017-10-21T06:50:20Z</time>
      </trkpt>
      <trkpt lat="45.31552" lon="5.88658">
        <ele>961.44799804688</ele>
        <time>2017-10-21T06:50:23Z</time>
      </trkpt>
      <trkpt lat="45.31559" lon="5.88657">
        <ele>961.44799804688</ele>
        <time>2017-10-21T06:50:26Z</time>
      </trkpt>
      <trkpt lat="45.31565" lon="5.88656">
        <ele>961.44799804688</ele>
        <time>2017-10-21T06:50:28Z</time>
      </trkpt>
      <trkpt lat="45.3157" lon="5.88656">
        <ele>962.44799804688</ele>
        <time>2017-10-21T06:50:30Z</time>
      </trkpt>
      <trkpt lat="45.31582" lon="5.88656">
        <ele>962.44799804688</ele>
        <time>2017-10-21T06:50:33Z</time>
      </trkpt>
      <trkpt lat="45.31591" lon="5.88657">
        <ele>963.44799804688</ele>
        <time>2017-10-21T06:50:35Z</time>
      </trkpt>
      <trkpt lat="45.31603" lon="5.88659">
        <ele>963.44799804688</ele>
        <time>2017-10-21T06:50:38Z</time>
      </trkpt>
      <trkpt lat="45.3161" lon="5.88662">
        <ele>963.44799804688</ele>
        <time>2017-10-21T06:50:40Z</time>
      </trkpt>
      <trkpt lat="45.31616" lon="5.88666">
        <ele>961.44799804688</ele>
        <time>2017-10-21T06:50:43Z</time>
      </trkpt>
      <trkpt lat="45.3162" lon="5.8867">
        <ele>961.44799804688</ele>
        <time>2017-10-21T06:50:45Z</time>
      </trkpt>
      <trkpt lat="45.31626" lon="5.88673">
        <ele>961.44799804688</ele>
        <time>2017-10-21T06:50:47Z</time>
      </trkpt>
      <trkpt lat="45.31631" lon="5.88674">
        <ele>961.44799804688</ele>
        <time>2017-10-21T06:50:49Z</time>
      </trkpt>
      <trkpt lat="45.31637" lon="5.88673">
        <ele>963.44799804688</ele>
        <time>2017-10-21T06:50:51Z</time>
      </trkpt>
      <trkpt lat="45.3164" lon="5.88666">
        <ele>966.44799804688</ele>
        <time>2017-10-21T06:50:57Z</time>
      </trkpt>
      <trkpt lat="45.31642" lon="5.8866">
        <ele>966.44799804688</ele>
        <time>2017-10-21T06:51:02Z</time>
      </trkpt>
      <trkpt lat="45.31645" lon="5.88654">
        <ele>967.44799804688</ele>
        <time>2017-10-21T06:51:06Z</time>
      </trkpt>
      <trkpt lat="45.31648" lon="5.88648">
        <ele>967.44799804688</ele>
        <time>2017-10-21T06:51:10Z</time>
      </trkpt>
      <trkpt lat="45.31654" lon="5.88645">
        <ele>969.44799804688</ele>
        <time>2017-10-21T06:51:14Z</time>
      </trkpt>
      <trkpt lat="45.31658" lon="5.8864">
        <ele>970.44799804688</ele>
        <time>2017-10-21T06:51:18Z</time>
      </trkpt>
      <trkpt lat="45.31662" lon="5.88633">
        <ele>969.44799804688</ele>
        <time>2017-10-21T06:51:23Z</time>
      </trkpt>
      <trkpt lat="45.31666" lon="5.88629">
        <ele>973.44799804688</ele>
        <time>2017-10-21T06:51:28Z</time>
      </trkpt>
      <trkpt lat="45.3167" lon="5.88624">
        <ele>973.44799804688</ele>
        <time>2017-10-21T06:51:32Z</time>
      </trkpt>
      <trkpt lat="45.31674" lon="5.88619">
        <ele>973.44799804688</ele>
        <time>2017-10-21T06:51:35Z</time>
      </trkpt>
      <trkpt lat="45.31678" lon="5.88613">
        <ele>973.44799804688</ele>
        <time>2017-10-21T06:51:38Z</time>
      </trkpt>
      <trkpt lat="45.31682" lon="5.88609">
        <ele>972.44799804688</ele>
        <time>2017-10-21T06:51:40Z</time>
      </trkpt>
      <trkpt lat="45.31687" lon="5.88604">
        <ele>969.44799804688</ele>
        <time>2017-10-21T06:51:44Z</time>
      </trkpt>
      <trkpt lat="45.31695" lon="5.88601">
        <ele>974.44799804688</ele>
        <time>2017-10-21T06:51:50Z</time>
      </trkpt>
      <trkpt lat="45.31699" lon="5.88598">
        <ele>974.44799804688</ele>
        <time>2017-10-21T06:51:56Z</time>
      </trkpt>
      <trkpt lat="45.31704" lon="5.88596">
        <ele>978.44799804688</ele>
        <time>2017-10-21T06:52:08Z</time>
      </trkpt>
      <trkpt lat="45.31708" lon="5.88593">
        <ele>980.44799804688</ele>
        <time>2017-10-21T06:52:14Z</time>
      </trkpt>
      <trkpt lat="45.31712" lon="5.88588">
        <ele>979.44799804688</ele>
        <time>2017-10-21T06:52:17Z</time>
      </trkpt>
      <trkpt lat="45.31716" lon="5.88585">
        <ele>977.44799804688</ele>
        <time>2017-10-21T06:52:19Z</time>
      </trkpt>
      <trkpt lat="45.3172" lon="5.8858">
        <ele>973.44799804688</ele>
        <time>2017-10-21T06:52:21Z</time>
      </trkpt>
      <trkpt lat="45.31726" lon="5.88579">
        <ele>972.44799804688</ele>
        <time>2017-10-21T06:52:25Z</time>
      </trkpt>
      <trkpt lat="45.31731" lon="5.88576">
        <ele>972.44799804688</ele>
        <time>2017-10-21T06:52:27Z</time>
      </trkpt>
      <trkpt lat="45.31736" lon="5.88574">
        <ele>975.44799804688</ele>
        <time>2017-10-21T06:52:31Z</time>
      </trkpt>
      <trkpt lat="45.31739" lon="5.88568">
        <ele>977.44799804688</ele>
        <time>2017-10-21T06:52:36Z</time>
      </trkpt>
      <trkpt lat="45.31742" lon="5.88561">
        <ele>978.44799804688</ele>
        <time>2017-10-21T06:52:41Z</time>
      </trkpt>
      <trkpt lat="45.31746" lon="5.88555">
        <ele>980.44799804688</ele>
        <time>2017-10-21T06:52:46Z</time>
      </trkpt>
      <trkpt lat="45.31749" lon="5.88549">
        <ele>985.44799804688</ele>
        <time>2017-10-21T06:52:51Z</time>
      </trkpt>
      <trkpt lat="45.3175" lon="5.88542">
        <ele>987.44799804688</ele>
        <time>2017-10-21T06:52:55Z</time>
      </trkpt>
      <trkpt lat="45.31748" lon="5.88536">
        <ele>987.44799804688</ele>
        <time>2017-10-21T06:52:57Z</time>
      </trkpt>
      <trkpt lat="45.31751" lon="5.88531">
        <ele>989.44799804688</ele>
        <time>2017-10-21T06:53:03Z</time>
      </trkpt>
      <trkpt lat="45.31756" lon="5.88528">
        <ele>993.44799804688</ele>
        <time>2017-10-21T06:53:14Z</time>
      </trkpt>
      <trkpt lat="45.3176" lon="5.88523">
        <ele>994.44799804688</ele>
        <time>2017-10-21T06:53:18Z</time>
      </trkpt>
      <trkpt lat="45.31766" lon="5.88519">
        <ele>997.44799804688</ele>
        <time>2017-10-21T06:53:24Z</time>
      </trkpt>
      <trkpt lat="45.31772" lon="5.88517">
        <ele>983.44799804688</ele>
        <time>2017-10-21T06:53:28Z</time>
      </trkpt>
      <trkpt lat="45.31775" lon="5.88513">
        <ele>991.44799804688</ele>
        <time>2017-10-21T06:53:32Z</time>
      </trkpt>
      <trkpt lat="45.31779" lon="5.88509">
        <ele>1000.4479980469</ele>
        <time>2017-10-21T06:53:42Z</time>
      </trkpt>
      <trkpt lat="45.31783" lon="5.88503">
        <ele>1002.4479980469</ele>
        <time>2017-10-21T06:53:45Z</time>
      </trkpt>
      <trkpt lat="45.31787" lon="5.88499">
        <ele>1005.4479980469</ele>
        <time>2017-10-21T06:53:48Z</time>
      </trkpt>
      <trkpt lat="45.31789" lon="5.88493">
        <ele>1007.4479980469</ele>
        <time>2017-10-21T06:53:51Z</time>
      </trkpt>
      <trkpt lat="45.31793" lon="5.88489">
        <ele>1008.4479980469</ele>
        <time>2017-10-21T06:53:55Z</time>
      </trkpt>
      <trkpt lat="45.31796" lon="5.88483">
        <ele>1010.4479980469</ele>
        <time>2017-10-21T06:53:58Z</time>
      </trkpt>
      <trkpt lat="45.31799" lon="5.88479">
        <ele>1011.4479980469</ele>
        <time>2017-10-21T06:54:01Z</time>
      </trkpt>
      <trkpt lat="45.31805" lon="5.88477">
        <ele>1008.4479980469</ele>
        <time>2017-10-21T06:54:04Z</time>
      </trkpt>
      <trkpt lat="45.31809" lon="5.88474">
        <ele>1008.4479980469</ele>
        <time>2017-10-21T06:54:08Z</time>
      </trkpt>
      <trkpt lat="45.31814" lon="5.88473">
        <ele>1009.4479980469</ele>
        <time>2017-10-21T06:54:12Z</time>
      </trkpt>
      <trkpt lat="45.31817" lon="5.88467">
        <ele>1010.4479980469</ele>
        <time>2017-10-21T06:54:21Z</time>
      </trkpt>
      <trkpt lat="45.31819" lon="5.88461">
        <ele>1007.4479980469</ele>
        <time>2017-10-21T06:54:24Z</time>
      </trkpt>
      <trkpt lat="45.31823" lon="5.88455">
        <ele>1007.4479980469</ele>
        <time>2017-10-21T06:54:28Z</time>
      </trkpt>
      <trkpt lat="45.31827" lon="5.88451">
        <ele>1004.4479980469</ele>
        <time>2017-10-21T06:54:32Z</time>
      </trkpt>
      <trkpt lat="45.3183" lon="5.88445">
        <ele>1004.4479980469</ele>
        <time>2017-10-21T06:54:36Z</time>
      </trkpt>
      <trkpt lat="45.31833" lon="5.8844">
        <ele>1006.4479980469</ele>
        <time>2017-10-21T06:54:39Z</time>
      </trkpt>
      <trkpt lat="45.31834" lon="5.88432">
        <ele>1009.4479980469</ele>
        <time>2017-10-21T06:54:43Z</time>
      </trkpt>
      <trkpt lat="45.31836" lon="5.88427">
        <ele>1011.4479980469</ele>
        <time>2017-10-21T06:54:47Z</time>
      </trkpt>
      <trkpt lat="45.31839" lon="5.8842">
        <ele>1014.4479980469</ele>
        <time>2017-10-21T06:54:51Z</time>
      </trkpt>
      <trkpt lat="45.31844" lon="5.88418">
        <ele>1020.4479980469</ele>
        <time>2017-10-21T06:54:59Z</time>
      </trkpt>
      <trkpt lat="45.3185" lon="5.88417">
        <ele>1022.4479980469</ele>
        <time>2017-10-21T06:55:08Z</time>
      </trkpt>
      <trkpt lat="45.31854" lon="5.88415">
        <ele>1028.4479980469</ele>
        <time>2017-10-21T06:55:12Z</time>
      </trkpt>
      <trkpt lat="45.31859" lon="5.88409">
        <ele>1030.4479980469</ele>
        <time>2017-10-21T06:55:30Z</time>
      </trkpt>
      <trkpt lat="45.31862" lon="5.88404">
        <ele>1028.4479980469</ele>
        <time>2017-10-21T06:55:34Z</time>
      </trkpt>
      <trkpt lat="45.31866" lon="5.88399">
        <ele>1026.4479980469</ele>
        <time>2017-10-21T06:55:38Z</time>
      </trkpt>
      <trkpt lat="45.31871" lon="5.88397">
        <ele>1027.4479980469</ele>
        <time>2017-10-21T06:55:42Z</time>
      </trkpt>
      <trkpt lat="45.31874" lon="5.8839">
        <ele>1027.4479980469</ele>
        <time>2017-10-21T06:55:45Z</time>
      </trkpt>
      <trkpt lat="45.31875" lon="5.88384">
        <ele>1030.4479980469</ele>
        <time>2017-10-21T06:55:50Z</time>
      </trkpt>
      <trkpt lat="45.31878" lon="5.88377">
        <ele>1034.4479980469</ele>
        <time>2017-10-21T06:55:54Z</time>
      </trkpt>
      <trkpt lat="45.31883" lon="5.88376">
        <ele>1035.4479980469</ele>
        <time>2017-10-21T06:56:03Z</time>
      </trkpt>
      <trkpt lat="45.31888" lon="5.8837">
        <ele>1035.4479980469</ele>
        <time>2017-10-21T06:56:17Z</time>
      </trkpt>
      <trkpt lat="45.31894" lon="5.88365">
        <ele>1037.4479980469</ele>
        <time>2017-10-21T06:56:21Z</time>
      </trkpt>
      <trkpt lat="45.31898" lon="5.88362">
        <ele>1037.4479980469</ele>
        <time>2017-10-21T06:56:23Z</time>
      </trkpt>
      <trkpt lat="45.31904" lon="5.88357">
        <ele>1039.4479980469</ele>
        <time>2017-10-21T06:56:26Z</time>
      </trkpt>
      <trkpt lat="45.31908" lon="5.88353">
        <ele>1038.4479980469</ele>
        <time>2017-10-21T06:56:32Z</time>
      </trkpt>
      <trkpt lat="45.31912" lon="5.88347">
        <ele>1038.4479980469</ele>
        <time>2017-10-21T06:56:36Z</time>
      </trkpt>
      <trkpt lat="45.31915" lon="5.88342">
        <ele>1039.4479980469</ele>
        <time>2017-10-21T06:56:40Z</time>
      </trkpt>
      <trkpt lat="45.31919" lon="5.88338">
        <ele>1041.4479980469</ele>
        <time>2017-10-21T06:56:44Z</time>
      </trkpt>
      <trkpt lat="45.31923" lon="5.88335">
        <ele>1043.4479980469</ele>
        <time>2017-10-21T06:56:48Z</time>
      </trkpt>
      <trkpt lat="45.31927" lon="5.8833">
        <ele>1042.4479980469</ele>
        <time>2017-10-21T06:56:52Z</time>
      </trkpt>
      <trkpt lat="45.31932" lon="5.88326">
        <ele>1043.4479980469</ele>
        <time>2017-10-21T06:56:55Z</time>
      </trkpt>
      <trkpt lat="45.31935" lon="5.88321">
        <ele>1044.4479980469</ele>
        <time>2017-10-21T06:56:59Z</time>
      </trkpt>
      <trkpt lat="45.31938" lon="5.88316">
        <ele>1046.4479980469</ele>
        <time>2017-10-21T06:57:02Z</time>
      </trkpt>
      <trkpt lat="45.31944" lon="5.88312">
        <ele>1050.4479980469</ele>
        <time>2017-10-21T06:57:07Z</time>
      </trkpt>
      <trkpt lat="45.31948" lon="5.88307">
        <ele>1057.4479980469</ele>
        <time>2017-10-21T06:57:15Z</time>
      </trkpt>
      <trkpt lat="45.31951" lon="5.88302">
        <ele>1063.4479980469</ele>
        <time>2017-10-21T06:57:26Z</time>
      </trkpt>
      <trkpt lat="45.31955" lon="5.88297">
        <ele>1068.4479980469</ele>
        <time>2017-10-21T06:57:30Z</time>
      </trkpt>
      <trkpt lat="45.31959" lon="5.88293">
        <ele>1066.4479980469</ele>
        <time>2017-10-21T06:57:34Z</time>
      </trkpt>
      <trkpt lat="45.31964" lon="5.88291">
        <ele>1068.4479980469</ele>
        <time>2017-10-21T06:57:38Z</time>
      </trkpt>
      <trkpt lat="45.31969" lon="5.8829">
        <ele>1070.4479980469</ele>
        <time>2017-10-21T06:57:40Z</time>
      </trkpt>
      <trkpt lat="45.31974" lon="5.88288">
        <ele>1069.4479980469</ele>
        <time>2017-10-21T06:57:46Z</time>
      </trkpt>
      <trkpt lat="45.31978" lon="5.8829">
        <ele>1071.4479980469</ele>
        <time>2017-10-21T06:57:54Z</time>
      </trkpt>
      <trkpt lat="45.31983" lon="5.8829">
        <ele>1070.4479980469</ele>
        <time>2017-10-21T06:57:57Z</time>
      </trkpt>
      <trkpt lat="45.31989" lon="5.88287">
        <ele>1064.4479980469</ele>
        <time>2017-10-21T06:58:01Z</time>
      </trkpt>
      <trkpt lat="45.31994" lon="5.88285">
        <ele>1063.4479980469</ele>
        <time>2017-10-21T06:58:04Z</time>
      </trkpt>
      <trkpt lat="45.31999" lon="5.88284">
        <ele>1064.4479980469</ele>
        <time>2017-10-21T06:58:08Z</time>
      </trkpt>
      <trkpt lat="45.32001" lon="5.88278">
        <ele>1062.4479980469</ele>
        <time>2017-10-21T06:58:11Z</time>
      </trkpt>
      <trkpt lat="45.32005" lon="5.88273">
        <ele>1065.4479980469</ele>
        <time>2017-10-21T06:58:16Z</time>
      </trkpt>
      <trkpt lat="45.32009" lon="5.8827">
        <ele>1061.4479980469</ele>
        <time>2017-10-21T06:58:22Z</time>
      </trkpt>
      <trkpt lat="45.32013" lon="5.88263">
        <ele>1060.4479980469</ele>
        <time>2017-10-21T06:58:25Z</time>
      </trkpt>
      <trkpt lat="45.32017" lon="5.88256">
        <ele>1060.4479980469</ele>
        <time>2017-10-21T06:58:28Z</time>
      </trkpt>
      <trkpt lat="45.32019" lon="5.88249">
        <ele>1062.4479980469</ele>
        <time>2017-10-21T06:58:32Z</time>
      </trkpt>
      <trkpt lat="45.32023" lon="5.88245">
        <ele>1062.4479980469</ele>
        <time>2017-10-21T06:58:35Z</time>
      </trkpt>
      <trkpt lat="45.32027" lon="5.88241">
        <ele>1062.4479980469</ele>
        <time>2017-10-21T06:58:39Z</time>
      </trkpt>
      <trkpt lat="45.32033" lon="5.88239">
        <ele>1064.4479980469</ele>
        <time>2017-10-21T06:58:43Z</time>
      </trkpt>
      <trkpt lat="45.32038" lon="5.88241">
        <ele>1067.4479980469</ele>
        <time>2017-10-21T06:58:50Z</time>
      </trkpt>
      <trkpt lat="45.32044" lon="5.88247">
        <ele>1067.4479980469</ele>
        <time>2017-10-21T06:58:57Z</time>
      </trkpt>
      <trkpt lat="45.32049" lon="5.88251">
        <ele>1067.4479980469</ele>
        <time>2017-10-21T06:59:01Z</time>
      </trkpt>
      <trkpt lat="45.32053" lon="5.88255">
        <ele>1070.4479980469</ele>
        <time>2017-10-21T06:59:06Z</time>
      </trkpt>
      <trkpt lat="45.32055" lon="5.88261">
        <ele>1072.4479980469</ele>
        <time>2017-10-21T06:59:11Z</time>
      </trkpt>
      <trkpt lat="45.3206" lon="5.88259">
        <ele>1075.4479980469</ele>
        <time>2017-10-21T06:59:24Z</time>
      </trkpt>
      <trkpt lat="45.32064" lon="5.88253">
        <ele>1077.4479980469</ele>
        <time>2017-10-21T06:59:33Z</time>
      </trkpt>
      <trkpt lat="45.32069" lon="5.8825">
        <ele>1075.4479980469</ele>
        <time>2017-10-21T06:59:36Z</time>
      </trkpt>
      <trkpt lat="45.32074" lon="5.88248">
        <ele>1075.4479980469</ele>
        <time>2017-10-21T06:59:38Z</time>
      </trkpt>
      <trkpt lat="45.32077" lon="5.88243">
        <ele>1073.4479980469</ele>
        <time>2017-10-21T06:59:42Z</time>
      </trkpt>
      <trkpt lat="45.32082" lon="5.88239">
        <ele>1078.4479980469</ele>
        <time>2017-10-21T06:59:48Z</time>
      </trkpt>
      <trkpt lat="45.32082" lon="5.88233">
        <ele>1079.4479980469</ele>
        <time>2017-10-21T06:59:52Z</time>
      </trkpt>
      <trkpt lat="45.32086" lon="5.88229">
        <ele>1082.4479980469</ele>
        <time>2017-10-21T06:59:57Z</time>
      </trkpt>
      <trkpt lat="45.32089" lon="5.88224">
        <ele>1086.4479980469</ele>
        <time>2017-10-21T07:00:03Z</time>
      </trkpt>
      <trkpt lat="45.32092" lon="5.88218">
        <ele>1093.4479980469</ele>
        <time>2017-10-21T07:00:09Z</time>
      </trkpt>
      <trkpt lat="45.32096" lon="5.88213">
        <ele>1091.4479980469</ele>
        <time>2017-10-21T07:00:13Z</time>
      </trkpt>
      <trkpt lat="45.321" lon="5.88209">
        <ele>1090.4479980469</ele>
        <time>2017-10-21T07:00:19Z</time>
      </trkpt>
      <trkpt lat="45.32101" lon="5.88201">
        <ele>1090.4479980469</ele>
        <time>2017-10-21T07:00:23Z</time>
      </trkpt>
      <trkpt lat="45.32105" lon="5.88198">
        <ele>1091.4479980469</ele>
        <time>2017-10-21T07:00:28Z</time>
      </trkpt>
      <trkpt lat="45.32106" lon="5.88192">
        <ele>1091.4479980469</ele>
        <time>2017-10-21T07:00:32Z</time>
      </trkpt>
      <trkpt lat="45.32109" lon="5.88187">
        <ele>1091.4479980469</ele>
        <time>2017-10-21T07:00:38Z</time>
      </trkpt>
      <trkpt lat="45.32114" lon="5.88182">
        <ele>1092.4479980469</ele>
        <time>2017-10-21T07:00:43Z</time>
      </trkpt>
      <trkpt lat="45.32113" lon="5.88175">
        <ele>1089.4479980469</ele>
        <time>2017-10-21T07:00:51Z</time>
      </trkpt>
      <trkpt lat="45.32114" lon="5.88168">
        <ele>1093.4479980469</ele>
        <time>2017-10-21T07:01:05Z</time>
      </trkpt>
      <trkpt lat="45.32119" lon="5.88166">
        <ele>1092.4479980469</ele>
        <time>2017-10-21T07:01:08Z</time>
      </trkpt>
      <trkpt lat="45.32122" lon="5.88161">
        <ele>1093.4479980469</ele>
        <time>2017-10-21T07:01:13Z</time>
      </trkpt>
      <trkpt lat="45.32126" lon="5.88156">
        <ele>1093.4479980469</ele>
        <time>2017-10-21T07:01:20Z</time>
      </trkpt>
      <trkpt lat="45.32127" lon="5.88148">
        <ele>1094.4479980469</ele>
        <time>2017-10-21T07:01:27Z</time>
      </trkpt>
      <trkpt lat="45.32131" lon="5.88147">
        <ele>1090.4479980469</ele>
        <time>2017-10-21T07:01:31Z</time>
      </trkpt>
      <trkpt lat="45.32133" lon="5.8814">
        <ele>1088.4479980469</ele>
        <time>2017-10-21T07:01:39Z</time>
      </trkpt>
      <trkpt lat="45.32135" lon="5.88132">
        <ele>1085.4479980469</ele>
        <time>2017-10-21T07:01:46Z</time>
      </trkpt>
      <trkpt lat="45.32138" lon="5.88128">
        <ele>1090.4479980469</ele>
        <time>2017-10-21T07:01:54Z</time>
      </trkpt>
      <trkpt lat="45.32143" lon="5.88126">
        <ele>1104.4479980469</ele>
        <time>2017-10-21T07:02:23Z</time>
      </trkpt>
      <trkpt lat="45.32147" lon="5.8813">
        <ele>1112.4479980469</ele>
        <time>2017-10-21T07:02:28Z</time>
      </trkpt>
      <trkpt lat="45.32152" lon="5.8813">
        <ele>1115.4479980469</ele>
        <time>2017-10-21T07:02:33Z</time>
      </trkpt>
      <trkpt lat="45.32158" lon="5.8813">
        <ele>1117.4479980469</ele>
        <time>2017-10-21T07:02:43Z</time>
      </trkpt>
      <trkpt lat="45.32163" lon="5.88132">
        <ele>1116.4479980469</ele>
        <time>2017-10-21T07:02:46Z</time>
      </trkpt>
      <trkpt lat="45.32167" lon="5.88134">
        <ele>1117.4479980469</ele>
        <time>2017-10-21T07:02:50Z</time>
      </trkpt>
      <trkpt lat="45.32171" lon="5.88131">
        <ele>1121.4479980469</ele>
        <time>2017-10-21T07:02:56Z</time>
      </trkpt>
      <trkpt lat="45.32175" lon="5.88128">
        <ele>1121.4479980469</ele>
        <time>2017-10-21T07:03:16Z</time>
      </trkpt>
      <trkpt lat="45.3218" lon="5.88128">
        <ele>1121.4479980469</ele>
        <time>2017-10-21T07:03:23Z</time>
      </trkpt>
      <trkpt lat="45.32187" lon="5.88126">
        <ele>1124.4479980469</ele>
        <time>2017-10-21T07:03:27Z</time>
      </trkpt>
      <trkpt lat="45.32192" lon="5.88127">
        <ele>1122.4479980469</ele>
        <time>2017-10-21T07:03:34Z</time>
      </trkpt>
      <trkpt lat="45.32196" lon="5.88122">
        <ele>1123.4479980469</ele>
        <time>2017-10-21T07:03:38Z</time>
      </trkpt>
      <trkpt lat="45.32201" lon="5.88122">
        <ele>1125.4479980469</ele>
        <time>2017-10-21T07:03:41Z</time>
      </trkpt>
      <trkpt lat="45.32206" lon="5.88118">
        <ele>1130.4489746094</ele>
        <time>2017-10-21T07:03:46Z</time>
      </trkpt>
      <trkpt lat="45.32211" lon="5.88117">
        <ele>1134.4489746094</ele>
        <time>2017-10-21T07:03:50Z</time>
      </trkpt>
      <trkpt lat="45.32215" lon="5.88114">
        <ele>1135.4489746094</ele>
        <time>2017-10-21T07:03:55Z</time>
      </trkpt>
      <trkpt lat="45.3222" lon="5.88114">
        <ele>1134.4489746094</ele>
        <time>2017-10-21T07:04:00Z</time>
      </trkpt>
      <trkpt lat="45.32225" lon="5.88116">
        <ele>1134.4489746094</ele>
        <time>2017-10-21T07:04:06Z</time>
      </trkpt>
      <trkpt lat="45.32229" lon="5.8812">
        <ele>1134.4489746094</ele>
        <time>2017-10-21T07:04:11Z</time>
      </trkpt>
      <trkpt lat="45.32234" lon="5.88121">
        <ele>1134.4489746094</ele>
        <time>2017-10-21T07:04:15Z</time>
      </trkpt>
      <trkpt lat="45.32239" lon="5.88124">
        <ele>1134.4489746094</ele>
        <time>2017-10-21T07:04:19Z</time>
      </trkpt>
      <trkpt lat="45.32245" lon="5.88125">
        <ele>1136.4489746094</ele>
        <time>2017-10-21T07:04:24Z</time>
      </trkpt>
      <trkpt lat="45.3225" lon="5.88129">
        <ele>1143.4489746094</ele>
        <time>2017-10-21T07:04:29Z</time>
      </trkpt>
      <trkpt lat="45.32254" lon="5.8813">
        <ele>1143.4489746094</ele>
        <time>2017-10-21T07:04:33Z</time>
      </trkpt>
      <trkpt lat="45.32259" lon="5.88132">
        <ele>1143.4489746094</ele>
        <time>2017-10-21T07:04:37Z</time>
      </trkpt>
      <trkpt lat="45.32262" lon="5.88137">
        <ele>1145.4489746094</ele>
        <time>2017-10-21T07:04:41Z</time>
      </trkpt>
      <trkpt lat="45.32266" lon="5.88142">
        <ele>1147.4489746094</ele>
        <time>2017-10-21T07:04:53Z</time>
      </trkpt>
      <trkpt lat="45.3227" lon="5.88145">
        <ele>1148.4489746094</ele>
        <time>2017-10-21T07:04:55Z</time>
      </trkpt>
      <trkpt lat="45.32274" lon="5.8815">
        <ele>1148.4489746094</ele>
        <time>2017-10-21T07:04:57Z</time>
      </trkpt>
      <trkpt lat="45.32278" lon="5.88154">
        <ele>1150.4489746094</ele>
        <time>2017-10-21T07:05:01Z</time>
      </trkpt>
      <trkpt lat="45.32281" lon="5.88161">
        <ele>1154.4489746094</ele>
        <time>2017-10-21T07:05:05Z</time>
      </trkpt>
      <trkpt lat="45.32284" lon="5.88167">
        <ele>1154.4489746094</ele>
        <time>2017-10-21T07:05:08Z</time>
      </trkpt>
      <trkpt lat="45.32288" lon="5.88173">
        <ele>1154.4489746094</ele>
        <time>2017-10-21T07:05:11Z</time>
      </trkpt>
      <trkpt lat="45.32292" lon="5.88178">
        <ele>1158.4489746094</ele>
        <time>2017-10-21T07:05:15Z</time>
      </trkpt>
      <trkpt lat="45.32295" lon="5.88186">
        <ele>1153.4489746094</ele>
        <time>2017-10-21T07:05:19Z</time>
      </trkpt>
      <trkpt lat="45.32296" lon="5.88192">
        <ele>1149.4489746094</ele>
        <time>2017-10-21T07:05:23Z</time>
      </trkpt>
      <trkpt lat="45.32296" lon="5.88199">
        <ele>1153.4489746094</ele>
        <time>2017-10-21T07:05:26Z</time>
      </trkpt>
      <trkpt lat="45.32295" lon="5.88206">
        <ele>1155.4489746094</ele>
        <time>2017-10-21T07:05:30Z</time>
      </trkpt>
      <trkpt lat="45.32297" lon="5.88213">
        <ele>1155.4489746094</ele>
        <time>2017-10-21T07:05:36Z</time>
      </trkpt>
      <trkpt lat="45.32296" lon="5.88221">
        <ele>1153.4489746094</ele>
        <time>2017-10-21T07:05:41Z</time>
      </trkpt>
      <trkpt lat="45.32297" lon="5.88228">
        <ele>1153.4489746094</ele>
        <time>2017-10-21T07:05:45Z</time>
      </trkpt>
      <trkpt lat="45.32297" lon="5.88236">
        <ele>1155.4489746094</ele>
        <time>2017-10-21T07:05:51Z</time>
      </trkpt>
      <trkpt lat="45.32298" lon="5.88243">
        <ele>1155.4489746094</ele>
        <time>2017-10-21T07:05:53Z</time>
      </trkpt>
      <trkpt lat="45.32298" lon="5.8825">
        <ele>1157.4489746094</ele>
        <time>2017-10-21T07:05:57Z</time>
      </trkpt>
      <trkpt lat="45.32299" lon="5.8826">
        <ele>1157.4489746094</ele>
        <time>2017-10-21T07:06:00Z</time>
      </trkpt>
      <trkpt lat="45.32298" lon="5.88266">
        <ele>1162.4489746094</ele>
        <time>2017-10-21T07:06:04Z</time>
      </trkpt>
      <trkpt lat="45.32296" lon="5.88272">
        <ele>1162.4489746094</ele>
        <time>2017-10-21T07:06:09Z</time>
      </trkpt>
      <trkpt lat="45.32296" lon="5.88279">
        <ele>1164.4489746094</ele>
        <time>2017-10-21T07:06:13Z</time>
      </trkpt>
      <trkpt lat="45.32298" lon="5.88287">
        <ele>1168.4489746094</ele>
        <time>2017-10-21T07:06:17Z</time>
      </trkpt>
      <trkpt lat="45.32297" lon="5.88293">
        <ele>1170.4489746094</ele>
        <time>2017-10-21T07:06:22Z</time>
      </trkpt>
      <trkpt lat="45.32297" lon="5.883">
        <ele>1174.4489746094</ele>
        <time>2017-10-21T07:06:25Z</time>
      </trkpt>
      <trkpt lat="45.32296" lon="5.88307">
        <ele>1175.4489746094</ele>
        <time>2017-10-21T07:06:29Z</time>
      </trkpt>
      <trkpt lat="45.32294" lon="5.88313">
        <ele>1177.4489746094</ele>
        <time>2017-10-21T07:06:33Z</time>
      </trkpt>
      <trkpt lat="45.32294" lon="5.88321">
        <ele>1178.4489746094</ele>
        <time>2017-10-21T07:06:37Z</time>
      </trkpt>
      <trkpt lat="45.32296" lon="5.88329">
        <ele>1178.4489746094</ele>
        <time>2017-10-21T07:06:43Z</time>
      </trkpt>
      <trkpt lat="45.32296" lon="5.88335">
        <ele>1177.4489746094</ele>
        <time>2017-10-21T07:06:46Z</time>
      </trkpt>
      <trkpt lat="45.32298" lon="5.88341">
        <ele>1174.4489746094</ele>
        <time>2017-10-21T07:06:49Z</time>
      </trkpt>
      <trkpt lat="45.32298" lon="5.88348">
        <ele>1176.4489746094</ele>
        <time>2017-10-21T07:06:53Z</time>
      </trkpt>
      <trkpt lat="45.32298" lon="5.88356">
        <ele>1180.4489746094</ele>
        <time>2017-10-21T07:06:58Z</time>
      </trkpt>
      <trkpt lat="45.32294" lon="5.88363">
        <ele>1182.4489746094</ele>
        <time>2017-10-21T07:07:02Z</time>
      </trkpt>
      <trkpt lat="45.32292" lon="5.88369">
        <ele>1182.4489746094</ele>
        <time>2017-10-21T07:07:07Z</time>
      </trkpt>
      <trkpt lat="45.32293" lon="5.88376">
        <ele>1182.4489746094</ele>
        <time>2017-10-21T07:07:10Z</time>
      </trkpt>
      <trkpt lat="45.32294" lon="5.88383">
        <ele>1185.4489746094</ele>
        <time>2017-10-21T07:07:13Z</time>
      </trkpt>
      <trkpt lat="45.32293" lon="5.88389">
        <ele>1184.4489746094</ele>
        <time>2017-10-21T07:07:16Z</time>
      </trkpt>
      <trkpt lat="45.32293" lon="5.88396">
        <ele>1186.4489746094</ele>
        <time>2017-10-21T07:07:20Z</time>
      </trkpt>
      <trkpt lat="45.32295" lon="5.88403">
        <ele>1184.4489746094</ele>
        <time>2017-10-21T07:07:25Z</time>
      </trkpt>
      <trkpt lat="45.32294" lon="5.8841">
        <ele>1185.4489746094</ele>
        <time>2017-10-21T07:07:29Z</time>
      </trkpt>
      <trkpt lat="45.32296" lon="5.88417">
        <ele>1186.4489746094</ele>
        <time>2017-10-21T07:07:33Z</time>
      </trkpt>
      <trkpt lat="45.32299" lon="5.88422">
        <ele>1187.4489746094</ele>
        <time>2017-10-21T07:07:37Z</time>
      </trkpt>
      <trkpt lat="45.32301" lon="5.88428">
        <ele>1191.4489746094</ele>
        <time>2017-10-21T07:07:43Z</time>
      </trkpt>
      <trkpt lat="45.32305" lon="5.88431">
        <ele>1193.4489746094</ele>
        <time>2017-10-21T07:07:49Z</time>
      </trkpt>
      <trkpt lat="45.32309" lon="5.88435">
        <ele>1195.4489746094</ele>
        <time>2017-10-21T07:07:54Z</time>
      </trkpt>
      <trkpt lat="45.32312" lon="5.88442">
        <ele>1199.4489746094</ele>
        <time>2017-10-21T07:08:00Z</time>
      </trkpt>
      <trkpt lat="45.32318" lon="5.88446">
        <ele>1204.4489746094</ele>
        <time>2017-10-21T07:08:06Z</time>
      </trkpt>
      <trkpt lat="45.32323" lon="5.88447">
        <ele>1203.4489746094</ele>
        <time>2017-10-21T07:08:12Z</time>
      </trkpt>
      <trkpt lat="45.32328" lon="5.88449">
        <ele>1205.4489746094</ele>
        <time>2017-10-21T07:08:16Z</time>
      </trkpt>
      <trkpt lat="45.32335" lon="5.88451">
        <ele>1206.4489746094</ele>
        <time>2017-10-21T07:08:20Z</time>
      </trkpt>
      <trkpt lat="45.3234" lon="5.88448">
        <ele>1206.4489746094</ele>
        <time>2017-10-21T07:08:25Z</time>
      </trkpt>
      <trkpt lat="45.32345" lon="5.88444">
        <ele>1207.4489746094</ele>
        <time>2017-10-21T07:08:31Z</time>
      </trkpt>
      <trkpt lat="45.3235" lon="5.88443">
        <ele>1204.4489746094</ele>
        <time>2017-10-21T07:08:35Z</time>
      </trkpt>
      <trkpt lat="45.32355" lon="5.88442">
        <ele>1200.4489746094</ele>
        <time>2017-10-21T07:08:40Z</time>
      </trkpt>
      <trkpt lat="45.32359" lon="5.88442">
        <ele>1202.4489746094</ele>
        <time>2017-10-21T07:08:47Z</time>
      </trkpt>
      <trkpt lat="45.32365" lon="5.88441">
        <ele>1204.4489746094</ele>
        <time>2017-10-21T07:08:55Z</time>
      </trkpt>
      <trkpt lat="45.3237" lon="5.88437">
        <ele>1207.4489746094</ele>
        <time>2017-10-21T07:08:59Z</time>
      </trkpt>
      <trkpt lat="45.32375" lon="5.88438">
        <ele>1209.4489746094</ele>
        <time>2017-10-21T07:09:02Z</time>
      </trkpt>
      <trkpt lat="45.32379" lon="5.88433">
        <ele>1211.4489746094</ele>
        <time>2017-10-21T07:09:07Z</time>
      </trkpt>
      <trkpt lat="45.32384" lon="5.88432">
        <ele>1216.4489746094</ele>
        <time>2017-10-21T07:09:13Z</time>
      </trkpt>
      <trkpt lat="45.3239" lon="5.88431">
        <ele>1214.4489746094</ele>
        <time>2017-10-21T07:09:17Z</time>
      </trkpt>
      <trkpt lat="45.32395" lon="5.88434">
        <ele>1214.4489746094</ele>
        <time>2017-10-21T07:09:21Z</time>
      </trkpt>
      <trkpt lat="45.324" lon="5.88434">
        <ele>1215.4489746094</ele>
        <time>2017-10-21T07:09:24Z</time>
      </trkpt>
      <trkpt lat="45.32406" lon="5.88436">
        <ele>1215.4489746094</ele>
        <time>2017-10-21T07:09:28Z</time>
      </trkpt>
      <trkpt lat="45.32412" lon="5.88434">
        <ele>1214.4489746094</ele>
        <time>2017-10-21T07:09:31Z</time>
      </trkpt>
      <trkpt lat="45.32418" lon="5.88435">
        <ele>1216.4489746094</ele>
        <time>2017-10-21T07:09:36Z</time>
      </trkpt>
      <trkpt lat="45.32423" lon="5.88434">
        <ele>1216.4489746094</ele>
        <time>2017-10-21T07:09:40Z</time>
      </trkpt>
      <trkpt lat="45.32428" lon="5.88432">
        <ele>1218.4489746094</ele>
        <time>2017-10-21T07:09:46Z</time>
      </trkpt>
      <trkpt lat="45.32433" lon="5.88429">
        <ele>1215.4489746094</ele>
        <time>2017-10-21T07:09:51Z</time>
      </trkpt>
      <trkpt lat="45.32437" lon="5.88428">
        <ele>1214.4489746094</ele>
        <time>2017-10-21T07:09:55Z</time>
      </trkpt>
      <trkpt lat="45.32442" lon="5.88426">
        <ele>1215.4489746094</ele>
        <time>2017-10-21T07:10:01Z</time>
      </trkpt>
      <trkpt lat="45.32447" lon="5.88425">
        <ele>1222.4489746094</ele>
        <time>2017-10-21T07:10:08Z</time>
      </trkpt>
      <trkpt lat="45.32451" lon="5.8842">
        <ele>1223.4489746094</ele>
        <time>2017-10-21T07:10:24Z</time>
      </trkpt>
      <trkpt lat="45.32454" lon="5.88414">
        <ele>1219.4489746094</ele>
        <time>2017-10-21T07:10:27Z</time>
      </trkpt>
      <trkpt lat="45.32457" lon="5.88406">
        <ele>1220.4489746094</ele>
        <time>2017-10-21T07:10:31Z</time>
      </trkpt>
      <trkpt lat="45.32462" lon="5.88405">
        <ele>1222.4489746094</ele>
        <time>2017-10-21T07:10:34Z</time>
      </trkpt>
      <trkpt lat="45.32467" lon="5.88405">
        <ele>1226.4489746094</ele>
        <time>2017-10-21T07:10:37Z</time>
      </trkpt>
      <trkpt lat="45.3247" lon="5.884">
        <ele>1228.4489746094</ele>
        <time>2017-10-21T07:10:42Z</time>
      </trkpt>
      <trkpt lat="45.32473" lon="5.88392">
        <ele>1229.4489746094</ele>
        <time>2017-10-21T07:10:47Z</time>
      </trkpt>
      <trkpt lat="45.32474" lon="5.88385">
        <ele>1234.4489746094</ele>
        <time>2017-10-21T07:11:01Z</time>
      </trkpt>
      <trkpt lat="45.32471" lon="5.8838">
        <ele>1234.4489746094</ele>
        <time>2017-10-21T07:11:03Z</time>
      </trkpt>
      <trkpt lat="45.32471" lon="5.88372">
        <ele>1237.4489746094</ele>
        <time>2017-10-21T07:11:14Z</time>
      </trkpt>
      <trkpt lat="45.32472" lon="5.88365">
        <ele>1239.4489746094</ele>
        <time>2017-10-21T07:11:18Z</time>
      </trkpt>
      <trkpt lat="45.32472" lon="5.88357">
        <ele>1239.4489746094</ele>
        <time>2017-10-21T07:11:22Z</time>
      </trkpt>
      <trkpt lat="45.32473" lon="5.88351">
        <ele>1152.4489746094</ele>
        <time>2017-10-21T07:11:33Z</time>
      </trkpt>
      <trkpt lat="45.32474" lon="5.88344">
        <ele>1225.4489746094</ele>
        <time>2017-10-21T07:11:43Z</time>
      </trkpt>
      <trkpt lat="45.32475" lon="5.88338">
        <ele>1226.4489746094</ele>
        <time>2017-10-21T07:11:45Z</time>
      </trkpt>
      <trkpt lat="45.32473" lon="5.8833">
        <ele>1239.4489746094</ele>
        <time>2017-10-21T07:11:57Z</time>
      </trkpt>
      <trkpt lat="45.32474" lon="5.88323">
        <ele>1249.4489746094</ele>
        <time>2017-10-21T07:12:11Z</time>
      </trkpt>
      <trkpt lat="45.32473" lon="5.88315">
        <ele>1248.4489746094</ele>
        <time>2017-10-21T07:12:15Z</time>
      </trkpt>
      <trkpt lat="45.32475" lon="5.88309">
        <ele>1250.4489746094</ele>
        <time>2017-10-21T07:12:23Z</time>
      </trkpt>
      <trkpt lat="45.32479" lon="5.88306">
        <ele>1249.4489746094</ele>
        <time>2017-10-21T07:12:29Z</time>
      </trkpt>
      <trkpt lat="45.32478" lon="5.88299">
        <ele>1253.4489746094</ele>
        <time>2017-10-21T07:12:35Z</time>
      </trkpt>
      <trkpt lat="45.32476" lon="5.88293">
        <ele>1256.4489746094</ele>
        <time>2017-10-21T07:12:39Z</time>
      </trkpt>
      <trkpt lat="45.32479" lon="5.88288">
        <ele>1257.4489746094</ele>
        <time>2017-10-21T07:12:46Z</time>
      </trkpt>
      <trkpt lat="45.32476" lon="5.88282">
        <ele>1257.4489746094</ele>
        <time>2017-10-21T07:12:48Z</time>
      </trkpt>
      <trkpt lat="45.32479" lon="5.88276">
        <ele>1256.4489746094</ele>
        <time>2017-10-21T07:12:54Z</time>
      </trkpt>
      <trkpt lat="45.3248" lon="5.88269">
        <ele>1262.4489746094</ele>
        <time>2017-10-21T07:12:58Z</time>
      </trkpt>
      <trkpt lat="45.32478" lon="5.88263">
        <ele>1261.4489746094</ele>
        <time>2017-10-21T07:13:01Z</time>
      </trkpt>
      <trkpt lat="45.32482" lon="5.88257">
        <ele>1264.4489746094</ele>
        <time>2017-10-21T07:13:06Z</time>
      </trkpt>
      <trkpt lat="45.32486" lon="5.88252">
        <ele>1266.4489746094</ele>
        <time>2017-10-21T07:13:10Z</time>
      </trkpt>
      <trkpt lat="45.3249" lon="5.88248">
        <ele>1266.4489746094</ele>
        <time>2017-10-21T07:13:15Z</time>
      </trkpt>
      <trkpt lat="45.32494" lon="5.88243">
        <ele>1268.4489746094</ele>
        <time>2017-10-21T07:13:19Z</time>
      </trkpt>
      <trkpt lat="45.32497" lon="5.88236">
        <ele>1269.4489746094</ele>
        <time>2017-10-21T07:13:24Z</time>
      </trkpt>
      <trkpt lat="45.32501" lon="5.88233">
        <ele>1269.4489746094</ele>
        <time>2017-10-21T07:13:27Z</time>
      </trkpt>
      <trkpt lat="45.32504" lon="5.88228">
        <ele>1270.4489746094</ele>
        <time>2017-10-21T07:13:30Z</time>
      </trkpt>
      <trkpt lat="45.32508" lon="5.88223">
        <ele>1270.4489746094</ele>
        <time>2017-10-21T07:13:34Z</time>
      </trkpt>
      <trkpt lat="45.32512" lon="5.88217">
        <ele>1271.4489746094</ele>
        <time>2017-10-21T07:13:38Z</time>
      </trkpt>
      <trkpt lat="45.32515" lon="5.88211">
        <ele>1272.4489746094</ele>
        <time>2017-10-21T07:13:42Z</time>
      </trkpt>
      <trkpt lat="45.32512" lon="5.88204">
        <ele>1267.4489746094</ele>
        <time>2017-10-21T07:13:44Z</time>
      </trkpt>
      <trkpt lat="45.32513" lon="5.88197">
        <ele>1269.4489746094</ele>
        <time>2017-10-21T07:13:48Z</time>
      </trkpt>
      <trkpt lat="45.32517" lon="5.88191">
        <ele>1271.4489746094</ele>
        <time>2017-10-21T07:13:52Z</time>
      </trkpt>
      <trkpt lat="45.32521" lon="5.88187">
        <ele>1272.4489746094</ele>
        <time>2017-10-21T07:13:56Z</time>
      </trkpt>
      <trkpt lat="45.32525" lon="5.88184">
        <ele>1275.4489746094</ele>
        <time>2017-10-21T07:14:00Z</time>
      </trkpt>
      <trkpt lat="45.32527" lon="5.88177">
        <ele>1275.4489746094</ele>
        <time>2017-10-21T07:14:04Z</time>
      </trkpt>
      <trkpt lat="45.3253" lon="5.88171">
        <ele>1274.4489746094</ele>
        <time>2017-10-21T07:14:07Z</time>
      </trkpt>
      <trkpt lat="45.32533" lon="5.88164">
        <ele>1277.4489746094</ele>
        <time>2017-10-21T07:14:09Z</time>
      </trkpt>
      <trkpt lat="45.32537" lon="5.88161">
        <ele>1274.4489746094</ele>
        <time>2017-10-21T07:14:12Z</time>
      </trkpt>
      <trkpt lat="45.32542" lon="5.88153">
        <ele>1274.4489746094</ele>
        <time>2017-10-21T07:14:15Z</time>
      </trkpt>
      <trkpt lat="45.32545" lon="5.88144">
        <ele>1274.4489746094</ele>
        <time>2017-10-21T07:14:18Z</time>
      </trkpt>
      <trkpt lat="45.32546" lon="5.88137">
        <ele>1278.4489746094</ele>
        <time>2017-10-21T07:14:21Z</time>
      </trkpt>
      <trkpt lat="45.32545" lon="5.8813">
        <ele>1281.4489746094</ele>
        <time>2017-10-21T07:14:23Z</time>
      </trkpt>
      <trkpt lat="45.32547" lon="5.88123">
        <ele>1282.4489746094</ele>
        <time>2017-10-21T07:14:30Z</time>
      </trkpt>
      <trkpt lat="45.32546" lon="5.88114">
        <ele>1279.4489746094</ele>
        <time>2017-10-21T07:14:34Z</time>
      </trkpt>
      <trkpt lat="45.32546" lon="5.88106">
        <ele>1278.4489746094</ele>
        <time>2017-10-21T07:14:40Z</time>
      </trkpt>
      <trkpt lat="45.32545" lon="5.88099">
        <ele>1278.4489746094</ele>
        <time>2017-10-21T07:14:44Z</time>
      </trkpt>
      <trkpt lat="45.32546" lon="5.88092">
        <ele>1278.4489746094</ele>
        <time>2017-10-21T07:14:49Z</time>
      </trkpt>
      <trkpt lat="45.32545" lon="5.88085">
        <ele>1281.4489746094</ele>
        <time>2017-10-21T07:14:56Z</time>
      </trkpt>
      <trkpt lat="45.32547" lon="5.88079">
        <ele>1281.4489746094</ele>
        <time>2017-10-21T07:15:03Z</time>
      </trkpt>
      <trkpt lat="45.32552" lon="5.88078">
        <ele>1287.4489746094</ele>
        <time>2017-10-21T07:15:27Z</time>
      </trkpt>
      <trkpt lat="45.32555" lon="5.88072">
        <ele>1288.4489746094</ele>
        <time>2017-10-21T07:15:31Z</time>
      </trkpt>
      <trkpt lat="45.32562" lon="5.88069">
        <ele>1287.4489746094</ele>
        <time>2017-10-21T07:15:43Z</time>
      </trkpt>
      <trkpt lat="45.32565" lon="5.88062">
        <ele>1285.4489746094</ele>
        <time>2017-10-21T07:15:45Z</time>
      </trkpt>
      <trkpt lat="45.32569" lon="5.88056">
        <ele>1287.4489746094</ele>
        <time>2017-10-21T07:15:51Z</time>
      </trkpt>
      <trkpt lat="45.32574" lon="5.88054">
        <ele>1297.4489746094</ele>
        <time>2017-10-21T07:16:18Z</time>
      </trkpt>
      <trkpt lat="45.32577" lon="5.88048">
        <ele>1299.4489746094</ele>
        <time>2017-10-21T07:16:23Z</time>
      </trkpt>
      <trkpt lat="45.32582" lon="5.88046">
        <ele>1303.4489746094</ele>
        <time>2017-10-21T07:16:28Z</time>
      </trkpt>
      <trkpt lat="45.32585" lon="5.88039">
        <ele>1302.4489746094</ele>
        <time>2017-10-21T07:16:33Z</time>
      </trkpt>
      <trkpt lat="45.32589" lon="5.88037">
        <ele>1304.4489746094</ele>
        <time>2017-10-21T07:16:40Z</time>
      </trkpt>
      <trkpt lat="45.32593" lon="5.88031">
        <ele>1312.4489746094</ele>
        <time>2017-10-21T07:17:13Z</time>
      </trkpt>
      <trkpt lat="45.32599" lon="5.88027">
        <ele>1317.4489746094</ele>
        <time>2017-10-21T07:17:21Z</time>
      </trkpt>
      <trkpt lat="45.32601" lon="5.88021">
        <ele>1324.4489746094</ele>
        <time>2017-10-21T07:17:27Z</time>
      </trkpt>
      <trkpt lat="45.32606" lon="5.88019">
        <ele>1328.4489746094</ele>
        <time>2017-10-21T07:17:35Z</time>
      </trkpt>
      <trkpt lat="45.3261" lon="5.88014">
        <ele>1336.4489746094</ele>
        <time>2017-10-21T07:17:50Z</time>
      </trkpt>
      <trkpt lat="45.32611" lon="5.88008">
        <ele>1338.4489746094</ele>
        <time>2017-10-21T07:17:56Z</time>
      </trkpt>
      <trkpt lat="45.32609" lon="5.88001">
        <ele>1346.4489746094</ele>
        <time>2017-10-21T07:18:18Z</time>
      </trkpt>
      <trkpt lat="45.32606" lon="5.87997">
        <ele>1342.4489746094</ele>
        <time>2017-10-21T07:18:24Z</time>
      </trkpt>
      <trkpt lat="45.32602" lon="5.87992">
        <ele>1343.4489746094</ele>
        <time>2017-10-21T07:18:28Z</time>
      </trkpt>
      <trkpt lat="45.32599" lon="5.87986">
        <ele>1347.4489746094</ele>
        <time>2017-10-21T07:18:38Z</time>
      </trkpt>
      <trkpt lat="45.32596" lon="5.87979">
        <ele>1347.4489746094</ele>
        <time>2017-10-21T07:18:44Z</time>
      </trkpt>
      <trkpt lat="45.32593" lon="5.87974">
        <ele>1350.4489746094</ele>
        <time>2017-10-21T07:18:53Z</time>
      </trkpt>
      <trkpt lat="45.32594" lon="5.87966">
        <ele>1348.4489746094</ele>
        <time>2017-10-21T07:19:07Z</time>
      </trkpt>
      <trkpt lat="45.32594" lon="5.87959">
        <ele>1348.4489746094</ele>
        <time>2017-10-21T07:19:09Z</time>
      </trkpt>
      <trkpt lat="45.32592" lon="5.87953">
        <ele>1349.4489746094</ele>
        <time>2017-10-21T07:19:12Z</time>
      </trkpt>
      <trkpt lat="45.32591" lon="5.87945">
        <ele>1350.4489746094</ele>
        <time>2017-10-21T07:19:18Z</time>
      </trkpt>
      <trkpt lat="45.32592" lon="5.87936">
        <ele>1350.4489746094</ele>
        <time>2017-10-21T07:19:25Z</time>
      </trkpt>
      <trkpt lat="45.32591" lon="5.87929">
        <ele>1351.4489746094</ele>
        <time>2017-10-21T07:19:28Z</time>
      </trkpt>
      <trkpt lat="45.32592" lon="5.87921">
        <ele>1354.4489746094</ele>
        <time>2017-10-21T07:19:38Z</time>
      </trkpt>
      <trkpt lat="45.32591" lon="5.87915">
        <ele>1353.4489746094</ele>
        <time>2017-10-21T07:19:41Z</time>
      </trkpt>
      <trkpt lat="45.32589" lon="5.87908">
        <ele>1355.4489746094</ele>
        <time>2017-10-21T07:19:48Z</time>
      </trkpt>
      <trkpt lat="45.32589" lon="5.87902">
        <ele>1200.4489746094</ele>
        <time>2017-10-21T07:19:58Z</time>
      </trkpt>
      <trkpt lat="45.32592" lon="5.87895">
        <ele>1304.4489746094</ele>
        <time>2017-10-21T07:20:06Z</time>
      </trkpt>
      <trkpt lat="45.32593" lon="5.87888">
        <ele>1301.4489746094</ele>
        <time>2017-10-21T07:20:10Z</time>
      </trkpt>
      <trkpt lat="45.32596" lon="5.87883">
        <ele>1325.4489746094</ele>
        <time>2017-10-21T07:20:13Z</time>
      </trkpt>
      <trkpt lat="45.32595" lon="5.87875">
        <ele>1344.4489746094</ele>
        <time>2017-10-21T07:20:21Z</time>
      </trkpt>
      <trkpt lat="45.32594" lon="5.87869">
        <ele>1355.4489746094</ele>
        <time>2017-10-21T07:20:30Z</time>
      </trkpt>
      <trkpt lat="45.32594" lon="5.8786">
        <ele>1358.4489746094</ele>
        <time>2017-10-21T07:20:43Z</time>
      </trkpt>
      <trkpt lat="45.32598" lon="5.87857">
        <ele>1358.4489746094</ele>
        <time>2017-10-21T07:20:46Z</time>
      </trkpt>
      <trkpt lat="45.32601" lon="5.8785">
        <ele>1360.4489746094</ele>
        <time>2017-10-21T07:20:52Z</time>
      </trkpt>
      <trkpt lat="45.32603" lon="5.87843">
        <ele>1367.4489746094</ele>
        <time>2017-10-21T07:20:58Z</time>
      </trkpt>
      <trkpt lat="45.32606" lon="5.87836">
        <ele>1370.4489746094</ele>
        <time>2017-10-21T07:21:15Z</time>
      </trkpt>
      <trkpt lat="45.32609" lon="5.8783">
        <ele>1372.4489746094</ele>
        <time>2017-10-21T07:21:21Z</time>
      </trkpt>
      <trkpt lat="45.32613" lon="5.87826">
        <ele>1378.4489746094</ele>
        <time>2017-10-21T07:21:31Z</time>
      </trkpt>
      <trkpt lat="45.32612" lon="5.87819">
        <ele>1379.4489746094</ele>
        <time>2017-10-21T07:21:35Z</time>
      </trkpt>
      <trkpt lat="45.32617" lon="5.87815">
        <ele>1381.4489746094</ele>
        <time>2017-10-21T07:21:43Z</time>
      </trkpt>
      <trkpt lat="45.32621" lon="5.87809">
        <ele>1386.4489746094</ele>
        <time>2017-10-21T07:21:57Z</time>
      </trkpt>
      <trkpt lat="45.32626" lon="5.87808">
        <ele>1387.4489746094</ele>
        <time>2017-10-21T07:22:17Z</time>
      </trkpt>
      <trkpt lat="45.32629" lon="5.87812">
        <ele>1392.4489746094</ele>
        <time>2017-10-21T07:22:21Z</time>
      </trkpt>
      <trkpt lat="45.32634" lon="5.87816">
        <ele>1390.4489746094</ele>
        <time>2017-10-21T07:22:25Z</time>
      </trkpt>
      <trkpt lat="45.32639" lon="5.87818">
        <ele>1389.4489746094</ele>
        <time>2017-10-21T07:22:30Z</time>
      </trkpt>
      <trkpt lat="45.32643" lon="5.87821">
        <ele>1390.4489746094</ele>
        <time>2017-10-21T07:22:36Z</time>
      </trkpt>
      <trkpt lat="45.32645" lon="5.87827">
        <ele>1394.4489746094</ele>
        <time>2017-10-21T07:22:51Z</time>
      </trkpt>
      <trkpt lat="45.32647" lon="5.87833">
        <ele>1399.4489746094</ele>
        <time>2017-10-21T07:23:03Z</time>
      </trkpt>
      <trkpt lat="45.3265" lon="5.87838">
        <ele>1402.4489746094</ele>
        <time>2017-10-21T07:23:07Z</time>
      </trkpt>
      <trkpt lat="45.32654" lon="5.87842">
        <ele>1407.4489746094</ele>
        <time>2017-10-21T07:23:39Z</time>
      </trkpt>
      <trkpt lat="45.32659" lon="5.87842">
        <ele>1097.4489746094</ele>
        <time>2017-10-21T07:23:45Z</time>
      </trkpt>
      <trkpt lat="45.32663" lon="5.87839">
        <ele>1330.4489746094</ele>
        <time>2017-10-21T07:23:51Z</time>
      </trkpt>
      <trkpt lat="45.32665" lon="5.87832">
        <ele>1379.4489746094</ele>
        <time>2017-10-21T07:23:57Z</time>
      </trkpt>
      <trkpt lat="45.32669" lon="5.87831">
        <ele>1255.4489746094</ele>
        <time>2017-10-21T07:24:02Z</time>
      </trkpt>
      <trkpt lat="45.32672" lon="5.87825">
        <ele>1246.4489746094</ele>
        <time>2017-10-21T07:24:16Z</time>
      </trkpt>
      <trkpt lat="45.32672" lon="5.87818">
        <ele>1344.4489746094</ele>
        <time>2017-10-21T07:24:22Z</time>
      </trkpt>
      <trkpt lat="45.32677" lon="5.8782">
        <ele>1403.4489746094</ele>
        <time>2017-10-21T07:24:36Z</time>
      </trkpt>
      <trkpt lat="45.3268" lon="5.87826">
        <ele>1420.4489746094</ele>
        <time>2017-10-21T07:24:47Z</time>
      </trkpt>
      <trkpt lat="45.32685" lon="5.87829">
        <ele>1373.4489746094</ele>
        <time>2017-10-21T07:24:59Z</time>
      </trkpt>
      <trkpt lat="45.32687" lon="5.87823">
        <ele>1406.4489746094</ele>
        <time>2017-10-21T07:25:05Z</time>
      </trkpt>
      <trkpt lat="45.32688" lon="5.87817">
        <ele>1424.4489746094</ele>
        <time>2017-10-21T07:25:15Z</time>
      </trkpt>
      <trkpt lat="45.32692" lon="5.87813">
        <ele>1438.4489746094</ele>
        <time>2017-10-21T07:25:33Z</time>
      </trkpt>
      <trkpt lat="45.32694" lon="5.8782">
        <ele>1440.4489746094</ele>
        <time>2017-10-21T07:25:39Z</time>
      </trkpt>
      <trkpt lat="45.32696" lon="5.87826">
        <ele>1444.4489746094</ele>
        <time>2017-10-21T07:25:45Z</time>
      </trkpt>
      <trkpt lat="45.32701" lon="5.87829">
        <ele>1445.4489746094</ele>
        <time>2017-10-21T07:25:55Z</time>
      </trkpt>
      <trkpt lat="45.32706" lon="5.87826">
        <ele>1451.4489746094</ele>
        <time>2017-10-21T07:26:06Z</time>
      </trkpt>
      <trkpt lat="45.32711" lon="5.87827">
        <ele>1463.4489746094</ele>
        <time>2017-10-21T07:26:19Z</time>
      </trkpt>
      <trkpt lat="45.32716" lon="5.87824">
        <ele>1464.4489746094</ele>
        <time>2017-10-21T07:26:40Z</time>
      </trkpt>
      <trkpt lat="45.32719" lon="5.87819">
        <ele>1468.4489746094</ele>
        <time>2017-10-21T07:26:52Z</time>
      </trkpt>
      <trkpt lat="45.32723" lon="5.87815">
        <ele>1469.4489746094</ele>
        <time>2017-10-21T07:27:03Z</time>
      </trkpt>
      <trkpt lat="45.32727" lon="5.87811">
        <ele>1470.4489746094</ele>
        <time>2017-10-21T07:27:10Z</time>
      </trkpt>
      <trkpt lat="45.32729" lon="5.87805">
        <ele>1477.4489746094</ele>
        <time>2017-10-21T07:27:20Z</time>
      </trkpt>
      <trkpt lat="45.32733" lon="5.87801">
        <ele>1480.4489746094</ele>
        <time>2017-10-21T07:27:31Z</time>
      </trkpt>
      <trkpt lat="45.32735" lon="5.87795">
        <ele>1484.4489746094</ele>
        <time>2017-10-21T07:27:48Z</time>
      </trkpt>
      <trkpt lat="45.32737" lon="5.87788">
        <ele>1482.4489746094</ele>
        <time>2017-10-21T07:27:55Z</time>
      </trkpt>
      <trkpt lat="45.32736" lon="5.87782">
        <ele>1486.4489746094</ele>
        <time>2017-10-21T07:27:57Z</time>
      </trkpt>
      <trkpt lat="45.32735" lon="5.87775">
        <ele>1490.4489746094</ele>
        <time>2017-10-21T07:28:05Z</time>
      </trkpt>
      <trkpt lat="45.32735" lon="5.87768">
        <ele>1494.4489746094</ele>
        <time>2017-10-21T07:28:15Z</time>
      </trkpt>
      <trkpt lat="45.32739" lon="5.87763">
        <ele>1494.4489746094</ele>
        <time>2017-10-21T07:28:19Z</time>
      </trkpt>
      <trkpt lat="45.32738" lon="5.87756">
        <ele>1496.4489746094</ele>
        <time>2017-10-21T07:28:27Z</time>
      </trkpt>
      <trkpt lat="45.32738" lon="5.8775">
        <ele>1493.4489746094</ele>
        <time>2017-10-21T07:28:36Z</time>
      </trkpt>
      <trkpt lat="45.32739" lon="5.87742">
        <ele>1494.4489746094</ele>
        <time>2017-10-21T07:28:42Z</time>
      </trkpt>
      <trkpt lat="45.32741" lon="5.87735">
        <ele>1498.4489746094</ele>
        <time>2017-10-21T07:28:46Z</time>
      </trkpt>
      <trkpt lat="45.32743" lon="5.8773">
        <ele>1496.4489746094</ele>
        <time>2017-10-21T07:28:51Z</time>
      </trkpt>
      <trkpt lat="45.32741" lon="5.87724">
        <ele>1506.4489746094</ele>
        <time>2017-10-21T07:29:07Z</time>
      </trkpt>
      <trkpt lat="45.32742" lon="5.87731">
        <ele>1505.4489746094</ele>
        <time>2017-10-21T07:29:32Z</time>
      </trkpt>
      <trkpt lat="45.32743" lon="5.87738">
        <ele>1503.4489746094</ele>
        <time>2017-10-21T07:29:40Z</time>
      </trkpt>
      <trkpt lat="45.32743" lon="5.87745">
        <ele>1501.4489746094</ele>
        <time>2017-10-21T07:29:47Z</time>
      </trkpt>
      <trkpt lat="45.32741" lon="5.87753">
        <ele>1501.4489746094</ele>
        <time>2017-10-21T07:30:33Z</time>
      </trkpt>
      <trkpt lat="45.3274" lon="5.87762">
        <ele>1491.4489746094</ele>
        <time>2017-10-21T07:30:38Z</time>
      </trkpt>
      <trkpt lat="45.32739" lon="5.8777">
        <ele>1490.4489746094</ele>
        <time>2017-10-21T07:30:43Z</time>
      </trkpt>
      <trkpt lat="45.32739" lon="5.87776">
        <ele>1489.4489746094</ele>
        <time>2017-10-21T07:30:46Z</time>
      </trkpt>
      <trkpt lat="45.3274" lon="5.87783">
        <ele>1488.4489746094</ele>
        <time>2017-10-21T07:30:49Z</time>
      </trkpt>
      <trkpt lat="45.3274" lon="5.87789">
        <ele>1484.4489746094</ele>
        <time>2017-10-21T07:30:53Z</time>
      </trkpt>
      <trkpt lat="45.32736" lon="5.87795">
        <ele>1485.4489746094</ele>
        <time>2017-10-21T07:31:02Z</time>
      </trkpt>
      <trkpt lat="45.32735" lon="5.87801">
        <ele>1485.4489746094</ele>
        <time>2017-10-21T07:31:06Z</time>
      </trkpt>
      <trkpt lat="45.32732" lon="5.87808">
        <ele>1485.4489746094</ele>
        <time>2017-10-21T07:31:19Z</time>
      </trkpt>
      <trkpt lat="45.32731" lon="5.87815">
        <ele>1482.4489746094</ele>
        <time>2017-10-21T07:31:24Z</time>
      </trkpt>
      <trkpt lat="45.32728" lon="5.87823">
        <ele>1483.4489746094</ele>
        <time>2017-10-21T07:31:27Z</time>
      </trkpt>
      <trkpt lat="45.32723" lon="5.87826">
        <ele>1481.4489746094</ele>
        <time>2017-10-21T07:31:39Z</time>
      </trkpt>
      <trkpt lat="45.32718" lon="5.87833">
        <ele>1485.4489746094</ele>
        <time>2017-10-21T07:31:52Z</time>
      </trkpt>
      <trkpt lat="45.32713" lon="5.87834">
        <ele>1482.4489746094</ele>
        <time>2017-10-21T07:31:57Z</time>
      </trkpt>
      <trkpt lat="45.32711" lon="5.87826">
        <ele>1473.4489746094</ele>
        <time>2017-10-21T07:32:02Z</time>
      </trkpt>
      <trkpt lat="45.32709" lon="5.87819">
        <ele>1467.4489746094</ele>
        <time>2017-10-21T07:32:06Z</time>
      </trkpt>
      <trkpt lat="45.32703" lon="5.87819">
        <ele>1460.4489746094</ele>
        <time>2017-10-21T07:32:21Z</time>
      </trkpt>
      <trkpt lat="45.32699" lon="5.87823">
        <ele>1459.4489746094</ele>
        <time>2017-10-21T07:32:28Z</time>
      </trkpt>
      <trkpt lat="45.32695" lon="5.87828">
        <ele>1454.4489746094</ele>
        <time>2017-10-21T07:32:36Z</time>
      </trkpt>
      <trkpt lat="45.32691" lon="5.87823">
        <ele>1446.4489746094</ele>
        <time>2017-10-21T07:32:42Z</time>
      </trkpt>
      <trkpt lat="45.32689" lon="5.87817">
        <ele>1442.4489746094</ele>
        <time>2017-10-21T07:32:47Z</time>
      </trkpt>
      <trkpt lat="45.32684" lon="5.87817">
        <ele>1439.4489746094</ele>
        <time>2017-10-21T07:32:54Z</time>
      </trkpt>
      <trkpt lat="45.32681" lon="5.87822">
        <ele>1438.4489746094</ele>
        <time>2017-10-21T07:32:58Z</time>
      </trkpt>
      <trkpt lat="45.32677" lon="5.87828">
        <ele>1440.4489746094</ele>
        <time>2017-10-21T07:33:02Z</time>
      </trkpt>
      <trkpt lat="45.32674" lon="5.87835">
        <ele>1436.4489746094</ele>
        <time>2017-10-21T07:33:06Z</time>
      </trkpt>
      <trkpt lat="45.32671" lon="5.87841">
        <ele>1434.4489746094</ele>
        <time>2017-10-21T07:33:14Z</time>
      </trkpt>
      <trkpt lat="45.32667" lon="5.87847">
        <ele>1432.4489746094</ele>
        <time>2017-10-21T07:33:19Z</time>
      </trkpt>
      <trkpt lat="45.32663" lon="5.8785">
        <ele>1428.4489746094</ele>
        <time>2017-10-21T07:33:32Z</time>
      </trkpt>
      <trkpt lat="45.32658" lon="5.87847">
        <ele>1422.4489746094</ele>
        <time>2017-10-21T07:33:41Z</time>
      </trkpt>
      <trkpt lat="45.32654" lon="5.87841">
        <ele>1419.4489746094</ele>
        <time>2017-10-21T07:33:48Z</time>
      </trkpt>
      <trkpt lat="45.32651" lon="5.87836">
        <ele>1415.4489746094</ele>
        <time>2017-10-21T07:33:53Z</time>
      </trkpt>
      <trkpt lat="45.32648" lon="5.87831">
        <ele>1410.4489746094</ele>
        <time>2017-10-21T07:33:59Z</time>
      </trkpt>
      <trkpt lat="45.32646" lon="5.87825">
        <ele>1409.4489746094</ele>
        <time>2017-10-21T07:34:03Z</time>
      </trkpt>
      <trkpt lat="45.32643" lon="5.87821">
        <ele>1405.4489746094</ele>
        <time>2017-10-21T07:34:12Z</time>
      </trkpt>
      <trkpt lat="45.3264" lon="5.87815">
        <ele>1400.4489746094</ele>
        <time>2017-10-21T07:34:18Z</time>
      </trkpt>
      <trkpt lat="45.32636" lon="5.87816">
        <ele>1399.4489746094</ele>
        <time>2017-10-21T07:34:25Z</time>
      </trkpt>
      <trkpt lat="45.32632" lon="5.87818">
        <ele>1400.4489746094</ele>
        <time>2017-10-21T07:34:34Z</time>
      </trkpt>
      <trkpt lat="45.32627" lon="5.87822">
        <ele>1397.4489746094</ele>
        <time>2017-10-21T07:34:46Z</time>
      </trkpt>
      <trkpt lat="45.32623" lon="5.87825">
        <ele>1394.4489746094</ele>
        <time>2017-10-21T07:34:51Z</time>
      </trkpt>
      <trkpt lat="45.3262" lon="5.87831">
        <ele>1394.4489746094</ele>
        <time>2017-10-21T07:34:57Z</time>
      </trkpt>
      <trkpt lat="45.32616" lon="5.87834">
        <ele>1393.4489746094</ele>
        <time>2017-10-21T07:35:03Z</time>
      </trkpt>
      <trkpt lat="45.32613" lon="5.87841">
        <ele>1394.4489746094</ele>
        <time>2017-10-21T07:35:07Z</time>
      </trkpt>
      <trkpt lat="45.3261" lon="5.87848">
        <ele>1394.4489746094</ele>
        <time>2017-10-21T07:35:11Z</time>
      </trkpt>
      <trkpt lat="45.32609" lon="5.87855">
        <ele>1387.4489746094</ele>
        <time>2017-10-21T07:35:16Z</time>
      </trkpt>
      <trkpt lat="45.32607" lon="5.87863">
        <ele>1388.4489746094</ele>
        <time>2017-10-21T07:35:21Z</time>
      </trkpt>
      <trkpt lat="45.32605" lon="5.87869">
        <ele>1385.4489746094</ele>
        <time>2017-10-21T07:35:26Z</time>
      </trkpt>
      <trkpt lat="45.32604" lon="5.87876">
        <ele>1385.4489746094</ele>
        <time>2017-10-21T07:35:31Z</time>
      </trkpt>
      <trkpt lat="45.32603" lon="5.87882">
        <ele>1383.4489746094</ele>
        <time>2017-10-21T07:35:36Z</time>
      </trkpt>
      <trkpt lat="45.32602" lon="5.87889">
        <ele>1380.4489746094</ele>
        <time>2017-10-21T07:35:41Z</time>
      </trkpt>
      <trkpt lat="45.32602" lon="5.87896">
        <ele>1374.4489746094</ele>
        <time>2017-10-21T07:35:46Z</time>
      </trkpt>
      <trkpt lat="45.32602" lon="5.87903">
        <ele>1370.4489746094</ele>
        <time>2017-10-21T07:35:50Z</time>
      </trkpt>
      <trkpt lat="45.326" lon="5.87911">
        <ele>1367.4489746094</ele>
        <time>2017-10-21T07:35:53Z</time>
      </trkpt>
      <trkpt lat="45.326" lon="5.87918">
        <ele>1361.4489746094</ele>
        <time>2017-10-21T07:35:58Z</time>
      </trkpt>
      <trkpt lat="45.32601" lon="5.87925">
        <ele>1360.4489746094</ele>
        <time>2017-10-21T07:36:02Z</time>
      </trkpt>
      <trkpt lat="45.32599" lon="5.87933">
        <ele>1360.4489746094</ele>
        <time>2017-10-21T07:36:05Z</time>
      </trkpt>
      <trkpt lat="45.32598" lon="5.8794">
        <ele>1360.4489746094</ele>
        <time>2017-10-21T07:36:09Z</time>
      </trkpt>
      <trkpt lat="45.32597" lon="5.87946">
        <ele>1359.4489746094</ele>
        <time>2017-10-21T07:36:12Z</time>
      </trkpt>
      <trkpt lat="45.32597" lon="5.87955">
        <ele>1353.4489746094</ele>
        <time>2017-10-21T07:36:16Z</time>
      </trkpt>
      <trkpt lat="45.32596" lon="5.87962">
        <ele>1350.4489746094</ele>
        <time>2017-10-21T07:36:19Z</time>
      </trkpt>
      <trkpt lat="45.32598" lon="5.87971">
        <ele>1345.4489746094</ele>
        <time>2017-10-21T07:36:23Z</time>
      </trkpt>
      <trkpt lat="45.326" lon="5.87979">
        <ele>1343.4489746094</ele>
        <time>2017-10-21T07:36:28Z</time>
      </trkpt>
      <trkpt lat="45.32602" lon="5.87985">
        <ele>1344.4489746094</ele>
        <time>2017-10-21T07:36:33Z</time>
      </trkpt>
      <trkpt lat="45.32605" lon="5.87991">
        <ele>1173.4489746094</ele>
        <time>2017-10-21T07:36:36Z</time>
      </trkpt>
      <trkpt lat="45.32608" lon="5.87996">
        <ele>1272.4489746094</ele>
        <time>2017-10-21T07:36:41Z</time>
      </trkpt>
      <trkpt lat="45.32609" lon="5.88003">
        <ele>1153.4489746094</ele>
        <time>2017-10-21T07:36:44Z</time>
      </trkpt>
      <trkpt lat="45.32611" lon="5.88009">
        <ele>1246.4489746094</ele>
        <time>2017-10-21T07:36:47Z</time>
      </trkpt>
      <trkpt lat="45.32611" lon="5.88016">
        <ele>1302.4489746094</ele>
        <time>2017-10-21T07:36:53Z</time>
      </trkpt>
      <trkpt lat="45.32608" lon="5.88021">
        <ele>1328.4489746094</ele>
        <time>2017-10-21T07:36:59Z</time>
      </trkpt>
      <trkpt lat="45.32604" lon="5.88025">
        <ele>1329.4489746094</ele>
        <time>2017-10-21T07:37:08Z</time>
      </trkpt>
      <trkpt lat="45.32599" lon="5.88031">
        <ele>1333.4489746094</ele>
        <time>2017-10-21T07:37:14Z</time>
      </trkpt>
      <trkpt lat="45.32596" lon="5.88036">
        <ele>1332.4489746094</ele>
        <time>2017-10-21T07:37:18Z</time>
      </trkpt>
      <trkpt lat="45.32591" lon="5.8804">
        <ele>1331.4489746094</ele>
        <time>2017-10-21T07:37:26Z</time>
      </trkpt>
      <trkpt lat="45.32587" lon="5.88044">
        <ele>1329.4489746094</ele>
        <time>2017-10-21T07:37:31Z</time>
      </trkpt>
      <trkpt lat="45.32584" lon="5.88051">
        <ele>1327.4489746094</ele>
        <time>2017-10-21T07:37:38Z</time>
      </trkpt>
      <trkpt lat="45.32583" lon="5.88058">
        <ele>1325.4489746094</ele>
        <time>2017-10-21T07:37:42Z</time>
      </trkpt>
      <trkpt lat="45.3258" lon="5.88065">
        <ele>1324.4489746094</ele>
        <time>2017-10-21T07:37:45Z</time>
      </trkpt>
      <trkpt lat="45.32577" lon="5.88073">
        <ele>1321.4489746094</ele>
        <time>2017-10-21T07:37:51Z</time>
      </trkpt>
      <trkpt lat="45.32574" lon="5.88078">
        <ele>1315.4489746094</ele>
        <time>2017-10-21T07:38:02Z</time>
      </trkpt>
      <trkpt lat="45.32569" lon="5.88077">
        <ele>1315.4489746094</ele>
        <time>2017-10-21T07:38:07Z</time>
      </trkpt>
      <trkpt lat="45.32564" lon="5.88078">
        <ele>1312.4489746094</ele>
        <time>2017-10-21T07:38:13Z</time>
      </trkpt>
      <trkpt lat="45.32559" lon="5.8808">
        <ele>1310.4489746094</ele>
        <time>2017-10-21T07:38:17Z</time>
      </trkpt>
      <trkpt lat="45.32555" lon="5.88083">
        <ele>1308.4489746094</ele>
        <time>2017-10-21T07:38:21Z</time>
      </trkpt>
      <trkpt lat="45.32552" lon="5.88088">
        <ele>1307.4489746094</ele>
        <time>2017-10-21T07:38:25Z</time>
      </trkpt>
      <trkpt lat="45.3255" lon="5.88095">
        <ele>1297.4489746094</ele>
        <time>2017-10-21T07:38:31Z</time>
      </trkpt>
      <trkpt lat="45.32549" lon="5.88101">
        <ele>1297.4489746094</ele>
        <time>2017-10-21T07:38:38Z</time>
      </trkpt>
      <trkpt lat="45.3255" lon="5.88107">
        <ele>1295.4489746094</ele>
        <time>2017-10-21T07:38:43Z</time>
      </trkpt>
      <trkpt lat="45.32553" lon="5.88112">
        <ele>1290.4489746094</ele>
        <time>2017-10-21T07:38:53Z</time>
      </trkpt>
      <trkpt lat="45.32552" lon="5.88118">
        <ele>1289.4489746094</ele>
        <time>2017-10-21T07:38:57Z</time>
      </trkpt>
      <trkpt lat="45.32549" lon="5.88126">
        <ele>1293.4489746094</ele>
        <time>2017-10-21T07:39:00Z</time>
      </trkpt>
      <trkpt lat="45.32547" lon="5.88132">
        <ele>1295.4489746094</ele>
        <time>2017-10-21T07:39:03Z</time>
      </trkpt>
      <trkpt lat="45.32544" lon="5.88138">
        <ele>1296.4489746094</ele>
        <time>2017-10-21T07:39:07Z</time>
      </trkpt>
      <trkpt lat="45.3254" lon="5.88145">
        <ele>1297.4489746094</ele>
        <time>2017-10-21T07:39:10Z</time>
      </trkpt>
      <trkpt lat="45.32537" lon="5.88153">
        <ele>1298.4489746094</ele>
        <time>2017-10-21T07:39:13Z</time>
      </trkpt>
      <trkpt lat="45.32534" lon="5.88159">
        <ele>1293.4489746094</ele>
        <time>2017-10-21T07:39:15Z</time>
      </trkpt>
      <trkpt lat="45.32529" lon="5.88164">
        <ele>1289.4489746094</ele>
        <time>2017-10-21T07:39:18Z</time>
      </trkpt>
      <trkpt lat="45.32525" lon="5.88173">
        <ele>1288.4489746094</ele>
        <time>2017-10-21T07:39:22Z</time>
      </trkpt>
      <trkpt lat="45.32523" lon="5.88179">
        <ele>1287.4489746094</ele>
        <time>2017-10-21T07:39:24Z</time>
      </trkpt>
      <trkpt lat="45.3252" lon="5.88187">
        <ele>1286.4489746094</ele>
        <time>2017-10-21T07:39:27Z</time>
      </trkpt>
      <trkpt lat="45.32518" lon="5.88193">
        <ele>1284.4489746094</ele>
        <time>2017-10-21T07:39:31Z</time>
      </trkpt>
      <trkpt lat="45.32516" lon="5.88199">
        <ele>1283.4489746094</ele>
        <time>2017-10-21T07:39:35Z</time>
      </trkpt>
      <trkpt lat="45.32512" lon="5.88206">
        <ele>1281.4489746094</ele>
        <time>2017-10-21T07:39:39Z</time>
      </trkpt>
      <trkpt lat="45.32509" lon="5.88213">
        <ele>1281.4489746094</ele>
        <time>2017-10-21T07:39:42Z</time>
      </trkpt>
      <trkpt lat="45.32507" lon="5.88219">
        <ele>1281.4489746094</ele>
        <time>2017-10-21T07:39:44Z</time>
      </trkpt>
      <trkpt lat="45.32503" lon="5.88225">
        <ele>1280.4489746094</ele>
        <time>2017-10-21T07:39:47Z</time>
      </trkpt>
      <trkpt lat="45.325" lon="5.8823">
        <ele>1279.4489746094</ele>
        <time>2017-10-21T07:39:50Z</time>
      </trkpt>
      <trkpt lat="45.32497" lon="5.88236">
        <ele>1277.4489746094</ele>
        <time>2017-10-21T07:39:53Z</time>
      </trkpt>
      <trkpt lat="45.32494" lon="5.88242">
        <ele>1278.4489746094</ele>
        <time>2017-10-21T07:39:56Z</time>
      </trkpt>
      <trkpt lat="45.32491" lon="5.88247">
        <ele>1278.4489746094</ele>
        <time>2017-10-21T07:39:59Z</time>
      </trkpt>
      <trkpt lat="45.32487" lon="5.88253">
        <ele>1279.4489746094</ele>
        <time>2017-10-21T07:40:02Z</time>
      </trkpt>
      <trkpt lat="45.32484" lon="5.88258">
        <ele>1279.4489746094</ele>
        <time>2017-10-21T07:40:05Z</time>
      </trkpt>
      <trkpt lat="45.32482" lon="5.88266">
        <ele>1280.4489746094</ele>
        <time>2017-10-21T07:40:09Z</time>
      </trkpt>
      <trkpt lat="45.3248" lon="5.88274">
        <ele>1280.4489746094</ele>
        <time>2017-10-21T07:40:13Z</time>
      </trkpt>
      <trkpt lat="45.3248" lon="5.88281">
        <ele>1278.4489746094</ele>
        <time>2017-10-21T07:40:17Z</time>
      </trkpt>
      <trkpt lat="45.32481" lon="5.88289">
        <ele>1276.4489746094</ele>
        <time>2017-10-21T07:40:22Z</time>
      </trkpt>
      <trkpt lat="45.32481" lon="5.88297">
        <ele>1272.4489746094</ele>
        <time>2017-10-21T07:40:30Z</time>
      </trkpt>
      <trkpt lat="45.32481" lon="5.88304">
        <ele>1271.4489746094</ele>
        <time>2017-10-21T07:40:38Z</time>
      </trkpt>
      <trkpt lat="45.3248" lon="5.88311">
        <ele>1270.4489746094</ele>
        <time>2017-10-21T07:40:42Z</time>
      </trkpt>
      <trkpt lat="45.32478" lon="5.88319">
        <ele>1272.4489746094</ele>
        <time>2017-10-21T07:40:46Z</time>
      </trkpt>
      <trkpt lat="45.32479" lon="5.88326">
        <ele>1268.4489746094</ele>
        <time>2017-10-21T07:40:50Z</time>
      </trkpt>
      <trkpt lat="45.32481" lon="5.88334">
        <ele>1266.4489746094</ele>
        <time>2017-10-21T07:40:54Z</time>
      </trkpt>
      <trkpt lat="45.32483" lon="5.88342">
        <ele>1266.4489746094</ele>
        <time>2017-10-21T07:40:58Z</time>
      </trkpt>
      <trkpt lat="45.32481" lon="5.88348">
        <ele>1264.4489746094</ele>
        <time>2017-10-21T07:41:06Z</time>
      </trkpt>
      <trkpt lat="45.3248" lon="5.88357">
        <ele>1265.4489746094</ele>
        <time>2017-10-21T07:41:10Z</time>
      </trkpt>
      <trkpt lat="45.32482" lon="5.88364">
        <ele>1273.4489746094</ele>
        <time>2017-10-21T07:41:13Z</time>
      </trkpt>
      <trkpt lat="45.32482" lon="5.88371">
        <ele>1268.4489746094</ele>
        <time>2017-10-21T07:41:16Z</time>
      </trkpt>
      <trkpt lat="45.32483" lon="5.88378">
        <ele>1266.4489746094</ele>
        <time>2017-10-21T07:41:19Z</time>
      </trkpt>
      <trkpt lat="45.32484" lon="5.88385">
        <ele>1264.4489746094</ele>
        <time>2017-10-21T07:41:22Z</time>
      </trkpt>
      <trkpt lat="45.32483" lon="5.88392">
        <ele>1261.4489746094</ele>
        <time>2017-10-21T07:41:25Z</time>
      </trkpt>
      <trkpt lat="45.32481" lon="5.88399">
        <ele>1257.4489746094</ele>
        <time>2017-10-21T07:41:30Z</time>
      </trkpt>
      <trkpt lat="45.32475" lon="5.88411">
        <ele>1251.4489746094</ele>
        <time>2017-10-21T07:41:34Z</time>
      </trkpt>
      <trkpt lat="45.32471" lon="5.88416">
        <ele>1249.4489746094</ele>
        <time>2017-10-21T07:41:37Z</time>
      </trkpt>
      <trkpt lat="45.32464" lon="5.88417">
        <ele>1247.4489746094</ele>
        <time>2017-10-21T07:41:41Z</time>
      </trkpt>
      <trkpt lat="45.32458" lon="5.88419">
        <ele>1246.4489746094</ele>
        <time>2017-10-21T07:41:44Z</time>
      </trkpt>
      <trkpt lat="45.32454" lon="5.88423">
        <ele>1245.4489746094</ele>
        <time>2017-10-21T07:41:46Z</time>
      </trkpt>
      <trkpt lat="45.32448" lon="5.88426">
        <ele>1244.4489746094</ele>
        <time>2017-10-21T07:41:49Z</time>
      </trkpt>
      <trkpt lat="45.32443" lon="5.88427">
        <ele>1244.4489746094</ele>
        <time>2017-10-21T07:41:53Z</time>
      </trkpt>
      <trkpt lat="45.32437" lon="5.8843">
        <ele>1243.4489746094</ele>
        <time>2017-10-21T07:41:56Z</time>
      </trkpt>
      <trkpt lat="45.32433" lon="5.88433">
        <ele>1242.4489746094</ele>
        <time>2017-10-21T07:41:58Z</time>
      </trkpt>
      <trkpt lat="45.32428" lon="5.88435">
        <ele>1241.4489746094</ele>
        <time>2017-10-21T07:42:00Z</time>
      </trkpt>
      <trkpt lat="45.32423" lon="5.88434">
        <ele>1239.4489746094</ele>
        <time>2017-10-21T07:42:03Z</time>
      </trkpt>
      <trkpt lat="45.32419" lon="5.88434">
        <ele>1238.4489746094</ele>
        <time>2017-10-21T07:42:06Z</time>
      </trkpt>
      <trkpt lat="45.32414" lon="5.88436">
        <ele>1239.4489746094</ele>
        <time>2017-10-21T07:42:09Z</time>
      </trkpt>
      <trkpt lat="45.32409" lon="5.88435">
        <ele>1236.4489746094</ele>
        <time>2017-10-21T07:42:11Z</time>
      </trkpt>
      <trkpt lat="45.32403" lon="5.88435">
        <ele>1238.4489746094</ele>
        <time>2017-10-21T07:42:14Z</time>
      </trkpt>
      <trkpt lat="45.32398" lon="5.88435">
        <ele>1237.4489746094</ele>
        <time>2017-10-21T07:42:18Z</time>
      </trkpt>
      <trkpt lat="45.32392" lon="5.8844">
        <ele>1240.4489746094</ele>
        <time>2017-10-21T07:42:22Z</time>
      </trkpt>
      <trkpt lat="45.32387" lon="5.88441">
        <ele>1237.4489746094</ele>
        <time>2017-10-21T07:42:25Z</time>
      </trkpt>
      <trkpt lat="45.32383" lon="5.88445">
        <ele>1236.4489746094</ele>
        <time>2017-10-21T07:42:28Z</time>
      </trkpt>
      <trkpt lat="45.32377" lon="5.88446">
        <ele>1234.4489746094</ele>
        <time>2017-10-21T07:42:31Z</time>
      </trkpt>
      <trkpt lat="45.32372" lon="5.88447">
        <ele>1235.4489746094</ele>
        <time>2017-10-21T07:42:33Z</time>
      </trkpt>
      <trkpt lat="45.32365" lon="5.88449">
        <ele>1233.4489746094</ele>
        <time>2017-10-21T07:42:36Z</time>
      </trkpt>
      <trkpt lat="45.3236" lon="5.88448">
        <ele>1231.4489746094</ele>
        <time>2017-10-21T07:42:38Z</time>
      </trkpt>
      <trkpt lat="45.32354" lon="5.8845">
        <ele>1231.4489746094</ele>
        <time>2017-10-21T07:42:40Z</time>
      </trkpt>
      <trkpt lat="45.32349" lon="5.88452">
        <ele>1229.4489746094</ele>
        <time>2017-10-21T07:42:43Z</time>
      </trkpt>
      <trkpt lat="45.32343" lon="5.88453">
        <ele>1120.4489746094</ele>
        <time>2017-10-21T07:42:45Z</time>
      </trkpt>
      <trkpt lat="45.32338" lon="5.88453">
        <ele>1160.4489746094</ele>
        <time>2017-10-21T07:42:47Z</time>
      </trkpt>
      <trkpt lat="45.32333" lon="5.88452">
        <ele>1199.4489746094</ele>
        <time>2017-10-21T07:42:50Z</time>
      </trkpt>
      <trkpt lat="45.32327" lon="5.88449">
        <ele>1212.4489746094</ele>
        <time>2017-10-21T07:42:53Z</time>
      </trkpt>
      <trkpt lat="45.32322" lon="5.8845">
        <ele>1215.4489746094</ele>
        <time>2017-10-21T07:42:57Z</time>
      </trkpt>
      <trkpt lat="45.32317" lon="5.88446">
        <ele>1213.4489746094</ele>
        <time>2017-10-21T07:43:01Z</time>
      </trkpt>
      <trkpt lat="45.32312" lon="5.88443">
        <ele>1208.4489746094</ele>
        <time>2017-10-21T07:43:05Z</time>
      </trkpt>
      <trkpt lat="45.32309" lon="5.88436">
        <ele>1202.4489746094</ele>
        <time>2017-10-21T07:43:12Z</time>
      </trkpt>
      <trkpt lat="45.32305" lon="5.8843">
        <ele>1203.4489746094</ele>
        <time>2017-10-21T07:43:14Z</time>
      </trkpt>
      <trkpt lat="45.32302" lon="5.88425">
        <ele>1202.4489746094</ele>
        <time>2017-10-21T07:43:17Z</time>
      </trkpt>
      <trkpt lat="45.32298" lon="5.88417">
        <ele>1199.4489746094</ele>
        <time>2017-10-21T07:43:19Z</time>
      </trkpt>
      <trkpt lat="45.32296" lon="5.88407">
        <ele>1196.4489746094</ele>
        <time>2017-10-21T07:43:22Z</time>
      </trkpt>
      <trkpt lat="45.32298" lon="5.884">
        <ele>1195.4489746094</ele>
        <time>2017-10-21T07:43:26Z</time>
      </trkpt>
      <trkpt lat="45.32298" lon="5.88391">
        <ele>1193.4489746094</ele>
        <time>2017-10-21T07:43:31Z</time>
      </trkpt>
      <trkpt lat="45.32299" lon="5.88384">
        <ele>1192.4489746094</ele>
        <time>2017-10-21T07:43:33Z</time>
      </trkpt>
      <trkpt lat="45.32298" lon="5.88376">
        <ele>1190.4489746094</ele>
        <time>2017-10-21T07:43:36Z</time>
      </trkpt>
      <trkpt lat="45.32298" lon="5.88368">
        <ele>1188.4489746094</ele>
        <time>2017-10-21T07:43:38Z</time>
      </trkpt>
      <trkpt lat="45.32298" lon="5.88361">
        <ele>1187.4489746094</ele>
        <time>2017-10-21T07:43:40Z</time>
      </trkpt>
      <trkpt lat="45.32298" lon="5.88353">
        <ele>1186.4489746094</ele>
        <time>2017-10-21T07:43:43Z</time>
      </trkpt>
      <trkpt lat="45.32298" lon="5.88344">
        <ele>1182.4489746094</ele>
        <time>2017-10-21T07:43:45Z</time>
      </trkpt>
      <trkpt lat="45.32298" lon="5.88337">
        <ele>1180.4489746094</ele>
        <time>2017-10-21T07:43:47Z</time>
      </trkpt>
      <trkpt lat="45.32296" lon="5.88331">
        <ele>1181.4489746094</ele>
        <time>2017-10-21T07:43:49Z</time>
      </trkpt>
      <trkpt lat="45.32296" lon="5.88322">
        <ele>1183.4489746094</ele>
        <time>2017-10-21T07:43:51Z</time>
      </trkpt>
      <trkpt lat="45.32294" lon="5.88313">
        <ele>1183.4489746094</ele>
        <time>2017-10-21T07:43:53Z</time>
      </trkpt>
      <trkpt lat="45.32293" lon="5.88304">
        <ele>1184.4489746094</ele>
        <time>2017-10-21T07:43:56Z</time>
      </trkpt>
      <trkpt lat="45.32295" lon="5.88297">
        <ele>1182.4489746094</ele>
        <time>2017-10-21T07:43:59Z</time>
      </trkpt>
      <trkpt lat="45.32294" lon="5.8829">
        <ele>1182.4489746094</ele>
        <time>2017-10-21T07:44:01Z</time>
      </trkpt>
      <trkpt lat="45.32295" lon="5.88281">
        <ele>1181.4489746094</ele>
        <time>2017-10-21T07:44:04Z</time>
      </trkpt>
      <trkpt lat="45.32298" lon="5.88273">
        <ele>1177.4489746094</ele>
        <time>2017-10-21T07:44:08Z</time>
      </trkpt>
      <trkpt lat="45.32299" lon="5.88266">
        <ele>1177.4489746094</ele>
        <time>2017-10-21T07:44:11Z</time>
      </trkpt>
      <trkpt lat="45.32302" lon="5.8826">
        <ele>1175.4489746094</ele>
        <time>2017-10-21T07:44:15Z</time>
      </trkpt>
      <trkpt lat="45.323" lon="5.88251">
        <ele>1173.4489746094</ele>
        <time>2017-10-21T07:44:17Z</time>
      </trkpt>
      <trkpt lat="45.323" lon="5.88244">
        <ele>1171.4489746094</ele>
        <time>2017-10-21T07:44:19Z</time>
      </trkpt>
      <trkpt lat="45.323" lon="5.88235">
        <ele>1170.4489746094</ele>
        <time>2017-10-21T07:44:21Z</time>
      </trkpt>
      <trkpt lat="45.32299" lon="5.88227">
        <ele>1170.4489746094</ele>
        <time>2017-10-21T07:44:23Z</time>
      </trkpt>
      <trkpt lat="45.32298" lon="5.8822">
        <ele>1169.4489746094</ele>
        <time>2017-10-21T07:44:25Z</time>
      </trkpt>
      <trkpt lat="45.32296" lon="5.88211">
        <ele>1170.4489746094</ele>
        <time>2017-10-21T07:44:27Z</time>
      </trkpt>
      <trkpt lat="45.32296" lon="5.88204">
        <ele>1169.4489746094</ele>
        <time>2017-10-21T07:44:29Z</time>
      </trkpt>
      <trkpt lat="45.32296" lon="5.88197">
        <ele>1168.4489746094</ele>
        <time>2017-10-21T07:44:31Z</time>
      </trkpt>
      <trkpt lat="45.32294" lon="5.88191">
        <ele>1168.4489746094</ele>
        <time>2017-10-21T07:44:33Z</time>
      </trkpt>
      <trkpt lat="45.32291" lon="5.88183">
        <ele>1171.4489746094</ele>
        <time>2017-10-21T07:44:36Z</time>
      </trkpt>
      <trkpt lat="45.32287" lon="5.88176">
        <ele>1172.4489746094</ele>
        <time>2017-10-21T07:44:38Z</time>
      </trkpt>
      <trkpt lat="45.32285" lon="5.88169">
        <ele>1172.4489746094</ele>
        <time>2017-10-21T07:44:41Z</time>
      </trkpt>
      <trkpt lat="45.32281" lon="5.88165">
        <ele>1168.4489746094</ele>
        <time>2017-10-21T07:44:44Z</time>
      </trkpt>
      <trkpt lat="45.32278" lon="5.88156">
        <ele>1166.4489746094</ele>
        <time>2017-10-21T07:44:47Z</time>
      </trkpt>
      <trkpt lat="45.32274" lon="5.88151">
        <ele>1166.4489746094</ele>
        <time>2017-10-21T07:44:49Z</time>
      </trkpt>
      <trkpt lat="45.3227" lon="5.88146">
        <ele>1165.4489746094</ele>
        <time>2017-10-21T07:44:52Z</time>
      </trkpt>
      <trkpt lat="45.32265" lon="5.88139">
        <ele>1164.4489746094</ele>
        <time>2017-10-21T07:44:56Z</time>
      </trkpt>
      <trkpt lat="45.32259" lon="5.88136">
        <ele>1163.4489746094</ele>
        <time>2017-10-21T07:44:59Z</time>
      </trkpt>
      <trkpt lat="45.32254" lon="5.88134">
        <ele>1161.4489746094</ele>
        <time>2017-10-21T07:45:02Z</time>
      </trkpt>
      <trkpt lat="45.3225" lon="5.88132">
        <ele>1161.4489746094</ele>
        <time>2017-10-21T07:45:04Z</time>
      </trkpt>
      <trkpt lat="45.32243" lon="5.88129">
        <ele>1160.4489746094</ele>
        <time>2017-10-21T07:45:07Z</time>
      </trkpt>
      <trkpt lat="45.32237" lon="5.88125">
        <ele>1159.4489746094</ele>
        <time>2017-10-21T07:45:10Z</time>
      </trkpt>
      <trkpt lat="45.32232" lon="5.88124">
        <ele>1158.4489746094</ele>
        <time>2017-10-21T07:45:12Z</time>
      </trkpt>
      <trkpt lat="45.32227" lon="5.88122">
        <ele>1160.4489746094</ele>
        <time>2017-10-21T07:45:14Z</time>
      </trkpt>
      <trkpt lat="45.32222" lon="5.88124">
        <ele>1159.4489746094</ele>
        <time>2017-10-21T07:45:16Z</time>
      </trkpt>
      <trkpt lat="45.32218" lon="5.88126">
        <ele>1159.4489746094</ele>
        <time>2017-10-21T07:45:18Z</time>
      </trkpt>
      <trkpt lat="45.32213" lon="5.8813">
        <ele>1159.4489746094</ele>
        <time>2017-10-21T07:45:20Z</time>
      </trkpt>
      <trkpt lat="45.32208" lon="5.88129">
        <ele>1157.4489746094</ele>
        <time>2017-10-21T07:45:26Z</time>
      </trkpt>
      <trkpt lat="45.32202" lon="5.88132">
        <ele>1156.4489746094</ele>
        <time>2017-10-21T07:45:31Z</time>
      </trkpt>
      <trkpt lat="45.32198" lon="5.88132">
        <ele>1153.4489746094</ele>
        <time>2017-10-21T07:45:35Z</time>
      </trkpt>
      <trkpt lat="45.32193" lon="5.8813">
        <ele>1148.4479980469</ele>
        <time>2017-10-21T07:45:40Z</time>
      </trkpt>
      <trkpt lat="45.32187" lon="5.88133">
        <ele>1146.4479980469</ele>
        <time>2017-10-21T07:45:44Z</time>
      </trkpt>
      <trkpt lat="45.32182" lon="5.88132">
        <ele>1142.4479980469</ele>
        <time>2017-10-21T07:45:48Z</time>
      </trkpt>
      <trkpt lat="45.32177" lon="5.88131">
        <ele>1139.4479980469</ele>
        <time>2017-10-21T07:45:53Z</time>
      </trkpt>
      <trkpt lat="45.32172" lon="5.88133">
        <ele>1139.4479980469</ele>
        <time>2017-10-21T07:45:57Z</time>
      </trkpt>
      <trkpt lat="45.32167" lon="5.88132">
        <ele>1137.4479980469</ele>
        <time>2017-10-21T07:46:02Z</time>
      </trkpt>
      <trkpt lat="45.32162" lon="5.88131">
        <ele>1134.4479980469</ele>
        <time>2017-10-21T07:46:06Z</time>
      </trkpt>
      <trkpt lat="45.32157" lon="5.88133">
        <ele>1134.4479980469</ele>
        <time>2017-10-21T07:46:09Z</time>
      </trkpt>
      <trkpt lat="45.3215" lon="5.88133">
        <ele>1133.4479980469</ele>
        <time>2017-10-21T07:46:13Z</time>
      </trkpt>
      <trkpt lat="45.32145" lon="5.88135">
        <ele>1131.4479980469</ele>
        <time>2017-10-21T07:46:18Z</time>
      </trkpt>
      <trkpt lat="45.3214" lon="5.88135">
        <ele>1130.4479980469</ele>
        <time>2017-10-21T07:46:23Z</time>
      </trkpt>
      <trkpt lat="45.32136" lon="5.88141">
        <ele>1131.4479980469</ele>
        <time>2017-10-21T07:46:27Z</time>
      </trkpt>
      <trkpt lat="45.32133" lon="5.88146">
        <ele>1130.4479980469</ele>
        <time>2017-10-21T07:46:31Z</time>
      </trkpt>
      <trkpt lat="45.32129" lon="5.88151">
        <ele>1127.4479980469</ele>
        <time>2017-10-21T07:46:37Z</time>
      </trkpt>
      <trkpt lat="45.32126" lon="5.88158">
        <ele>1128.4479980469</ele>
        <time>2017-10-21T07:46:40Z</time>
      </trkpt>
      <trkpt lat="45.32123" lon="5.88163">
        <ele>1128.4479980469</ele>
        <time>2017-10-21T07:46:50Z</time>
      </trkpt>
      <trkpt lat="45.3212" lon="5.88174">
        <ele>1124.4479980469</ele>
        <time>2017-10-21T07:46:55Z</time>
      </trkpt>
      <trkpt lat="45.32118" lon="5.88179">
        <ele>1124.4479980469</ele>
        <time>2017-10-21T07:46:58Z</time>
      </trkpt>
      <trkpt lat="45.32116" lon="5.88186">
        <ele>1125.4479980469</ele>
        <time>2017-10-21T07:47:02Z</time>
      </trkpt>
      <trkpt lat="45.32114" lon="5.88192">
        <ele>1125.4479980469</ele>
        <time>2017-10-21T07:47:07Z</time>
      </trkpt>
      <trkpt lat="45.32111" lon="5.88197">
        <ele>1120.4479980469</ele>
        <time>2017-10-21T07:47:11Z</time>
      </trkpt>
      <trkpt lat="45.32108" lon="5.88203">
        <ele>1119.4479980469</ele>
        <time>2017-10-21T07:47:14Z</time>
      </trkpt>
      <trkpt lat="45.32104" lon="5.88208">
        <ele>1116.4479980469</ele>
        <time>2017-10-21T07:47:18Z</time>
      </trkpt>
      <trkpt lat="45.321" lon="5.88215">
        <ele>1118.4479980469</ele>
        <time>2017-10-21T07:47:21Z</time>
      </trkpt>
      <trkpt lat="45.32096" lon="5.88221">
        <ele>1117.4479980469</ele>
        <time>2017-10-21T07:47:24Z</time>
      </trkpt>
      <trkpt lat="45.32093" lon="5.88227">
        <ele>1114.4479980469</ele>
        <time>2017-10-21T07:47:28Z</time>
      </trkpt>
      <trkpt lat="45.32087" lon="5.88239">
        <ele>1112.4479980469</ele>
        <time>2017-10-21T07:47:32Z</time>
      </trkpt>
      <trkpt lat="45.32084" lon="5.88246">
        <ele>1110.4479980469</ele>
        <time>2017-10-21T07:47:35Z</time>
      </trkpt>
      <trkpt lat="45.3208" lon="5.88252">
        <ele>1108.4479980469</ele>
        <time>2017-10-21T07:47:38Z</time>
      </trkpt>
      <trkpt lat="45.32077" lon="5.88257">
        <ele>1105.4479980469</ele>
        <time>2017-10-21T07:47:44Z</time>
      </trkpt>
      <trkpt lat="45.32073" lon="5.88263">
        <ele>1103.4479980469</ele>
        <time>2017-10-21T07:47:47Z</time>
      </trkpt>
      <trkpt lat="45.32069" lon="5.88266">
        <ele>1098.4479980469</ele>
        <time>2017-10-21T07:47:49Z</time>
      </trkpt>
      <trkpt lat="45.32063" lon="5.88265">
        <ele>1092.4479980469</ele>
        <time>2017-10-21T07:47:51Z</time>
      </trkpt>
      <trkpt lat="45.32059" lon="5.88262">
        <ele>1087.4479980469</ele>
        <time>2017-10-21T07:47:55Z</time>
      </trkpt>
      <trkpt lat="45.32055" lon="5.88257">
        <ele>1082.4479980469</ele>
        <time>2017-10-21T07:47:59Z</time>
      </trkpt>
      <trkpt lat="45.32052" lon="5.88252">
        <ele>1083.4479980469</ele>
        <time>2017-10-21T07:48:03Z</time>
      </trkpt>
      <trkpt lat="45.32048" lon="5.88247">
        <ele>1079.4479980469</ele>
        <time>2017-10-21T07:48:08Z</time>
      </trkpt>
      <trkpt lat="45.32043" lon="5.88247">
        <ele>1078.4479980469</ele>
        <time>2017-10-21T07:48:12Z</time>
      </trkpt>
      <trkpt lat="45.32039" lon="5.88248">
        <ele>1076.4479980469</ele>
        <time>2017-10-21T07:48:15Z</time>
      </trkpt>
      <trkpt lat="45.32034" lon="5.8825">
        <ele>1075.4479980469</ele>
        <time>2017-10-21T07:48:18Z</time>
      </trkpt>
      <trkpt lat="45.3203" lon="5.88256">
        <ele>1074.4479980469</ele>
        <time>2017-10-21T07:48:21Z</time>
      </trkpt>
      <trkpt lat="45.32026" lon="5.88263">
        <ele>1074.4479980469</ele>
        <time>2017-10-21T07:48:23Z</time>
      </trkpt>
      <trkpt lat="45.32023" lon="5.8827">
        <ele>1076.4479980469</ele>
        <time>2017-10-21T07:48:26Z</time>
      </trkpt>
      <trkpt lat="45.3202" lon="5.88275">
        <ele>1078.4479980469</ele>
        <time>2017-10-21T07:48:31Z</time>
      </trkpt>
      <trkpt lat="45.32015" lon="5.88276">
        <ele>1077.4479980469</ele>
        <time>2017-10-21T07:48:35Z</time>
      </trkpt>
      <trkpt lat="45.32011" lon="5.8828">
        <ele>1079.4479980469</ele>
        <time>2017-10-21T07:48:39Z</time>
      </trkpt>
      <trkpt lat="45.32005" lon="5.88286">
        <ele>1079.4479980469</ele>
        <time>2017-10-21T07:48:42Z</time>
      </trkpt>
      <trkpt lat="45.31999" lon="5.88288">
        <ele>1077.4479980469</ele>
        <time>2017-10-21T07:48:46Z</time>
      </trkpt>
      <trkpt lat="45.31993" lon="5.88288">
        <ele>1075.4479980469</ele>
        <time>2017-10-21T07:48:50Z</time>
      </trkpt>
      <trkpt lat="45.31988" lon="5.88286">
        <ele>1072.4479980469</ele>
        <time>2017-10-21T07:48:52Z</time>
      </trkpt>
      <trkpt lat="45.31983" lon="5.8828">
        <ele>1071.4479980469</ele>
        <time>2017-10-21T07:48:55Z</time>
      </trkpt>
      <trkpt lat="45.31979" lon="5.88283">
        <ele>1075.4479980469</ele>
        <time>2017-10-21T07:48:58Z</time>
      </trkpt>
      <trkpt lat="45.31973" lon="5.88287">
        <ele>1075.4479980469</ele>
        <time>2017-10-21T07:49:02Z</time>
      </trkpt>
      <trkpt lat="45.31969" lon="5.88291">
        <ele>1073.4479980469</ele>
        <time>2017-10-21T07:49:05Z</time>
      </trkpt>
      <trkpt lat="45.31965" lon="5.883">
        <ele>1074.4479980469</ele>
        <time>2017-10-21T07:49:08Z</time>
      </trkpt>
      <trkpt lat="45.31961" lon="5.88303">
        <ele>1073.4479980469</ele>
        <time>2017-10-21T07:49:10Z</time>
      </trkpt>
      <trkpt lat="45.31958" lon="5.88308">
        <ele>1071.4479980469</ele>
        <time>2017-10-21T07:49:12Z</time>
      </trkpt>
      <trkpt lat="45.31953" lon="5.88313">
        <ele>1069.4479980469</ele>
        <time>2017-10-21T07:49:16Z</time>
      </trkpt>
      <trkpt lat="45.31949" lon="5.88317">
        <ele>1068.4479980469</ele>
        <time>2017-10-21T07:49:22Z</time>
      </trkpt>
      <trkpt lat="45.31945" lon="5.88323">
        <ele>1065.4479980469</ele>
        <time>2017-10-21T07:49:26Z</time>
      </trkpt>
      <trkpt lat="45.3194" lon="5.88329">
        <ele>1063.4479980469</ele>
        <time>2017-10-21T07:49:29Z</time>
      </trkpt>
      <trkpt lat="45.31937" lon="5.88334">
        <ele>1065.4479980469</ele>
        <time>2017-10-21T07:49:32Z</time>
      </trkpt>
      <trkpt lat="45.31932" lon="5.88339">
        <ele>1063.4479980469</ele>
        <time>2017-10-21T07:49:36Z</time>
      </trkpt>
      <trkpt lat="45.31926" lon="5.88341">
        <ele>1065.4479980469</ele>
        <time>2017-10-21T07:49:40Z</time>
      </trkpt>
      <trkpt lat="45.31922" lon="5.88344">
        <ele>1062.4479980469</ele>
        <time>2017-10-21T07:49:45Z</time>
      </trkpt>
      <trkpt lat="45.31916" lon="5.88349">
        <ele>1061.4479980469</ele>
        <time>2017-10-21T07:49:49Z</time>
      </trkpt>
      <trkpt lat="45.31912" lon="5.88354">
        <ele>1059.4479980469</ele>
        <time>2017-10-21T07:49:52Z</time>
      </trkpt>
      <trkpt lat="45.31906" lon="5.8836">
        <ele>1059.4479980469</ele>
        <time>2017-10-21T07:49:55Z</time>
      </trkpt>
      <trkpt lat="45.31902" lon="5.88366">
        <ele>1058.4479980469</ele>
        <time>2017-10-21T07:49:57Z</time>
      </trkpt>
      <trkpt lat="45.31899" lon="5.88372">
        <ele>1058.4479980469</ele>
        <time>2017-10-21T07:50:00Z</time>
      </trkpt>
      <trkpt lat="45.31895" lon="5.88377">
        <ele>1058.4479980469</ele>
        <time>2017-10-21T07:50:03Z</time>
      </trkpt>
      <trkpt lat="45.31892" lon="5.88384">
        <ele>1059.4479980469</ele>
        <time>2017-10-21T07:50:06Z</time>
      </trkpt>
      <trkpt lat="45.31888" lon="5.88391">
        <ele>1058.4479980469</ele>
        <time>2017-10-21T07:50:09Z</time>
      </trkpt>
      <trkpt lat="45.31886" lon="5.88397">
        <ele>1057.4479980469</ele>
        <time>2017-10-21T07:50:12Z</time>
      </trkpt>
      <trkpt lat="45.31882" lon="5.88402">
        <ele>1058.4479980469</ele>
        <time>2017-10-21T07:50:14Z</time>
      </trkpt>
      <trkpt lat="45.31879" lon="5.88408">
        <ele>1054.4479980469</ele>
        <time>2017-10-21T07:50:18Z</time>
      </trkpt>
      <trkpt lat="45.31874" lon="5.88408">
        <ele>1052.4479980469</ele>
        <time>2017-10-21T07:50:25Z</time>
      </trkpt>
      <trkpt lat="45.3187" lon="5.88413">
        <ele>1048.4479980469</ele>
        <time>2017-10-21T07:50:29Z</time>
      </trkpt>
      <trkpt lat="45.31865" lon="5.88416">
        <ele>1047.4479980469</ele>
        <time>2017-10-21T07:50:32Z</time>
      </trkpt>
      <trkpt lat="45.31861" lon="5.88421">
        <ele>1046.4479980469</ele>
        <time>2017-10-21T07:50:35Z</time>
      </trkpt>
      <trkpt lat="45.31855" lon="5.88423">
        <ele>1044.4479980469</ele>
        <time>2017-10-21T07:50:38Z</time>
      </trkpt>
      <trkpt lat="45.3185" lon="5.88426">
        <ele>1045.4479980469</ele>
        <time>2017-10-21T07:50:42Z</time>
      </trkpt>
      <trkpt lat="45.31843" lon="5.88433">
        <ele>1040.4479980469</ele>
        <time>2017-10-21T07:50:48Z</time>
      </trkpt>
      <trkpt lat="45.3184" lon="5.88438">
        <ele>1040.4479980469</ele>
        <time>2017-10-21T07:50:51Z</time>
      </trkpt>
      <trkpt lat="45.31838" lon="5.88444">
        <ele>1037.4479980469</ele>
        <time>2017-10-21T07:50:56Z</time>
      </trkpt>
      <trkpt lat="45.31835" lon="5.88451">
        <ele>1039.4479980469</ele>
        <time>2017-10-21T07:50:59Z</time>
      </trkpt>
      <trkpt lat="45.31831" lon="5.88456">
        <ele>1040.4479980469</ele>
        <time>2017-10-21T07:51:06Z</time>
      </trkpt>
      <trkpt lat="45.31827" lon="5.88456">
        <ele>1036.4479980469</ele>
        <time>2017-10-21T07:51:09Z</time>
      </trkpt>
      <trkpt lat="45.31823" lon="5.88461">
        <ele>1036.4479980469</ele>
        <time>2017-10-21T07:51:12Z</time>
      </trkpt>
      <trkpt lat="45.31819" lon="5.88465">
        <ele>1035.4479980469</ele>
        <time>2017-10-21T07:51:16Z</time>
      </trkpt>
      <trkpt lat="45.31817" lon="5.88471">
        <ele>1030.4479980469</ele>
        <time>2017-10-21T07:51:19Z</time>
      </trkpt>
      <trkpt lat="45.31813" lon="5.88475">
        <ele>1026.4479980469</ele>
        <time>2017-10-21T07:51:22Z</time>
      </trkpt>
      <trkpt lat="45.3181" lon="5.88481">
        <ele>1026.4479980469</ele>
        <time>2017-10-21T07:51:24Z</time>
      </trkpt>
      <trkpt lat="45.31807" lon="5.88486">
        <ele>1024.4479980469</ele>
        <time>2017-10-21T07:51:27Z</time>
      </trkpt>
      <trkpt lat="45.31803" lon="5.88491">
        <ele>1020.4479980469</ele>
        <time>2017-10-21T07:51:31Z</time>
      </trkpt>
      <trkpt lat="45.31797" lon="5.88494">
        <ele>1019.4479980469</ele>
        <time>2017-10-21T07:51:35Z</time>
      </trkpt>
      <trkpt lat="45.31791" lon="5.88496">
        <ele>1019.4479980469</ele>
        <time>2017-10-21T07:51:38Z</time>
      </trkpt>
      <trkpt lat="45.31786" lon="5.88501">
        <ele>1019.4479980469</ele>
        <time>2017-10-21T07:51:41Z</time>
      </trkpt>
      <trkpt lat="45.31781" lon="5.88505">
        <ele>1018.4479980469</ele>
        <time>2017-10-21T07:51:45Z</time>
      </trkpt>
      <trkpt lat="45.31776" lon="5.88509">
        <ele>1016.4479980469</ele>
        <time>2017-10-21T07:51:50Z</time>
      </trkpt>
      <trkpt lat="45.31773" lon="5.88514">
        <ele>1015.4479980469</ele>
        <time>2017-10-21T07:51:53Z</time>
      </trkpt>
      <trkpt lat="45.3177" lon="5.88519">
        <ele>1017.4479980469</ele>
        <time>2017-10-21T07:51:55Z</time>
      </trkpt>
      <trkpt lat="45.31767" lon="5.88527">
        <ele>1013.4479980469</ele>
        <time>2017-10-21T07:51:59Z</time>
      </trkpt>
      <trkpt lat="45.31767" lon="5.88534">
        <ele>1013.4479980469</ele>
        <time>2017-10-21T07:52:02Z</time>
      </trkpt>
      <trkpt lat="45.31764" lon="5.88539">
        <ele>1011.4479980469</ele>
        <time>2017-10-21T07:52:04Z</time>
      </trkpt>
      <trkpt lat="45.31761" lon="5.88544">
        <ele>1009.4479980469</ele>
        <time>2017-10-21T07:52:09Z</time>
      </trkpt>
      <trkpt lat="45.31758" lon="5.88552">
        <ele>1008.4479980469</ele>
        <time>2017-10-21T07:52:15Z</time>
      </trkpt>
      <trkpt lat="45.31754" lon="5.88558">
        <ele>1007.4479980469</ele>
        <time>2017-10-21T07:52:19Z</time>
      </trkpt>
      <trkpt lat="45.31751" lon="5.88563">
        <ele>1007.4479980469</ele>
        <time>2017-10-21T07:52:21Z</time>
      </trkpt>
      <trkpt lat="45.31746" lon="5.88572">
        <ele>1004.4479980469</ele>
        <time>2017-10-21T07:52:25Z</time>
      </trkpt>
      <trkpt lat="45.31742" lon="5.88576">
        <ele>1001.4479980469</ele>
        <time>2017-10-21T07:52:28Z</time>
      </trkpt>
      <trkpt lat="45.31736" lon="5.8858">
        <ele>1000.4479980469</ele>
        <time>2017-10-21T07:52:31Z</time>
      </trkpt>
      <trkpt lat="45.31731" lon="5.88583">
        <ele>999.44799804688</ele>
        <time>2017-10-21T07:52:34Z</time>
      </trkpt>
      <trkpt lat="45.31727" lon="5.88586">
        <ele>1000.4479980469</ele>
        <time>2017-10-21T07:52:36Z</time>
      </trkpt>
      <trkpt lat="45.31722" lon="5.8859">
        <ele>999.44799804688</ele>
        <time>2017-10-21T07:52:39Z</time>
      </trkpt>
      <trkpt lat="45.31717" lon="5.88594">
        <ele>996.44799804688</ele>
        <time>2017-10-21T07:52:42Z</time>
      </trkpt>
      <trkpt lat="45.31711" lon="5.88598">
        <ele>992.44799804688</ele>
        <time>2017-10-21T07:52:45Z</time>
      </trkpt>
      <trkpt lat="45.31706" lon="5.88599">
        <ele>991.44799804688</ele>
        <time>2017-10-21T07:52:48Z</time>
      </trkpt>
      <trkpt lat="45.31701" lon="5.88603">
        <ele>991.44799804688</ele>
        <time>2017-10-21T07:52:51Z</time>
      </trkpt>
      <trkpt lat="45.31697" lon="5.88609">
        <ele>991.44799804688</ele>
        <time>2017-10-21T07:52:54Z</time>
      </trkpt>
      <trkpt lat="45.31692" lon="5.88613">
        <ele>989.44799804688</ele>
        <time>2017-10-21T07:52:57Z</time>
      </trkpt>
      <trkpt lat="45.31688" lon="5.88616">
        <ele>988.44799804688</ele>
        <time>2017-10-21T07:53:00Z</time>
      </trkpt>
      <trkpt lat="45.31683" lon="5.8862">
        <ele>986.44799804688</ele>
        <time>2017-10-21T07:53:04Z</time>
      </trkpt>
      <trkpt lat="45.31678" lon="5.88623">
        <ele>985.44799804688</ele>
        <time>2017-10-21T07:53:07Z</time>
      </trkpt>
      <trkpt lat="45.31674" lon="5.88628">
        <ele>984.44799804688</ele>
        <time>2017-10-21T07:53:10Z</time>
      </trkpt>
      <trkpt lat="45.31669" lon="5.88633">
        <ele>984.44799804688</ele>
        <time>2017-10-21T07:53:14Z</time>
      </trkpt>
      <trkpt lat="45.31665" lon="5.88637">
        <ele>983.44799804688</ele>
        <time>2017-10-21T07:53:18Z</time>
      </trkpt>
      <trkpt lat="45.31662" lon="5.88643">
        <ele>983.44799804688</ele>
        <time>2017-10-21T07:53:20Z</time>
      </trkpt>
      <trkpt lat="45.31658" lon="5.88649">
        <ele>982.44799804688</ele>
        <time>2017-10-21T07:53:23Z</time>
      </trkpt>
      <trkpt lat="45.31654" lon="5.88652">
        <ele>977.44799804688</ele>
        <time>2017-10-21T07:53:27Z</time>
      </trkpt>
      <trkpt lat="45.31649" lon="5.88655">
        <ele>977.44799804688</ele>
        <time>2017-10-21T07:53:31Z</time>
      </trkpt>
      <trkpt lat="45.31645" lon="5.88661">
        <ele>976.44799804688</ele>
        <time>2017-10-21T07:53:36Z</time>
      </trkpt>
      <trkpt lat="45.31642" lon="5.88667">
        <ele>976.44799804688</ele>
        <time>2017-10-21T07:53:40Z</time>
      </trkpt>
      <trkpt lat="45.31637" lon="5.88673">
        <ele>975.44799804688</ele>
        <time>2017-10-21T07:53:43Z</time>
      </trkpt>
      <trkpt lat="45.31633" lon="5.88675">
        <ele>976.44799804688</ele>
        <time>2017-10-21T07:53:46Z</time>
      </trkpt>
      <trkpt lat="45.31625" lon="5.88675">
        <ele>973.44799804688</ele>
        <time>2017-10-21T07:53:49Z</time>
      </trkpt>
      <trkpt lat="45.3162" lon="5.88673">
        <ele>971.44799804688</ele>
        <time>2017-10-21T07:53:52Z</time>
      </trkpt>
      <trkpt lat="45.31615" lon="5.88672">
        <ele>971.44799804688</ele>
        <time>2017-10-21T07:53:55Z</time>
      </trkpt>
      <trkpt lat="45.3161" lon="5.88668">
        <ele>972.44799804688</ele>
        <time>2017-10-21T07:53:58Z</time>
      </trkpt>
      <trkpt lat="45.31605" lon="5.88667">
        <ele>975.44799804688</ele>
        <time>2017-10-21T07:54:01Z</time>
      </trkpt>
      <trkpt lat="45.316" lon="5.88665">
        <ele>974.44799804688</ele>
        <time>2017-10-21T07:54:04Z</time>
      </trkpt>
      <trkpt lat="45.31595" lon="5.88662">
        <ele>974.44799804688</ele>
        <time>2017-10-21T07:54:07Z</time>
      </trkpt>
      <trkpt lat="45.3159" lon="5.88663">
        <ele>976.44799804688</ele>
        <time>2017-10-21T07:54:10Z</time>
      </trkpt>
      <trkpt lat="45.31585" lon="5.88662">
        <ele>974.44799804688</ele>
        <time>2017-10-21T07:54:13Z</time>
      </trkpt>
      <trkpt lat="45.31579" lon="5.88664">
        <ele>974.44799804688</ele>
        <time>2017-10-21T07:54:17Z</time>
      </trkpt>
      <trkpt lat="45.31576" lon="5.88659">
        <ele>971.44799804688</ele>
        <time>2017-10-21T07:54:20Z</time>
      </trkpt>
      <trkpt lat="45.31571" lon="5.8866">
        <ele>971.44799804688</ele>
        <time>2017-10-21T07:54:23Z</time>
      </trkpt>
      <trkpt lat="45.31566" lon="5.8866">
        <ele>974.44799804688</ele>
        <time>2017-10-21T07:54:26Z</time>
      </trkpt>
      <trkpt lat="45.31561" lon="5.8866">
        <ele>977.44799804688</ele>
        <time>2017-10-21T07:54:29Z</time>
      </trkpt>
      <trkpt lat="45.31556" lon="5.88657">
        <ele>977.44799804688</ele>
        <time>2017-10-21T07:54:33Z</time>
      </trkpt>
      <trkpt lat="45.31548" lon="5.88657">
        <ele>975.44799804688</ele>
        <time>2017-10-21T07:54:37Z</time>
      </trkpt>
      <trkpt lat="45.31543" lon="5.88657">
        <ele>974.44799804688</ele>
        <time>2017-10-21T07:54:40Z</time>
      </trkpt>
      <trkpt lat="45.31538" lon="5.88657">
        <ele>970.44799804688</ele>
        <time>2017-10-21T07:54:43Z</time>
      </trkpt>
      <trkpt lat="45.31533" lon="5.88657">
        <ele>968.44799804688</ele>
        <time>2017-10-21T07:54:46Z</time>
      </trkpt>
      <trkpt lat="45.31528" lon="5.88657">
        <ele>969.44799804688</ele>
        <time>2017-10-21T07:54:50Z</time>
      </trkpt>
      <trkpt lat="45.31523" lon="5.88659">
        <ele>969.44799804688</ele>
        <time>2017-10-21T07:54:53Z</time>
      </trkpt>
      <trkpt lat="45.31517" lon="5.8866">
        <ele>969.44799804688</ele>
        <time>2017-10-21T07:54:56Z</time>
      </trkpt>
      <trkpt lat="45.31513" lon="5.8866">
        <ele>968.44799804688</ele>
        <time>2017-10-21T07:54:59Z</time>
      </trkpt>
      <trkpt lat="45.31508" lon="5.88661">
        <ele>968.44799804688</ele>
        <time>2017-10-21T07:55:02Z</time>
      </trkpt>
      <trkpt lat="45.31502" lon="5.88661">
        <ele>970.44799804688</ele>
        <time>2017-10-21T07:55:05Z</time>
      </trkpt>
      <trkpt lat="45.31499" lon="5.88655">
        <ele>971.44799804688</ele>
        <time>2017-10-21T07:55:09Z</time>
      </trkpt>
      <trkpt lat="45.31495" lon="5.8865">
        <ele>971.44799804688</ele>
        <time>2017-10-21T07:55:12Z</time>
      </trkpt>
      <trkpt lat="45.3149" lon="5.88649">
        <ele>971.44799804688</ele>
        <time>2017-10-21T07:55:15Z</time>
      </trkpt>
      <trkpt lat="45.31485" lon="5.88646">
        <ele>971.44799804688</ele>
        <time>2017-10-21T07:55:18Z</time>
      </trkpt>
      <trkpt lat="45.3148" lon="5.88646">
        <ele>970.44799804688</ele>
        <time>2017-10-21T07:55:21Z</time>
      </trkpt>
      <trkpt lat="45.31476" lon="5.88646">
        <ele>969.44799804688</ele>
        <time>2017-10-21T07:55:24Z</time>
      </trkpt>
      <trkpt lat="45.3147" lon="5.88644">
        <ele>968.44799804688</ele>
        <time>2017-10-21T07:55:27Z</time>
      </trkpt>
      <trkpt lat="45.31465" lon="5.88643">
        <ele>965.44799804688</ele>
        <time>2017-10-21T07:55:30Z</time>
      </trkpt>
      <trkpt lat="45.3146" lon="5.88642">
        <ele>964.44799804688</ele>
        <time>2017-10-21T07:55:34Z</time>
      </trkpt>
      <trkpt lat="45.31456" lon="5.88639">
        <ele>966.44799804688</ele>
        <time>2017-10-21T07:55:38Z</time>
      </trkpt>
      <trkpt lat="45.31454" lon="5.88633">
        <ele>965.44799804688</ele>
        <time>2017-10-21T07:55:40Z</time>
      </trkpt>
      <trkpt lat="45.31449" lon="5.8863">
        <ele>967.44799804688</ele>
        <time>2017-10-21T07:55:43Z</time>
      </trkpt>
      <trkpt lat="45.31445" lon="5.88627">
        <ele>969.44799804688</ele>
        <time>2017-10-21T07:55:46Z</time>
      </trkpt>
      <trkpt lat="45.31439" lon="5.88626">
        <ele>968.44799804688</ele>
        <time>2017-10-21T07:55:49Z</time>
      </trkpt>
      <trkpt lat="45.31432" lon="5.88628">
        <ele>970.44799804688</ele>
        <time>2017-10-21T07:55:51Z</time>
      </trkpt>
      <trkpt lat="45.31426" lon="5.88628">
        <ele>972.44799804688</ele>
        <time>2017-10-21T07:55:54Z</time>
      </trkpt>
      <trkpt lat="45.31421" lon="5.88625">
        <ele>973.44799804688</ele>
        <time>2017-10-21T07:55:57Z</time>
      </trkpt>
      <trkpt lat="45.31416" lon="5.88623">
        <ele>974.44799804688</ele>
        <time>2017-10-21T07:56:00Z</time>
      </trkpt>
      <trkpt lat="45.31411" lon="5.88619">
        <ele>973.44799804688</ele>
        <time>2017-10-21T07:56:03Z</time>
      </trkpt>
      <trkpt lat="45.31407" lon="5.88615">
        <ele>973.44799804688</ele>
        <time>2017-10-21T07:56:06Z</time>
      </trkpt>
      <trkpt lat="45.31402" lon="5.88614">
        <ele>973.44799804688</ele>
        <time>2017-10-21T07:56:09Z</time>
      </trkpt>
      <trkpt lat="45.31396" lon="5.88611">
        <ele>974.44799804688</ele>
        <time>2017-10-21T07:56:12Z</time>
      </trkpt>
      <trkpt lat="45.31391" lon="5.88611">
        <ele>978.44702148438</ele>
        <time>2017-10-21T07:56:15Z</time>
      </trkpt>
      <trkpt lat="45.31386" lon="5.88612">
        <ele>980.44702148438</ele>
        <time>2017-10-21T07:56:18Z</time>
      </trkpt>
      <trkpt lat="45.31381" lon="5.8861">
        <ele>979.44702148438</ele>
        <time>2017-10-21T07:56:22Z</time>
      </trkpt>
      <trkpt lat="45.31376" lon="5.88608">
        <ele>981.44702148438</ele>
        <time>2017-10-21T07:56:26Z</time>
      </trkpt>
      <trkpt lat="45.31369" lon="5.8861">
        <ele>978.44702148438</ele>
        <time>2017-10-21T07:56:29Z</time>
      </trkpt>
      <trkpt lat="45.31364" lon="5.88611">
        <ele>976.44702148438</ele>
        <time>2017-10-21T07:56:33Z</time>
      </trkpt>
      <trkpt lat="45.31358" lon="5.8861">
        <ele>978.44702148438</ele>
        <time>2017-10-21T07:56:38Z</time>
      </trkpt>
      <trkpt lat="45.31353" lon="5.88609">
        <ele>977.44702148438</ele>
        <time>2017-10-21T07:56:40Z</time>
      </trkpt>
      <trkpt lat="45.31347" lon="5.8861">
        <ele>977.44702148438</ele>
        <time>2017-10-21T07:56:42Z</time>
      </trkpt>
      <trkpt lat="45.31343" lon="5.88607">
        <ele>975.44702148438</ele>
        <time>2017-10-21T07:56:44Z</time>
      </trkpt>
      <trkpt lat="45.31339" lon="5.88601">
        <ele>974.44702148438</ele>
        <time>2017-10-21T07:56:47Z</time>
      </trkpt>
      <trkpt lat="45.31333" lon="5.88594">
        <ele>972.44702148438</ele>
        <time>2017-10-21T07:56:50Z</time>
      </trkpt>
      <trkpt lat="45.31327" lon="5.88588">
        <ele>970.44702148438</ele>
        <time>2017-10-21T07:56:52Z</time>
      </trkpt>
      <trkpt lat="45.31323" lon="5.88583">
        <ele>968.44702148438</ele>
        <time>2017-10-21T07:56:54Z</time>
      </trkpt>
      <trkpt lat="45.31319" lon="5.88587">
        <ele>969.44702148438</ele>
        <time>2017-10-21T07:56:56Z</time>
      </trkpt>
      <trkpt lat="45.31315" lon="5.88595">
        <ele>968.44702148438</ele>
        <time>2017-10-21T07:56:58Z</time>
      </trkpt>
      <trkpt lat="45.31312" lon="5.88604">
        <ele>971.44702148438</ele>
        <time>2017-10-21T07:57:04Z</time>
      </trkpt>
      <trkpt lat="45.31309" lon="5.88613">
        <ele>971.44702148438</ele>
        <time>2017-10-21T07:57:07Z</time>
      </trkpt>
      <trkpt lat="45.31309" lon="5.88622">
        <ele>972.44702148438</ele>
        <time>2017-10-21T07:57:10Z</time>
      </trkpt>
      <trkpt lat="45.31306" lon="5.88627">
        <ele>971.44702148438</ele>
        <time>2017-10-21T07:57:13Z</time>
      </trkpt>
      <trkpt lat="45.31303" lon="5.88637">
        <ele>975.44702148438</ele>
        <time>2017-10-21T07:57:17Z</time>
      </trkpt>
      <trkpt lat="45.313" lon="5.88643">
        <ele>975.44702148438</ele>
        <time>2017-10-21T07:57:19Z</time>
      </trkpt>
      <trkpt lat="45.31294" lon="5.8865">
        <ele>974.44702148438</ele>
        <time>2017-10-21T07:57:21Z</time>
      </trkpt>
      <trkpt lat="45.31291" lon="5.88655">
        <ele>974.44702148438</ele>
        <time>2017-10-21T07:57:23Z</time>
      </trkpt>
      <trkpt lat="45.31287" lon="5.88664">
        <ele>973.44702148438</ele>
        <time>2017-10-21T07:57:25Z</time>
      </trkpt>
      <trkpt lat="45.31283" lon="5.88672">
        <ele>972.44702148438</ele>
        <time>2017-10-21T07:57:27Z</time>
      </trkpt>
      <trkpt lat="45.31279" lon="5.88681">
        <ele>971.44702148438</ele>
        <time>2017-10-21T07:57:29Z</time>
      </trkpt>
      <trkpt lat="45.31276" lon="5.8869">
        <ele>971.44702148438</ele>
        <time>2017-10-21T07:57:31Z</time>
      </trkpt>
      <trkpt lat="45.31273" lon="5.88698">
        <ele>971.44702148438</ele>
        <time>2017-10-21T07:57:33Z</time>
      </trkpt>
      <trkpt lat="45.31268" lon="5.88703">
        <ele>969.44702148438</ele>
        <time>2017-10-21T07:57:35Z</time>
      </trkpt>
      <trkpt lat="45.31263" lon="5.88709">
        <ele>966.44702148438</ele>
        <time>2017-10-21T07:57:37Z</time>
      </trkpt>
      <trkpt lat="45.31258" lon="5.88714">
        <ele>966.44702148438</ele>
        <time>2017-10-21T07:57:39Z</time>
      </trkpt>
      <trkpt lat="45.31253" lon="5.88721">
        <ele>964.44702148438</ele>
        <time>2017-10-21T07:57:41Z</time>
      </trkpt>
      <trkpt lat="45.31248" lon="5.88729">
        <ele>962.44702148438</ele>
        <time>2017-10-21T07:57:43Z</time>
      </trkpt>
      <trkpt lat="45.31243" lon="5.88734">
        <ele>963.44702148438</ele>
        <time>2017-10-21T07:57:45Z</time>
      </trkpt>
      <trkpt lat="45.31238" lon="5.88736">
        <ele>964.44702148438</ele>
        <time>2017-10-21T07:57:48Z</time>
      </trkpt>
      <trkpt lat="45.31232" lon="5.88737">
        <ele>963.44702148438</ele>
        <time>2017-10-21T07:57:50Z</time>
      </trkpt>
      <trkpt lat="45.31226" lon="5.88739">
        <ele>963.44702148438</ele>
        <time>2017-10-21T07:57:52Z</time>
      </trkpt>
      <trkpt lat="45.3122" lon="5.88742">
        <ele>962.44702148438</ele>
        <time>2017-10-21T07:57:54Z</time>
      </trkpt>
      <trkpt lat="45.31213" lon="5.88744">
        <ele>961.44702148438</ele>
        <time>2017-10-21T07:57:56Z</time>
      </trkpt>
      <trkpt lat="45.31207" lon="5.88743">
        <ele>962.44702148438</ele>
        <time>2017-10-21T07:57:58Z</time>
      </trkpt>
      <trkpt lat="45.31202" lon="5.88743">
        <ele>962.44702148438</ele>
        <time>2017-10-21T07:58:00Z</time>
      </trkpt>
      <trkpt lat="45.31197" lon="5.88747">
        <ele>960.44702148438</ele>
        <time>2017-10-21T07:58:01Z</time>
      </trkpt>
      <trkpt lat="45.31192" lon="5.8875">
        <ele>961.44702148438</ele>
        <time>2017-10-21T07:58:03Z</time>
      </trkpt>
      <trkpt lat="45.31187" lon="5.88749">
        <ele>960.44702148438</ele>
        <time>2017-10-21T07:58:06Z</time>
      </trkpt>
      <trkpt lat="45.31183" lon="5.8875">
        <ele>961.44702148438</ele>
        <time>2017-10-21T07:58:09Z</time>
      </trkpt>
      <trkpt lat="45.31177" lon="5.88749">
        <ele>962.44702148438</ele>
        <time>2017-10-21T07:58:12Z</time>
      </trkpt>
      <trkpt lat="45.31172" lon="5.88748">
        <ele>962.44702148438</ele>
        <time>2017-10-21T07:58:15Z</time>
      </trkpt>
      <trkpt lat="45.31166" lon="5.88747">
        <ele>963.44702148438</ele>
        <time>2017-10-21T07:58:19Z</time>
      </trkpt>
      <trkpt lat="45.31162" lon="5.88746">
        <ele>962.44702148438</ele>
        <time>2017-10-21T07:58:23Z</time>
      </trkpt>
      <trkpt lat="45.31156" lon="5.88746">
        <ele>961.44702148438</ele>
        <time>2017-10-21T07:58:27Z</time>
      </trkpt>
      <trkpt lat="45.31152" lon="5.88744">
        <ele>960.44702148438</ele>
        <time>2017-10-21T07:58:31Z</time>
      </trkpt>
      <trkpt lat="45.31146" lon="5.88744">
        <ele>961.44702148438</ele>
        <time>2017-10-21T07:58:35Z</time>
      </trkpt>
      <trkpt lat="45.31141" lon="5.88744">
        <ele>960.44702148438</ele>
        <time>2017-10-21T07:58:38Z</time>
      </trkpt>
      <trkpt lat="45.31136" lon="5.88742">
        <ele>958.44702148438</ele>
        <time>2017-10-21T07:58:41Z</time>
      </trkpt>
      <trkpt lat="45.3113" lon="5.88742">
        <ele>958.44702148438</ele>
        <time>2017-10-21T07:58:44Z</time>
      </trkpt>
      <trkpt lat="45.31125" lon="5.8874">
        <ele>956.44702148438</ele>
        <time>2017-10-21T07:58:47Z</time>
      </trkpt>
      <trkpt lat="45.31119" lon="5.88742">
        <ele>954.44702148438</ele>
        <time>2017-10-21T07:58:51Z</time>
      </trkpt>
      <trkpt lat="45.31114" lon="5.88741">
        <ele>954.44702148438</ele>
        <time>2017-10-21T07:58:54Z</time>
      </trkpt>
      <trkpt lat="45.31109" lon="5.88741">
        <ele>954.44702148438</ele>
        <time>2017-10-21T07:58:57Z</time>
      </trkpt>
      <trkpt lat="45.31105" lon="5.88738">
        <ele>953.44702148438</ele>
        <time>2017-10-21T07:59:00Z</time>
      </trkpt>
      <trkpt lat="45.31099" lon="5.88736">
        <ele>959.44702148438</ele>
        <time>2017-10-21T07:59:04Z</time>
      </trkpt>
      <trkpt lat="45.31094" lon="5.88734">
        <ele>959.44702148438</ele>
        <time>2017-10-21T07:59:07Z</time>
      </trkpt>
      <trkpt lat="45.31088" lon="5.88735">
        <ele>958.44702148438</ele>
        <time>2017-10-21T07:59:11Z</time>
      </trkpt>
      <trkpt lat="45.31084" lon="5.88734">
        <ele>957.44702148438</ele>
        <time>2017-10-21T07:59:15Z</time>
      </trkpt>
      <trkpt lat="45.31078" lon="5.88734">
        <ele>958.44702148438</ele>
        <time>2017-10-21T07:59:18Z</time>
      </trkpt>
      <trkpt lat="45.31073" lon="5.88735">
        <ele>959.44702148438</ele>
        <time>2017-10-21T07:59:21Z</time>
      </trkpt>
      <trkpt lat="45.31066" lon="5.88737">
        <ele>962.44702148438</ele>
        <time>2017-10-21T07:59:25Z</time>
      </trkpt>
      <trkpt lat="45.31061" lon="5.88737">
        <ele>963.44702148438</ele>
        <time>2017-10-21T07:59:28Z</time>
      </trkpt>
      <trkpt lat="45.31055" lon="5.8874">
        <ele>964.44702148438</ele>
        <time>2017-10-21T07:59:31Z</time>
      </trkpt>
      <trkpt lat="45.31051" lon="5.88742">
        <ele>964.44702148438</ele>
        <time>2017-10-21T07:59:33Z</time>
      </trkpt>
      <trkpt lat="45.31047" lon="5.88746">
        <ele>963.44702148438</ele>
        <time>2017-10-21T07:59:36Z</time>
      </trkpt>
      <trkpt lat="45.31041" lon="5.88748">
        <ele>963.44702148438</ele>
        <time>2017-10-21T07:59:39Z</time>
      </trkpt>
      <trkpt lat="45.31036" lon="5.88752">
        <ele>965.44702148438</ele>
        <time>2017-10-21T07:59:42Z</time>
      </trkpt>
      <trkpt lat="45.31031" lon="5.88751">
        <ele>966.44702148438</ele>
        <time>2017-10-21T07:59:46Z</time>
      </trkpt>
      <trkpt lat="45.31027" lon="5.88748">
        <ele>968.44702148438</ele>
        <time>2017-10-21T07:59:50Z</time>
      </trkpt>
      <trkpt lat="45.31022" lon="5.88747">
        <ele>968.44702148438</ele>
        <time>2017-10-21T07:59:53Z</time>
      </trkpt>
      <trkpt lat="45.31017" lon="5.88744">
        <ele>969.44702148438</ele>
        <time>2017-10-21T07:59:57Z</time>
      </trkpt>
      <trkpt lat="45.31012" lon="5.8874">
        <ele>969.44702148438</ele>
        <time>2017-10-21T08:00:00Z</time>
      </trkpt>
      <trkpt lat="45.31008" lon="5.88738">
        <ele>968.44702148438</ele>
        <time>2017-10-21T08:00:03Z</time>
      </trkpt>
      <trkpt lat="45.31003" lon="5.88734">
        <ele>968.44702148438</ele>
        <time>2017-10-21T08:00:07Z</time>
      </trkpt>
      <trkpt lat="45.30999" lon="5.8873">
        <ele>971.44702148438</ele>
        <time>2017-10-21T08:00:10Z</time>
      </trkpt>
      <trkpt lat="45.30994" lon="5.8873">
        <ele>973.44702148438</ele>
        <time>2017-10-21T08:00:14Z</time>
      </trkpt>
      <trkpt lat="45.30989" lon="5.88733">
        <ele>970.44702148438</ele>
        <time>2017-10-21T08:00:21Z</time>
      </trkpt>
      <trkpt lat="45.30985" lon="5.88735">
        <ele>970.44702148438</ele>
        <time>2017-10-21T08:00:24Z</time>
      </trkpt>
      <trkpt lat="45.30981" lon="5.88741">
        <ele>971.44702148438</ele>
        <time>2017-10-21T08:00:28Z</time>
      </trkpt>
      <trkpt lat="45.3098" lon="5.88747">
        <ele>970.44702148438</ele>
        <time>2017-10-21T08:00:31Z</time>
      </trkpt>
      <trkpt lat="45.30974" lon="5.88752">
        <ele>970.44702148438</ele>
        <time>2017-10-21T08:00:34Z</time>
      </trkpt>
      <trkpt lat="45.30969" lon="5.88755">
        <ele>972.44702148438</ele>
        <time>2017-10-21T08:00:38Z</time>
      </trkpt>
      <trkpt lat="45.30964" lon="5.88758">
        <ele>972.44702148438</ele>
        <time>2017-10-21T08:00:40Z</time>
      </trkpt>
      <trkpt lat="45.30958" lon="5.88762">
        <ele>971.44702148438</ele>
        <time>2017-10-21T08:00:42Z</time>
      </trkpt>
      <trkpt lat="45.30953" lon="5.88763">
        <ele>970.44702148438</ele>
        <time>2017-10-21T08:00:43Z</time>
      </trkpt>
      <trkpt lat="45.30947" lon="5.88766">
        <ele>970.44702148438</ele>
        <time>2017-10-21T08:00:45Z</time>
      </trkpt>
      <trkpt lat="45.3094" lon="5.88768">
        <ele>969.44702148438</ele>
        <time>2017-10-21T08:00:47Z</time>
      </trkpt>
      <trkpt lat="45.30934" lon="5.88768">
        <ele>969.44702148438</ele>
        <time>2017-10-21T08:00:49Z</time>
      </trkpt>
      <trkpt lat="45.30929" lon="5.88766">
        <ele>968.44702148438</ele>
        <time>2017-10-21T08:00:51Z</time>
      </trkpt>
      <trkpt lat="45.30924" lon="5.88766">
        <ele>968.44702148438</ele>
        <time>2017-10-21T08:00:53Z</time>
      </trkpt>
      <trkpt lat="45.30918" lon="5.88764">
        <ele>969.44702148438</ele>
        <time>2017-10-21T08:00:55Z</time>
      </trkpt>
      <trkpt lat="45.30912" lon="5.88763">
        <ele>966.44702148438</ele>
        <time>2017-10-21T08:00:57Z</time>
      </trkpt>
      <trkpt lat="45.30906" lon="5.88759">
        <ele>966.44702148438</ele>
        <time>2017-10-21T08:00:59Z</time>
      </trkpt>
      <trkpt lat="45.30901" lon="5.88754">
        <ele>964.44702148438</ele>
        <time>2017-10-21T08:01:01Z</time>
      </trkpt>
      <trkpt lat="45.30897" lon="5.88748">
        <ele>963.44702148438</ele>
        <time>2017-10-21T08:01:03Z</time>
      </trkpt>
      <trkpt lat="45.30892" lon="5.88744">
        <ele>960.44702148438</ele>
        <time>2017-10-21T08:01:05Z</time>
      </trkpt>
      <trkpt lat="45.30888" lon="5.8874">
        <ele>958.44702148438</ele>
        <time>2017-10-21T08:01:07Z</time>
      </trkpt>
      <trkpt lat="45.30883" lon="5.88737">
        <ele>955.44702148438</ele>
        <time>2017-10-21T08:01:09Z</time>
      </trkpt>
      <trkpt lat="45.30879" lon="5.88735">
        <ele>954.44702148438</ele>
        <time>2017-10-21T08:01:11Z</time>
      </trkpt>
      <trkpt lat="45.30873" lon="5.88735">
        <ele>950.44702148438</ele>
        <time>2017-10-21T08:01:13Z</time>
      </trkpt>
      <trkpt lat="45.30868" lon="5.88738">
        <ele>951.44702148438</ele>
        <time>2017-10-21T08:01:15Z</time>
      </trkpt>
      <trkpt lat="45.30865" lon="5.88743">
        <ele>952.44702148438</ele>
        <time>2017-10-21T08:01:17Z</time>
      </trkpt>
      <trkpt lat="45.30864" lon="5.8875">
        <ele>951.44702148438</ele>
        <time>2017-10-21T08:01:20Z</time>
      </trkpt>
      <trkpt lat="45.30863" lon="5.88758">
        <ele>953.44702148438</ele>
        <time>2017-10-21T08:01:22Z</time>
      </trkpt>
      <trkpt lat="45.3086" lon="5.88766">
        <ele>949.44702148438</ele>
        <time>2017-10-21T08:01:24Z</time>
      </trkpt>
      <trkpt lat="45.30859" lon="5.88773">
        <ele>949.44702148438</ele>
        <time>2017-10-21T08:01:26Z</time>
      </trkpt>
      <trkpt lat="45.3086" lon="5.88782">
        <ele>948.44702148438</ele>
        <time>2017-10-21T08:01:28Z</time>
      </trkpt>
      <trkpt lat="45.30862" lon="5.88791">
        <ele>947.44702148438</ele>
        <time>2017-10-21T08:01:31Z</time>
      </trkpt>
      <trkpt lat="45.30865" lon="5.88797">
        <ele>944.44702148438</ele>
        <time>2017-10-21T08:01:33Z</time>
      </trkpt>
      <trkpt lat="45.30867" lon="5.88805">
        <ele>944.44702148438</ele>
        <time>2017-10-21T08:01:35Z</time>
      </trkpt>
      <trkpt lat="45.30869" lon="5.88812">
        <ele>941.44702148438</ele>
        <time>2017-10-21T08:01:37Z</time>
      </trkpt>
      <trkpt lat="45.30865" lon="5.88818">
        <ele>940.44702148438</ele>
        <time>2017-10-21T08:01:39Z</time>
      </trkpt>
      <trkpt lat="45.30867" lon="5.88824">
        <ele>939.44702148438</ele>
        <time>2017-10-21T08:01:41Z</time>
      </trkpt>
      <trkpt lat="45.30867" lon="5.88831">
        <ele>935.44702148438</ele>
        <time>2017-10-21T08:01:44Z</time>
      </trkpt>
      <trkpt lat="45.30868" lon="5.88837">
        <ele>932.44702148438</ele>
        <time>2017-10-21T08:01:47Z</time>
      </trkpt>
      <trkpt lat="45.30867" lon="5.88845">
        <ele>928.44702148438</ele>
        <time>2017-10-21T08:01:49Z</time>
      </trkpt>
      <trkpt lat="45.30868" lon="5.88852">
        <ele>926.44702148438</ele>
        <time>2017-10-21T08:01:51Z</time>
      </trkpt>
      <trkpt lat="45.30872" lon="5.88858">
        <ele>924.44702148438</ele>
        <time>2017-10-21T08:01:53Z</time>
      </trkpt>
      <trkpt lat="45.30873" lon="5.88865">
        <ele>923.44702148438</ele>
        <time>2017-10-21T08:01:55Z</time>
      </trkpt>
      <trkpt lat="45.30868" lon="5.88867">
        <ele>925.44702148438</ele>
        <time>2017-10-21T08:02:00Z</time>
      </trkpt>
      <trkpt lat="45.30863" lon="5.8887">
        <ele>925.44702148438</ele>
        <time>2017-10-21T08:02:04Z</time>
      </trkpt>
      <trkpt lat="45.30861" lon="5.88877">
        <ele>923.44702148438</ele>
        <time>2017-10-21T08:02:07Z</time>
      </trkpt>
      <trkpt lat="45.30859" lon="5.88888">
        <ele>925.44702148438</ele>
        <time>2017-10-21T08:02:10Z</time>
      </trkpt>
      <trkpt lat="45.3086" lon="5.88896">
        <ele>924.44702148438</ele>
        <time>2017-10-21T08:02:13Z</time>
      </trkpt>
      <trkpt lat="45.3086" lon="5.88904">
        <ele>925.44702148438</ele>
        <time>2017-10-21T08:02:16Z</time>
      </trkpt>
      <trkpt lat="45.30861" lon="5.8891">
        <ele>923.44702148438</ele>
        <time>2017-10-21T08:02:19Z</time>
      </trkpt>
      <trkpt lat="45.30862" lon="5.88928">
        <ele>922.44702148438</ele>
        <time>2017-10-21T08:02:23Z</time>
      </trkpt>
      <trkpt lat="45.30865" lon="5.88937">
        <ele>920.44702148438</ele>
        <time>2017-10-21T08:02:26Z</time>
      </trkpt>
      <trkpt lat="45.30866" lon="5.88944">
        <ele>919.44702148438</ele>
        <time>2017-10-21T08:02:28Z</time>
      </trkpt>
      <trkpt lat="45.30866" lon="5.88954">
        <ele>918.44702148438</ele>
        <time>2017-10-21T08:02:30Z</time>
      </trkpt>
      <trkpt lat="45.30866" lon="5.88963">
        <ele>917.44702148438</ele>
        <time>2017-10-21T08:02:32Z</time>
      </trkpt>
      <trkpt lat="45.30866" lon="5.88974">
        <ele>917.44702148438</ele>
        <time>2017-10-21T08:02:35Z</time>
      </trkpt>
      <trkpt lat="45.30866" lon="5.8898">
        <ele>917.44702148438</ele>
        <time>2017-10-21T08:02:38Z</time>
      </trkpt>
      <trkpt lat="45.30869" lon="5.88988">
        <ele>916.44702148438</ele>
        <time>2017-10-21T08:02:40Z</time>
      </trkpt>
      <trkpt lat="45.30871" lon="5.88994">
        <ele>913.44702148438</ele>
        <time>2017-10-21T08:02:43Z</time>
      </trkpt>
      <trkpt lat="45.30871" lon="5.89002">
        <ele>913.44702148438</ele>
        <time>2017-10-21T08:02:45Z</time>
      </trkpt>
      <trkpt lat="45.30872" lon="5.89009">
        <ele>911.44702148438</ele>
        <time>2017-10-21T08:02:49Z</time>
      </trkpt>
      <trkpt lat="45.30873" lon="5.89016">
        <ele>910.44702148438</ele>
        <time>2017-10-21T08:02:51Z</time>
      </trkpt>
      <trkpt lat="45.30872" lon="5.89023">
        <ele>908.44702148438</ele>
        <time>2017-10-21T08:02:53Z</time>
      </trkpt>
      <trkpt lat="45.3087" lon="5.89033">
        <ele>904.44702148438</ele>
        <time>2017-10-21T08:02:56Z</time>
      </trkpt>
      <trkpt lat="45.30869" lon="5.89039">
        <ele>902.44702148438</ele>
        <time>2017-10-21T08:02:58Z</time>
      </trkpt>
      <trkpt lat="45.30869" lon="5.89048">
        <ele>900.44702148438</ele>
        <time>2017-10-21T08:03:01Z</time>
      </trkpt>
      <trkpt lat="45.30869" lon="5.89056">
        <ele>899.44702148438</ele>
        <time>2017-10-21T08:03:04Z</time>
      </trkpt>
      <trkpt lat="45.3087" lon="5.89065">
        <ele>899.44702148438</ele>
        <time>2017-10-21T08:03:10Z</time>
      </trkpt>
      <trkpt lat="45.30867" lon="5.89072">
        <ele>898.44702148438</ele>
        <time>2017-10-21T08:03:13Z</time>
      </trkpt>
      <trkpt lat="45.30866" lon="5.89079">
        <ele>899.44702148438</ele>
        <time>2017-10-21T08:03:15Z</time>
      </trkpt>
      <trkpt lat="45.30864" lon="5.89087">
        <ele>898.44702148438</ele>
        <time>2017-10-21T08:03:20Z</time>
      </trkpt>
      <trkpt lat="45.30862" lon="5.89094">
        <ele>896.44702148438</ele>
        <time>2017-10-21T08:03:22Z</time>
      </trkpt>
      <trkpt lat="45.30862" lon="5.891">
        <ele>898.44702148438</ele>
        <time>2017-10-21T08:03:25Z</time>
      </trkpt>
      <trkpt lat="45.30861" lon="5.89107">
        <ele>898.44702148438</ele>
        <time>2017-10-21T08:03:28Z</time>
      </trkpt>
      <trkpt lat="45.3086" lon="5.89114">
        <ele>896.44702148438</ele>
        <time>2017-10-21T08:03:31Z</time>
      </trkpt>
      <trkpt lat="45.30857" lon="5.89121">
        <ele>896.44702148438</ele>
        <time>2017-10-21T08:03:35Z</time>
      </trkpt>
      <trkpt lat="45.30853" lon="5.89122">
        <ele>895.44702148438</ele>
        <time>2017-10-21T08:03:39Z</time>
      </trkpt>
      <trkpt lat="45.30849" lon="5.89119">
        <ele>886.44702148438</ele>
        <time>2017-10-21T08:03:41Z</time>
      </trkpt>
      <trkpt lat="45.30844" lon="5.89117">
        <ele>886.44702148438</ele>
        <time>2017-10-21T08:03:45Z</time>
      </trkpt>
      <trkpt lat="45.30839" lon="5.89113">
        <ele>883.44702148438</ele>
        <time>2017-10-21T08:03:49Z</time>
      </trkpt>
      <trkpt lat="45.30835" lon="5.89108">
        <ele>880.44702148438</ele>
        <time>2017-10-21T08:03:54Z</time>
      </trkpt>
      <trkpt lat="45.3083" lon="5.89102">
        <ele>879.44702148438</ele>
        <time>2017-10-21T08:03:57Z</time>
      </trkpt>
      <trkpt lat="45.30826" lon="5.89096">
        <ele>881.44702148438</ele>
        <time>2017-10-21T08:04:00Z</time>
      </trkpt>
      <trkpt lat="45.30822" lon="5.89089">
        <ele>879.44702148438</ele>
        <time>2017-10-21T08:04:05Z</time>
      </trkpt>
      <trkpt lat="45.30818" lon="5.89085">
        <ele>879.44702148438</ele>
        <time>2017-10-21T08:04:11Z</time>
      </trkpt>
      <trkpt lat="45.30814" lon="5.89081">
        <ele>881.44702148438</ele>
        <time>2017-10-21T08:04:15Z</time>
      </trkpt>
      <trkpt lat="45.3081" lon="5.89077">
        <ele>882.44702148438</ele>
        <time>2017-10-21T08:04:20Z</time>
      </trkpt>
      <trkpt lat="45.30807" lon="5.89071">
        <ele>880.44702148438</ele>
        <time>2017-10-21T08:04:48Z</time>
      </trkpt>
      <trkpt lat="45.30805" lon="5.89065">
        <ele>875.44702148438</ele>
        <time>2017-10-21T08:04:54Z</time>
      </trkpt>
      <trkpt lat="45.30804" lon="5.89058">
        <ele>872.44702148438</ele>
        <time>2017-10-21T08:04:57Z</time>
      </trkpt>
      <trkpt lat="45.308" lon="5.89052">
        <ele>870.44702148438</ele>
        <time>2017-10-21T08:05:01Z</time>
      </trkpt>
      <trkpt lat="45.30798" lon="5.89044">
        <ele>867.44702148438</ele>
        <time>2017-10-21T08:05:05Z</time>
      </trkpt>
      <trkpt lat="45.30796" lon="5.89036">
        <ele>866.44702148438</ele>
        <time>2017-10-21T08:05:08Z</time>
      </trkpt>
      <trkpt lat="45.30796" lon="5.89029">
        <ele>863.44702148438</ele>
        <time>2017-10-21T08:05:11Z</time>
      </trkpt>
      <trkpt lat="45.30792" lon="5.89021">
        <ele>863.44702148438</ele>
        <time>2017-10-21T08:05:16Z</time>
      </trkpt>
      <trkpt lat="45.30789" lon="5.89015">
        <ele>862.44702148438</ele>
        <time>2017-10-21T08:05:19Z</time>
      </trkpt>
      <trkpt lat="45.30785" lon="5.8901">
        <ele>861.44702148438</ele>
        <time>2017-10-21T08:05:22Z</time>
      </trkpt>
      <trkpt lat="45.30782" lon="5.89004">
        <ele>861.44702148438</ele>
        <time>2017-10-21T08:05:24Z</time>
      </trkpt>
      <trkpt lat="45.3078" lon="5.88997">
        <ele>859.44702148438</ele>
        <time>2017-10-21T08:05:27Z</time>
      </trkpt>
      <trkpt lat="45.30777" lon="5.88991">
        <ele>858.44702148438</ele>
        <time>2017-10-21T08:05:29Z</time>
      </trkpt>
      <trkpt lat="45.30777" lon="5.88983">
        <ele>856.44702148438</ele>
        <time>2017-10-21T08:05:33Z</time>
      </trkpt>
      <trkpt lat="45.30773" lon="5.88978">
        <ele>857.44702148438</ele>
        <time>2017-10-21T08:05:37Z</time>
      </trkpt>
      <trkpt lat="45.30769" lon="5.88973">
        <ele>856.44702148438</ele>
        <time>2017-10-21T08:05:41Z</time>
      </trkpt>
      <trkpt lat="45.30766" lon="5.88969">
        <ele>857.44702148438</ele>
        <time>2017-10-21T08:05:44Z</time>
      </trkpt>
      <trkpt lat="45.30765" lon="5.88961">
        <ele>852.44702148438</ele>
        <time>2017-10-21T08:05:48Z</time>
      </trkpt>
      <trkpt lat="45.3076" lon="5.88957">
        <ele>854.44702148438</ele>
        <time>2017-10-21T08:05:51Z</time>
      </trkpt>
      <trkpt lat="45.30757" lon="5.88952">
        <ele>854.44702148438</ele>
        <time>2017-10-21T08:05:54Z</time>
      </trkpt>
      <trkpt lat="45.30752" lon="5.88948">
        <ele>856.44702148438</ele>
        <time>2017-10-21T08:05:57Z</time>
      </trkpt>
      <trkpt lat="45.3075" lon="5.8894">
        <ele>854.44702148438</ele>
        <time>2017-10-21T08:06:00Z</time>
      </trkpt>
      <trkpt lat="45.3075" lon="5.88931">
        <ele>851.44702148438</ele>
        <time>2017-10-21T08:06:03Z</time>
      </trkpt>
      <trkpt lat="45.30748" lon="5.88925">
        <ele>850.44702148438</ele>
        <time>2017-10-21T08:06:06Z</time>
      </trkpt>
      <trkpt lat="45.30744" lon="5.88919">
        <ele>854.44702148438</ele>
        <time>2017-10-21T08:06:10Z</time>
      </trkpt>
      <trkpt lat="45.30743" lon="5.88912">
        <ele>852.44702148438</ele>
        <time>2017-10-21T08:06:22Z</time>
      </trkpt>
      <trkpt lat="45.30739" lon="5.88915">
        <ele>844.44702148438</ele>
        <time>2017-10-21T08:06:38Z</time>
      </trkpt>
      <trkpt lat="45.30735" lon="5.8892">
        <ele>840.44702148438</ele>
        <time>2017-10-21T08:06:48Z</time>
      </trkpt>
      <trkpt lat="45.30731" lon="5.88923">
        <ele>841.44702148438</ele>
        <time>2017-10-21T08:06:54Z</time>
      </trkpt>
      <trkpt lat="45.30728" lon="5.88928">
        <ele>840.44702148438</ele>
        <time>2017-10-21T08:07:05Z</time>
      </trkpt>
      <trkpt lat="45.30726" lon="5.88935">
        <ele>837.44702148438</ele>
        <time>2017-10-21T08:07:20Z</time>
      </trkpt>
      <trkpt lat="45.30725" lon="5.88942">
        <ele>834.44702148438</ele>
        <time>2017-10-21T08:07:25Z</time>
      </trkpt>
      <trkpt lat="45.30724" lon="5.88948">
        <ele>831.44702148438</ele>
        <time>2017-10-21T08:07:30Z</time>
      </trkpt>
      <trkpt lat="45.30725" lon="5.88954">
        <ele>828.44702148438</ele>
        <time>2017-10-21T08:07:37Z</time>
      </trkpt>
      <trkpt lat="45.30725" lon="5.88961">
        <ele>827.44702148438</ele>
        <time>2017-10-21T08:07:43Z</time>
      </trkpt>
      <trkpt lat="45.30727" lon="5.88967">
        <ele>827.44702148438</ele>
        <time>2017-10-21T08:07:49Z</time>
      </trkpt>
      <trkpt lat="45.30731" lon="5.88974">
        <ele>823.44702148438</ele>
        <time>2017-10-21T08:07:58Z</time>
      </trkpt>
      <trkpt lat="45.30734" lon="5.8898">
        <ele>822.44702148438</ele>
        <time>2017-10-21T08:08:02Z</time>
      </trkpt>
      <trkpt lat="45.30737" lon="5.88985">
        <ele>819.44702148438</ele>
        <time>2017-10-21T08:08:05Z</time>
      </trkpt>
      <trkpt lat="45.3074" lon="5.88991">
        <ele>815.44702148438</ele>
        <time>2017-10-21T08:08:08Z</time>
      </trkpt>
      <trkpt lat="45.30742" lon="5.88998">
        <ele>813.44702148438</ele>
        <time>2017-10-21T08:08:17Z</time>
      </trkpt>
      <trkpt lat="45.30746" lon="5.89002">
        <ele>815.44702148438</ele>
        <time>2017-10-21T08:08:22Z</time>
      </trkpt>
      <trkpt lat="45.3075" lon="5.89002">
        <ele>814.44702148438</ele>
        <time>2017-10-21T08:08:26Z</time>
      </trkpt>
      <trkpt lat="45.30752" lon="5.89009">
        <ele>813.44702148438</ele>
        <time>2017-10-21T08:08:33Z</time>
      </trkpt>
      <trkpt lat="45.30754" lon="5.89017">
        <ele>813.44702148438</ele>
        <time>2017-10-21T08:08:40Z</time>
      </trkpt>
      <trkpt lat="45.30754" lon="5.89025">
        <ele>811.44702148438</ele>
        <time>2017-10-21T08:08:45Z</time>
      </trkpt>
      <trkpt lat="45.30755" lon="5.89032">
        <ele>808.44702148438</ele>
        <time>2017-10-21T08:08:48Z</time>
      </trkpt>
      <trkpt lat="45.30757" lon="5.89039">
        <ele>809.44702148438</ele>
        <time>2017-10-21T08:08:53Z</time>
      </trkpt>
      <trkpt lat="45.3076" lon="5.89047">
        <ele>809.44702148438</ele>
        <time>2017-10-21T08:08:57Z</time>
      </trkpt>
      <trkpt lat="45.30764" lon="5.89049">
        <ele>808.44702148438</ele>
        <time>2017-10-21T08:09:01Z</time>
      </trkpt>
      <trkpt lat="45.30767" lon="5.89055">
        <ele>806.44702148438</ele>
        <time>2017-10-21T08:09:06Z</time>
      </trkpt>
      <trkpt lat="45.30769" lon="5.89061">
        <ele>806.44702148438</ele>
        <time>2017-10-21T08:09:09Z</time>
      </trkpt>
      <trkpt lat="45.30772" lon="5.89067">
        <ele>806.44702148438</ele>
        <time>2017-10-21T08:09:12Z</time>
      </trkpt>
      <trkpt lat="45.30776" lon="5.89071">
        <ele>807.44702148438</ele>
        <time>2017-10-21T08:09:15Z</time>
      </trkpt>
      <trkpt lat="45.30774" lon="5.89079">
        <ele>806.44702148438</ele>
        <time>2017-10-21T08:09:19Z</time>
      </trkpt>
      <trkpt lat="45.3078" lon="5.8908">
        <ele>800.44702148438</ele>
        <time>2017-10-21T08:09:21Z</time>
      </trkpt>
      <trkpt lat="45.30786" lon="5.89083">
        <ele>797.44702148438</ele>
        <time>2017-10-21T08:09:24Z</time>
      </trkpt>
      <trkpt lat="45.30788" lon="5.89091">
        <ele>793.44702148438</ele>
        <time>2017-10-21T08:09:28Z</time>
      </trkpt>
      <trkpt lat="45.30789" lon="5.89098">
        <ele>791.44702148438</ele>
        <time>2017-10-21T08:09:30Z</time>
      </trkpt>
      <trkpt lat="45.30792" lon="5.89105">
        <ele>791.44702148438</ele>
        <time>2017-10-21T08:09:33Z</time>
      </trkpt>
      <trkpt lat="45.30793" lon="5.89113">
        <ele>791.44702148438</ele>
        <time>2017-10-21T08:09:37Z</time>
      </trkpt>
      <trkpt lat="45.30792" lon="5.89121">
        <ele>791.44702148438</ele>
        <time>2017-10-21T08:09:40Z</time>
      </trkpt>
      <trkpt lat="45.30791" lon="5.89133">
        <ele>792.44702148438</ele>
        <time>2017-10-21T08:09:46Z</time>
      </trkpt>
      <trkpt lat="45.3079" lon="5.89141">
        <ele>791.44702148438</ele>
        <time>2017-10-21T08:09:50Z</time>
      </trkpt>
      <trkpt lat="45.30788" lon="5.89149">
        <ele>790.44702148438</ele>
        <time>2017-10-21T08:09:52Z</time>
      </trkpt>
      <trkpt lat="45.3079" lon="5.89156">
        <ele>844.44702148438</ele>
        <time>2017-10-21T08:09:57Z</time>
      </trkpt>
      <trkpt lat="45.3079" lon="5.89165">
        <ele>800.44702148438</ele>
        <time>2017-10-21T08:10:08Z</time>
      </trkpt>
      <trkpt lat="45.30792" lon="5.89174">
        <ele>795.44702148438</ele>
        <time>2017-10-21T08:10:12Z</time>
      </trkpt>
      <trkpt lat="45.30789" lon="5.89169">
        <ele>782.44702148438</ele>
        <time>2017-10-21T08:10:20Z</time>
      </trkpt>
      <trkpt lat="45.30788" lon="5.89163">
        <ele>783.44702148438</ele>
        <time>2017-10-21T08:10:23Z</time>
      </trkpt>
      <trkpt lat="45.30786" lon="5.89154">
        <ele>782.44702148438</ele>
        <time>2017-10-21T08:10:26Z</time>
      </trkpt>
      <trkpt lat="45.30782" lon="5.89149">
        <ele>783.44702148438</ele>
        <time>2017-10-21T08:10:31Z</time>
      </trkpt>
      <trkpt lat="45.30776" lon="5.89148">
        <ele>781.44702148438</ele>
        <time>2017-10-21T08:10:33Z</time>
      </trkpt>
      <trkpt lat="45.30772" lon="5.89144">
        <ele>780.44702148438</ele>
        <time>2017-10-21T08:10:37Z</time>
      </trkpt>
      <trkpt lat="45.30769" lon="5.8914">
        <ele>779.44702148438</ele>
        <time>2017-10-21T08:10:41Z</time>
      </trkpt>
      <trkpt lat="45.30764" lon="5.89134">
        <ele>778.44702148438</ele>
        <time>2017-10-21T08:10:46Z</time>
      </trkpt>
      <trkpt lat="45.30761" lon="5.89128">
        <ele>777.44702148438</ele>
        <time>2017-10-21T08:10:49Z</time>
      </trkpt>
      <trkpt lat="45.30758" lon="5.89123">
        <ele>778.44702148438</ele>
        <time>2017-10-21T08:10:52Z</time>
      </trkpt>
      <trkpt lat="45.30754" lon="5.89118">
        <ele>778.44702148438</ele>
        <time>2017-10-21T08:10:56Z</time>
      </trkpt>
      <trkpt lat="45.30748" lon="5.89118">
        <ele>781.44702148438</ele>
        <time>2017-10-21T08:10:59Z</time>
      </trkpt>
      <trkpt lat="45.30743" lon="5.89112">
        <ele>779.44702148438</ele>
        <time>2017-10-21T08:11:03Z</time>
      </trkpt>
      <trkpt lat="45.30739" lon="5.89111">
        <ele>779.44702148438</ele>
        <time>2017-10-21T08:11:06Z</time>
      </trkpt>
      <trkpt lat="45.30734" lon="5.89109">
        <ele>776.44702148438</ele>
        <time>2017-10-21T08:11:10Z</time>
      </trkpt>
      <trkpt lat="45.30732" lon="5.89102">
        <ele>777.44702148438</ele>
        <time>2017-10-21T08:11:13Z</time>
      </trkpt>
      <trkpt lat="45.30726" lon="5.89101">
        <ele>776.44702148438</ele>
        <time>2017-10-21T08:11:17Z</time>
      </trkpt>
      <trkpt lat="45.30721" lon="5.89101">
        <ele>775.44702148438</ele>
        <time>2017-10-21T08:11:20Z</time>
      </trkpt>
      <trkpt lat="45.30717" lon="5.89097">
        <ele>774.44702148438</ele>
        <time>2017-10-21T08:11:23Z</time>
      </trkpt>
      <trkpt lat="45.30713" lon="5.89093">
        <ele>770.44702148438</ele>
        <time>2017-10-21T08:11:29Z</time>
      </trkpt>
      <trkpt lat="45.30707" lon="5.8909">
        <ele>766.44702148438</ele>
        <time>2017-10-21T08:11:34Z</time>
      </trkpt>
      <trkpt lat="45.30703" lon="5.89085">
        <ele>764.44702148438</ele>
        <time>2017-10-21T08:11:38Z</time>
      </trkpt>
      <trkpt lat="45.30698" lon="5.89086">
        <ele>762.44702148438</ele>
        <time>2017-10-21T08:11:41Z</time>
      </trkpt>
      <trkpt lat="45.30695" lon="5.89081">
        <ele>756.44702148438</ele>
        <time>2017-10-21T08:11:46Z</time>
      </trkpt>
      <trkpt lat="45.3069" lon="5.89078">
        <ele>753.44702148438</ele>
        <time>2017-10-21T08:11:51Z</time>
      </trkpt>
      <trkpt lat="45.3069" lon="5.89085">
        <ele>751.44702148438</ele>
        <time>2017-10-21T08:11:59Z</time>
      </trkpt>
      <trkpt lat="45.30693" lon="5.89092">
        <ele>744.44702148438</ele>
        <time>2017-10-21T08:12:05Z</time>
      </trkpt>
      <trkpt lat="45.30695" lon="5.89098">
        <ele>744.44702148438</ele>
        <time>2017-10-21T08:12:10Z</time>
      </trkpt>
      <trkpt lat="45.30696" lon="5.89106">
        <ele>745.44702148438</ele>
        <time>2017-10-21T08:12:12Z</time>
      </trkpt>
      <trkpt lat="45.30697" lon="5.89113">
        <ele>745.44702148438</ele>
        <time>2017-10-21T08:12:15Z</time>
      </trkpt>
      <trkpt lat="45.307" lon="5.89119">
        <ele>743.44702148438</ele>
        <time>2017-10-21T08:12:18Z</time>
      </trkpt>
      <trkpt lat="45.307" lon="5.89126">
        <ele>743.44702148438</ele>
        <time>2017-10-21T08:12:22Z</time>
      </trkpt>
      <trkpt lat="45.30704" lon="5.89132">
        <ele>740.44702148438</ele>
        <time>2017-10-21T08:12:27Z</time>
      </trkpt>
      <trkpt lat="45.30706" lon="5.89138">
        <ele>739.44702148438</ele>
        <time>2017-10-21T08:12:36Z</time>
      </trkpt>
      <trkpt lat="45.30707" lon="5.89145">
        <ele>734.44702148438</ele>
        <time>2017-10-21T08:12:40Z</time>
      </trkpt>
      <trkpt lat="45.30708" lon="5.89151">
        <ele>731.44702148438</ele>
        <time>2017-10-21T08:12:45Z</time>
      </trkpt>
      <trkpt lat="45.30708" lon="5.89159">
        <ele>730.44702148438</ele>
        <time>2017-10-21T08:12:51Z</time>
      </trkpt>
      <trkpt lat="45.3071" lon="5.89165">
        <ele>729.44702148438</ele>
        <time>2017-10-21T08:12:57Z</time>
      </trkpt>
      <trkpt lat="45.3071" lon="5.89174">
        <ele>727.44702148438</ele>
        <time>2017-10-21T08:13:00Z</time>
      </trkpt>
      <trkpt lat="45.30709" lon="5.89182">
        <ele>726.44702148438</ele>
        <time>2017-10-21T08:13:05Z</time>
      </trkpt>
      <trkpt lat="45.3071" lon="5.8919">
        <ele>724.44702148438</ele>
        <time>2017-10-21T08:13:09Z</time>
      </trkpt>
      <trkpt lat="45.30711" lon="5.89199">
        <ele>723.44702148438</ele>
        <time>2017-10-21T08:13:14Z</time>
      </trkpt>
      <trkpt lat="45.30713" lon="5.89206">
        <ele>720.44702148438</ele>
        <time>2017-10-21T08:13:17Z</time>
      </trkpt>
      <trkpt lat="45.30713" lon="5.89212">
        <ele>720.44702148438</ele>
        <time>2017-10-21T08:13:20Z</time>
      </trkpt>
      <trkpt lat="45.30715" lon="5.89219">
        <ele>716.44702148438</ele>
        <time>2017-10-21T08:13:24Z</time>
      </trkpt>
      <trkpt lat="45.30716" lon="5.89227">
        <ele>716.44702148438</ele>
        <time>2017-10-21T08:13:28Z</time>
      </trkpt>
      <trkpt lat="45.30717" lon="5.89234">
        <ele>712.44702148438</ele>
        <time>2017-10-21T08:13:33Z</time>
      </trkpt>
      <trkpt lat="45.30716" lon="5.89241">
        <ele>709.44702148438</ele>
        <time>2017-10-21T08:13:39Z</time>
      </trkpt>
      <trkpt lat="45.30717" lon="5.89249">
        <ele>708.44702148438</ele>
        <time>2017-10-21T08:13:42Z</time>
      </trkpt>
      <trkpt lat="45.30716" lon="5.89257">
        <ele>704.44702148438</ele>
        <time>2017-10-21T08:13:48Z</time>
      </trkpt>
      <trkpt lat="45.30716" lon="5.89267">
        <ele>702.44702148438</ele>
        <time>2017-10-21T08:13:51Z</time>
      </trkpt>
      <trkpt lat="45.30715" lon="5.89274">
        <ele>702.44702148438</ele>
        <time>2017-10-21T08:13:54Z</time>
      </trkpt>
      <trkpt lat="45.30715" lon="5.8928">
        <ele>699.44702148438</ele>
        <time>2017-10-21T08:13:57Z</time>
      </trkpt>
      <trkpt lat="45.30714" lon="5.89287">
        <ele>698.44702148438</ele>
        <time>2017-10-21T08:14:01Z</time>
      </trkpt>
      <trkpt lat="45.30714" lon="5.89294">
        <ele>696.44702148438</ele>
        <time>2017-10-21T08:14:05Z</time>
      </trkpt>
      <trkpt lat="45.30715" lon="5.89301">
        <ele>693.44702148438</ele>
        <time>2017-10-21T08:14:10Z</time>
      </trkpt>
      <trkpt lat="45.30714" lon="5.8931">
        <ele>691.44702148438</ele>
        <time>2017-10-21T08:14:14Z</time>
      </trkpt>
      <trkpt lat="45.30714" lon="5.89317">
        <ele>685.44702148438</ele>
        <time>2017-10-21T08:14:19Z</time>
      </trkpt>
      <trkpt lat="45.30714" lon="5.89324">
        <ele>681.44702148438</ele>
        <time>2017-10-21T08:14:23Z</time>
      </trkpt>
      <trkpt lat="45.30716" lon="5.89332">
        <ele>680.44702148438</ele>
        <time>2017-10-21T08:14:27Z</time>
      </trkpt>
      <trkpt lat="45.30713" lon="5.89338">
        <ele>680.44702148438</ele>
        <time>2017-10-21T08:14:31Z</time>
      </trkpt>
      <trkpt lat="45.30709" lon="5.89333">
        <ele>677.44702148438</ele>
        <time>2017-10-21T08:14:37Z</time>
      </trkpt>
      <trkpt lat="45.30704" lon="5.89332">
        <ele>677.44702148438</ele>
        <time>2017-10-21T08:14:41Z</time>
      </trkpt>
      <trkpt lat="45.30699" lon="5.89331">
        <ele>676.44702148438</ele>
        <time>2017-10-21T08:14:44Z</time>
      </trkpt>
      <trkpt lat="45.30694" lon="5.8933">
        <ele>677.44702148438</ele>
        <time>2017-10-21T08:14:49Z</time>
      </trkpt>
      <trkpt lat="45.30689" lon="5.89327">
        <ele>678.44702148438</ele>
        <time>2017-10-21T08:14:54Z</time>
      </trkpt>
      <trkpt lat="45.30685" lon="5.89323">
        <ele>677.44702148438</ele>
        <time>2017-10-21T08:14:58Z</time>
      </trkpt>
      <trkpt lat="45.30681" lon="5.89328">
        <ele>671.44702148438</ele>
        <time>2017-10-21T08:15:06Z</time>
      </trkpt>
      <trkpt lat="45.30681" lon="5.89336">
        <ele>670.44702148438</ele>
        <time>2017-10-21T08:15:11Z</time>
      </trkpt>
      <trkpt lat="45.30681" lon="5.89343">
        <ele>668.44702148438</ele>
        <time>2017-10-21T08:15:16Z</time>
      </trkpt>
      <trkpt lat="45.30676" lon="5.89343">
        <ele>667.44702148438</ele>
        <time>2017-10-21T08:15:23Z</time>
      </trkpt>
      <trkpt lat="45.30671" lon="5.89338">
        <ele>661.44702148438</ele>
        <time>2017-10-21T08:15:28Z</time>
      </trkpt>
      <trkpt lat="45.30667" lon="5.89332">
        <ele>659.44702148438</ele>
        <time>2017-10-21T08:15:32Z</time>
      </trkpt>
      <trkpt lat="45.30664" lon="5.89338">
        <ele>659.44702148438</ele>
        <time>2017-10-21T08:15:38Z</time>
      </trkpt>
      <trkpt lat="45.30661" lon="5.89344">
        <ele>658.44702148438</ele>
        <time>2017-10-21T08:15:43Z</time>
      </trkpt>
      <trkpt lat="45.30658" lon="5.89349">
        <ele>656.44702148438</ele>
        <time>2017-10-21T08:15:49Z</time>
      </trkpt>
      <trkpt lat="45.30655" lon="5.89344">
        <ele>653.44702148438</ele>
        <time>2017-10-21T08:15:53Z</time>
      </trkpt>
      <trkpt lat="45.30653" lon="5.89337">
        <ele>652.44702148438</ele>
        <time>2017-10-21T08:15:57Z</time>
      </trkpt>
      <trkpt lat="45.30649" lon="5.89332">
        <ele>650.44702148438</ele>
        <time>2017-10-21T08:16:01Z</time>
      </trkpt>
      <trkpt lat="45.30645" lon="5.89326">
        <ele>649.44702148438</ele>
        <time>2017-10-21T08:16:05Z</time>
      </trkpt>
      <trkpt lat="45.3064" lon="5.89321">
        <ele>647.44702148438</ele>
        <time>2017-10-21T08:16:10Z</time>
      </trkpt>
      <trkpt lat="45.30637" lon="5.89316">
        <ele>646.44702148438</ele>
        <time>2017-10-21T08:16:14Z</time>
      </trkpt>
      <trkpt lat="45.30633" lon="5.89311">
        <ele>644.44702148438</ele>
        <time>2017-10-21T08:16:18Z</time>
      </trkpt>
      <trkpt lat="45.3063" lon="5.89317">
        <ele>644.44702148438</ele>
        <time>2017-10-21T08:16:21Z</time>
      </trkpt>
      <trkpt lat="45.30628" lon="5.89323">
        <ele>643.44702148438</ele>
        <time>2017-10-21T08:16:25Z</time>
      </trkpt>
      <trkpt lat="45.30626" lon="5.89331">
        <ele>643.44702148438</ele>
        <time>2017-10-21T08:16:29Z</time>
      </trkpt>
      <trkpt lat="45.30626" lon="5.89338">
        <ele>642.44702148438</ele>
        <time>2017-10-21T08:16:32Z</time>
      </trkpt>
      <trkpt lat="45.30624" lon="5.89344">
        <ele>641.44702148438</ele>
        <time>2017-10-21T08:16:39Z</time>
      </trkpt>
      <trkpt lat="45.30623" lon="5.89351">
        <ele>639.44702148438</ele>
        <time>2017-10-21T08:16:43Z</time>
      </trkpt>
      <trkpt lat="45.30618" lon="5.8935">
        <ele>635.44702148438</ele>
        <time>2017-10-21T08:16:51Z</time>
      </trkpt>
      <trkpt lat="45.30615" lon="5.89346">
        <ele>633.44702148438</ele>
        <time>2017-10-21T08:16:57Z</time>
      </trkpt>
      <trkpt lat="45.30613" lon="5.8934">
        <ele>631.44702148438</ele>
        <time>2017-10-21T08:17:01Z</time>
      </trkpt>
      <trkpt lat="45.30609" lon="5.89345">
        <ele>631.44702148438</ele>
        <time>2017-10-21T08:17:04Z</time>
      </trkpt>
      <trkpt lat="45.30609" lon="5.89352">
        <ele>629.44702148438</ele>
        <time>2017-10-21T08:17:10Z</time>
      </trkpt>
      <trkpt lat="45.30608" lon="5.89359">
        <ele>627.44702148438</ele>
        <time>2017-10-21T08:17:15Z</time>
      </trkpt>
      <trkpt lat="45.30607" lon="5.89366">
        <ele>626.44702148438</ele>
        <time>2017-10-21T08:17:19Z</time>
      </trkpt>
      <trkpt lat="45.30607" lon="5.89374">
        <ele>624.44702148438</ele>
        <time>2017-10-21T08:17:27Z</time>
      </trkpt>
      <trkpt lat="45.3061" lon="5.89381">
        <ele>622.44702148438</ele>
        <time>2017-10-21T08:17:32Z</time>
      </trkpt>
      <trkpt lat="45.30611" lon="5.89391">
        <ele>623.44702148438</ele>
        <time>2017-10-21T08:17:35Z</time>
      </trkpt>
      <trkpt lat="45.30613" lon="5.89398">
        <ele>621.44702148438</ele>
        <time>2017-10-21T08:17:39Z</time>
      </trkpt>
      <trkpt lat="45.30611" lon="5.89404">
        <ele>619.44702148438</ele>
        <time>2017-10-21T08:17:48Z</time>
      </trkpt>
      <trkpt lat="45.30607" lon="5.89409">
        <ele>617.44702148438</ele>
        <time>2017-10-21T08:17:56Z</time>
      </trkpt>
      <trkpt lat="45.30602" lon="5.89413">
        <ele>610.44702148438</ele>
        <time>2017-10-21T08:18:04Z</time>
      </trkpt>
      <trkpt lat="45.30597" lon="5.89416">
        <ele>609.44702148438</ele>
        <time>2017-10-21T08:18:09Z</time>
      </trkpt>
      <trkpt lat="45.30595" lon="5.89422">
        <ele>607.44702148438</ele>
        <time>2017-10-21T08:18:16Z</time>
      </trkpt>
      <trkpt lat="45.30593" lon="5.89428">
        <ele>606.44702148438</ele>
        <time>2017-10-21T08:18:22Z</time>
      </trkpt>
      <trkpt lat="45.30589" lon="5.89431">
        <ele>604.44702148438</ele>
        <time>2017-10-21T08:18:30Z</time>
      </trkpt>
      <trkpt lat="45.30584" lon="5.89431">
        <ele>603.44702148438</ele>
        <time>2017-10-21T08:18:37Z</time>
      </trkpt>
      <trkpt lat="45.3058" lon="5.89427">
        <ele>600.44702148438</ele>
        <time>2017-10-21T08:18:44Z</time>
      </trkpt>
      <trkpt lat="45.30582" lon="5.8942">
        <ele>595.44702148438</ele>
        <time>2017-10-21T08:18:53Z</time>
      </trkpt>
      <trkpt lat="45.30583" lon="5.89413">
        <ele>593.44702148438</ele>
        <time>2017-10-21T08:19:01Z</time>
      </trkpt>
      <trkpt lat="45.30581" lon="5.89407">
        <ele>590.44702148438</ele>
        <time>2017-10-21T08:19:06Z</time>
      </trkpt>
      <trkpt lat="45.30579" lon="5.894">
        <ele>587.44702148438</ele>
        <time>2017-10-21T08:19:12Z</time>
      </trkpt>
      <trkpt lat="45.30576" lon="5.89394">
        <ele>581.44702148438</ele>
        <time>2017-10-21T08:19:19Z</time>
      </trkpt>
      <trkpt lat="45.30573" lon="5.89389">
        <ele>577.44702148438</ele>
        <time>2017-10-21T08:19:25Z</time>
      </trkpt>
      <trkpt lat="45.30569" lon="5.89384">
        <ele>576.44702148438</ele>
        <time>2017-10-21T08:19:30Z</time>
      </trkpt>
      <trkpt lat="45.30565" lon="5.89381">
        <ele>575.44702148438</ele>
        <time>2017-10-21T08:19:35Z</time>
      </trkpt>
      <trkpt lat="45.30562" lon="5.89376">
        <ele>575.44702148438</ele>
        <time>2017-10-21T08:19:40Z</time>
      </trkpt>
      <trkpt lat="45.30561" lon="5.89368">
        <ele>573.44702148438</ele>
        <time>2017-10-21T08:19:47Z</time>
      </trkpt>
      <trkpt lat="45.30558" lon="5.89362">
        <ele>572.44702148438</ele>
        <time>2017-10-21T08:19:54Z</time>
      </trkpt>
      <trkpt lat="45.30555" lon="5.89357">
        <ele>570.44702148438</ele>
        <time>2017-10-21T08:19:59Z</time>
      </trkpt>
      <trkpt lat="45.30553" lon="5.89351">
        <ele>567.44702148438</ele>
        <time>2017-10-21T08:20:06Z</time>
      </trkpt>
      <trkpt lat="45.30549" lon="5.89347">
        <ele>565.44702148438</ele>
        <time>2017-10-21T08:20:13Z</time>
      </trkpt>
      <trkpt lat="45.30546" lon="5.89341">
        <ele>566.44702148438</ele>
        <time>2017-10-21T08:20:19Z</time>
      </trkpt>
      <trkpt lat="45.30542" lon="5.89337">
        <ele>567.44702148438</ele>
        <time>2017-10-21T08:20:28Z</time>
      </trkpt>
      <trkpt lat="45.30538" lon="5.89334">
        <ele>566.44702148438</ele>
        <time>2017-10-21T08:20:36Z</time>
      </trkpt>
      <trkpt lat="45.30535" lon="5.89328">
        <ele>565.44702148438</ele>
        <time>2017-10-21T08:20:42Z</time>
      </trkpt>
      <trkpt lat="45.30533" lon="5.89323">
        <ele>564.44702148438</ele>
        <time>2017-10-21T08:20:47Z</time>
      </trkpt>
      <trkpt lat="45.30529" lon="5.89319">
        <ele>562.44702148438</ele>
        <time>2017-10-21T08:20:52Z</time>
      </trkpt>
      <trkpt lat="45.30529" lon="5.89311">
        <ele>561.44702148438</ele>
        <time>2017-10-21T08:20:56Z</time>
      </trkpt>
      <trkpt lat="45.30527" lon="5.89305">
        <ele>557.44702148438</ele>
        <time>2017-10-21T08:21:01Z</time>
      </trkpt>
      <trkpt lat="45.30523" lon="5.89301">
        <ele>556.44702148438</ele>
        <time>2017-10-21T08:21:06Z</time>
      </trkpt>
      <trkpt lat="45.3052" lon="5.89296">
        <ele>555.44702148438</ele>
        <time>2017-10-21T08:21:12Z</time>
      </trkpt>
      <trkpt lat="45.30517" lon="5.89291">
        <ele>556.44702148438</ele>
        <time>2017-10-21T08:21:17Z</time>
      </trkpt>
      <trkpt lat="45.30515" lon="5.89285">
        <ele>551.44702148438</ele>
        <time>2017-10-21T08:21:21Z</time>
      </trkpt>
      <trkpt lat="45.30514" lon="5.89276">
        <ele>548.44702148438</ele>
        <time>2017-10-21T08:21:26Z</time>
      </trkpt>
      <trkpt lat="45.30516" lon="5.8927">
        <ele>548.44702148438</ele>
        <time>2017-10-21T08:21:30Z</time>
      </trkpt>
      <trkpt lat="45.30511" lon="5.89267">
        <ele>548.44702148438</ele>
        <time>2017-10-21T08:21:35Z</time>
      </trkpt>
      <trkpt lat="45.30506" lon="5.89261">
        <ele>547.44702148438</ele>
        <time>2017-10-21T08:21:38Z</time>
      </trkpt>
      <trkpt lat="45.30502" lon="5.89258">
        <ele>545.44702148438</ele>
        <time>2017-10-21T08:21:44Z</time>
      </trkpt>
      <trkpt lat="45.30496" lon="5.89256">
        <ele>546.44702148438</ele>
        <time>2017-10-21T08:21:51Z</time>
      </trkpt>
      <trkpt lat="45.30492" lon="5.89255">
        <ele>542.44702148438</ele>
        <time>2017-10-21T08:21:58Z</time>
      </trkpt>
      <trkpt lat="45.30487" lon="5.89255">
        <ele>542.44598388672</ele>
        <time>2017-10-21T08:22:06Z</time>
      </trkpt>
      <trkpt lat="45.30483" lon="5.89254">
        <ele>540.44598388672</ele>
        <time>2017-10-21T08:22:13Z</time>
      </trkpt>
      <trkpt lat="45.30478" lon="5.8925">
        <ele>536.44598388672</ele>
        <time>2017-10-21T08:22:18Z</time>
      </trkpt>
      <trkpt lat="45.30473" lon="5.89248">
        <ele>535.44598388672</ele>
        <time>2017-10-21T08:22:23Z</time>
      </trkpt>
      <trkpt lat="45.3047" lon="5.89243">
        <ele>532.44598388672</ele>
        <time>2017-10-21T08:22:28Z</time>
      </trkpt>
      <trkpt lat="45.30465" lon="5.89239">
        <ele>531.44598388672</ele>
        <time>2017-10-21T08:22:33Z</time>
      </trkpt>
      <trkpt lat="45.30462" lon="5.89232">
        <ele>530.44598388672</ele>
        <time>2017-10-21T08:22:37Z</time>
      </trkpt>
      <trkpt lat="45.3046" lon="5.89225">
        <ele>531.44598388672</ele>
        <time>2017-10-21T08:22:39Z</time>
      </trkpt>
      <trkpt lat="45.30458" lon="5.89219">
        <ele>528.44598388672</ele>
        <time>2017-10-21T08:22:41Z</time>
      </trkpt>
      <trkpt lat="45.30453" lon="5.89216">
        <ele>527.44598388672</ele>
        <time>2017-10-21T08:22:44Z</time>
      </trkpt>
      <trkpt lat="45.3045" lon="5.89212">
        <ele>525.44598388672</ele>
        <time>2017-10-21T08:22:47Z</time>
      </trkpt>
      <trkpt lat="45.30446" lon="5.89206">
        <ele>525.44598388672</ele>
        <time>2017-10-21T08:22:51Z</time>
      </trkpt>
      <trkpt lat="45.30441" lon="5.89202">
        <ele>527.44598388672</ele>
        <time>2017-10-21T08:22:54Z</time>
      </trkpt>
      <trkpt lat="45.30441" lon="5.89194">
        <ele>523.44598388672</ele>
        <time>2017-10-21T08:22:57Z</time>
      </trkpt>
      <trkpt lat="45.30436" lon="5.8919">
        <ele>521.44598388672</ele>
        <time>2017-10-21T08:23:00Z</time>
      </trkpt>
      <trkpt lat="45.30431" lon="5.89187">
        <ele>522.44598388672</ele>
        <time>2017-10-21T08:23:04Z</time>
      </trkpt>
      <trkpt lat="45.30426" lon="5.89184">
        <ele>520.44598388672</ele>
        <time>2017-10-21T08:23:09Z</time>
      </trkpt>
      <trkpt lat="45.30423" lon="5.89179">
        <ele>517.44598388672</ele>
        <time>2017-10-21T08:23:15Z</time>
      </trkpt>
      <trkpt lat="45.30418" lon="5.89175">
        <ele>513.44598388672</ele>
        <time>2017-10-21T08:23:20Z</time>
      </trkpt>
      <trkpt lat="45.30414" lon="5.89168">
        <ele>514.44598388672</ele>
        <time>2017-10-21T08:23:24Z</time>
      </trkpt>
      <trkpt lat="45.30413" lon="5.89162">
        <ele>516.44598388672</ele>
        <time>2017-10-21T08:23:29Z</time>
      </trkpt>
      <trkpt lat="45.30409" lon="5.89165">
        <ele>516.44598388672</ele>
        <time>2017-10-21T08:23:40Z</time>
      </trkpt>
      <trkpt lat="45.30405" lon="5.8916">
        <ele>515.44598388672</ele>
        <time>2017-10-21T08:23:44Z</time>
      </trkpt>
      <trkpt lat="45.30401" lon="5.89161">
        <ele>517.44598388672</ele>
        <time>2017-10-21T08:23:49Z</time>
      </trkpt>
      <trkpt lat="45.30395" lon="5.89163">
        <ele>516.44598388672</ele>
        <time>2017-10-21T08:23:59Z</time>
      </trkpt>
      <trkpt lat="45.3039" lon="5.89162">
        <ele>516.44598388672</ele>
        <time>2017-10-21T08:24:04Z</time>
      </trkpt>
      <trkpt lat="45.30385" lon="5.89161">
        <ele>515.44598388672</ele>
        <time>2017-10-21T08:24:09Z</time>
      </trkpt>
      <trkpt lat="45.30382" lon="5.89165">
        <ele>511.4460144043</ele>
        <time>2017-10-21T08:24:22Z</time>
      </trkpt>
      <trkpt lat="45.30378" lon="5.89169">
        <ele>507.4460144043</ele>
        <time>2017-10-21T08:24:27Z</time>
      </trkpt>
      <trkpt lat="45.30375" lon="5.89174">
        <ele>505.4460144043</ele>
        <time>2017-10-21T08:24:32Z</time>
      </trkpt>
      <trkpt lat="45.3037" lon="5.89175">
        <ele>502.4460144043</ele>
        <time>2017-10-21T08:24:36Z</time>
      </trkpt>
      <trkpt lat="45.30366" lon="5.89181">
        <ele>501.4460144043</ele>
        <time>2017-10-21T08:24:41Z</time>
      </trkpt>
      <trkpt lat="45.30364" lon="5.89186">
        <ele>500.4460144043</ele>
        <time>2017-10-21T08:24:43Z</time>
      </trkpt>
      <trkpt lat="45.30362" lon="5.89193">
        <ele>493.4460144043</ele>
        <time>2017-10-21T08:24:51Z</time>
      </trkpt>
      <trkpt lat="45.30357" lon="5.89194">
        <ele>489.4460144043</ele>
        <time>2017-10-21T08:24:55Z</time>
      </trkpt>
      <trkpt lat="45.30353" lon="5.892">
        <ele>488.4460144043</ele>
        <time>2017-10-21T08:24:59Z</time>
      </trkpt>
      <trkpt lat="45.3035" lon="5.89204">
        <ele>483.4460144043</ele>
        <time>2017-10-21T08:25:07Z</time>
      </trkpt>
      <trkpt lat="45.30345" lon="5.89205">
        <ele>480.4460144043</ele>
        <time>2017-10-21T08:25:09Z</time>
      </trkpt>
      <trkpt lat="45.3034" lon="5.8921">
        <ele>479.4460144043</ele>
        <time>2017-10-21T08:25:11Z</time>
      </trkpt>
      <trkpt lat="45.30336" lon="5.89214">
        <ele>477.4460144043</ele>
        <time>2017-10-21T08:25:14Z</time>
      </trkpt>
      <trkpt lat="45.30335" lon="5.89221">
        <ele>472.4460144043</ele>
        <time>2017-10-21T08:25:19Z</time>
      </trkpt>
      <trkpt lat="45.30331" lon="5.89228">
        <ele>465.4460144043</ele>
        <time>2017-10-21T08:25:24Z</time>
      </trkpt>
      <trkpt lat="45.30329" lon="5.89235">
        <ele>464.4460144043</ele>
        <time>2017-10-21T08:25:27Z</time>
      </trkpt>
      <trkpt lat="45.30326" lon="5.89241">
        <ele>464.4460144043</ele>
        <time>2017-10-21T08:25:29Z</time>
      </trkpt>
      <trkpt lat="45.30322" lon="5.89248">
        <ele>460.4460144043</ele>
        <time>2017-10-21T08:25:37Z</time>
      </trkpt>
      <trkpt lat="45.30319" lon="5.89256">
        <ele>460.4460144043</ele>
        <time>2017-10-21T08:25:40Z</time>
      </trkpt>
      <trkpt lat="45.30315" lon="5.89262">
        <ele>458.4460144043</ele>
        <time>2017-10-21T08:25:44Z</time>
      </trkpt>
      <trkpt lat="45.30314" lon="5.89269">
        <ele>458.4460144043</ele>
        <time>2017-10-21T08:25:47Z</time>
      </trkpt>
      <trkpt lat="45.30311" lon="5.89276">
        <ele>455.4460144043</ele>
        <time>2017-10-21T08:25:50Z</time>
      </trkpt>
      <trkpt lat="45.3031" lon="5.89283">
        <ele>453.4460144043</ele>
        <time>2017-10-21T08:25:55Z</time>
      </trkpt>
      <trkpt lat="45.30306" lon="5.89288">
        <ele>452.4460144043</ele>
        <time>2017-10-21T08:25:57Z</time>
      </trkpt>
      <trkpt lat="45.30302" lon="5.89293">
        <ele>447.4460144043</ele>
        <time>2017-10-21T08:26:04Z</time>
      </trkpt>
      <trkpt lat="45.30298" lon="5.89296">
        <ele>443.4460144043</ele>
        <time>2017-10-21T08:26:09Z</time>
      </trkpt>
      <trkpt lat="45.30294" lon="5.893">
        <ele>438.4460144043</ele>
        <time>2017-10-21T08:26:14Z</time>
      </trkpt>
      <trkpt lat="45.3029" lon="5.89306">
        <ele>439.4460144043</ele>
        <time>2017-10-21T08:26:18Z</time>
      </trkpt>
      <trkpt lat="45.30285" lon="5.89309">
        <ele>436.4460144043</ele>
        <time>2017-10-21T08:26:22Z</time>
      </trkpt>
      <trkpt lat="45.30281" lon="5.89313">
        <ele>436.4460144043</ele>
        <time>2017-10-21T08:26:26Z</time>
      </trkpt>
      <trkpt lat="45.30277" lon="5.89316">
        <ele>434.4460144043</ele>
        <time>2017-10-21T08:26:32Z</time>
      </trkpt>
      <trkpt lat="45.30274" lon="5.8932">
        <ele>433.4460144043</ele>
        <time>2017-10-21T08:26:35Z</time>
      </trkpt>
      <trkpt lat="45.30272" lon="5.89327">
        <ele>435.4460144043</ele>
        <time>2017-10-21T08:26:39Z</time>
      </trkpt>
      <trkpt lat="45.30268" lon="5.89331">
        <ele>434.4460144043</ele>
        <time>2017-10-21T08:26:47Z</time>
      </trkpt>
      <trkpt lat="45.30263" lon="5.89333">
        <ele>433.4460144043</ele>
        <time>2017-10-21T08:26:51Z</time>
      </trkpt>
      <trkpt lat="45.30259" lon="5.89337">
        <ele>433.4460144043</ele>
        <time>2017-10-21T08:26:57Z</time>
      </trkpt>
      <trkpt lat="45.30254" lon="5.89342">
        <ele>432.4460144043</ele>
        <time>2017-10-21T08:27:00Z</time>
      </trkpt>
      <trkpt lat="45.30249" lon="5.89343">
        <ele>431.4460144043</ele>
        <time>2017-10-21T08:27:03Z</time>
      </trkpt>
      <trkpt lat="45.30244" lon="5.89346">
        <ele>430.4460144043</ele>
        <time>2017-10-21T08:27:06Z</time>
      </trkpt>
      <trkpt lat="45.30239" lon="5.8935">
        <ele>430.4460144043</ele>
        <time>2017-10-21T08:27:09Z</time>
      </trkpt>
      <trkpt lat="45.30234" lon="5.89354">
        <ele>432.4460144043</ele>
        <time>2017-10-21T08:27:11Z</time>
      </trkpt>
      <trkpt lat="45.30228" lon="5.89359">
        <ele>431.4460144043</ele>
        <time>2017-10-21T08:27:14Z</time>
      </trkpt>
      <trkpt lat="45.30223" lon="5.89357">
        <ele>427.4460144043</ele>
        <time>2017-10-21T08:27:17Z</time>
      </trkpt>
      <trkpt lat="45.30219" lon="5.89359">
        <ele>423.4460144043</ele>
        <time>2017-10-21T08:27:20Z</time>
      </trkpt>
      <trkpt lat="45.30214" lon="5.89359">
        <ele>424.4460144043</ele>
        <time>2017-10-21T08:27:23Z</time>
      </trkpt>
      <trkpt lat="45.30208" lon="5.89358">
        <ele>423.4460144043</ele>
        <time>2017-10-21T08:27:27Z</time>
      </trkpt>
      <trkpt lat="45.30203" lon="5.89356">
        <ele>423.4460144043</ele>
        <time>2017-10-21T08:27:31Z</time>
      </trkpt>
      <trkpt lat="45.30199" lon="5.89356">
        <ele>422.4460144043</ele>
        <time>2017-10-21T08:27:35Z</time>
      </trkpt>
      <trkpt lat="45.30194" lon="5.89355">
        <ele>421.4460144043</ele>
        <time>2017-10-21T08:27:39Z</time>
      </trkpt>
      <trkpt lat="45.30189" lon="5.89353">
        <ele>419.4460144043</ele>
        <time>2017-10-21T08:27:42Z</time>
      </trkpt>
      <trkpt lat="45.30184" lon="5.89353">
        <ele>414.4460144043</ele>
        <time>2017-10-21T08:27:46Z</time>
      </trkpt>
      <trkpt lat="45.30179" lon="5.89352">
        <ele>412.4460144043</ele>
        <time>2017-10-21T08:27:50Z</time>
      </trkpt>
      <trkpt lat="45.30174" lon="5.89352">
        <ele>412.4460144043</ele>
        <time>2017-10-21T08:27:54Z</time>
      </trkpt>
      <trkpt lat="45.30169" lon="5.89349">
        <ele>412.4460144043</ele>
        <time>2017-10-21T08:27:57Z</time>
      </trkpt>
      <trkpt lat="45.30163" lon="5.89349">
        <ele>412.4460144043</ele>
        <time>2017-10-21T08:28:00Z</time>
      </trkpt>
      <trkpt lat="45.30157" lon="5.89346">
        <ele>405.4460144043</ele>
        <time>2017-10-21T08:28:03Z</time>
      </trkpt>
      <trkpt lat="45.30153" lon="5.89345">
        <ele>403.4460144043</ele>
        <time>2017-10-21T08:28:05Z</time>
      </trkpt>
      <trkpt lat="45.30146" lon="5.89345">
        <ele>403.4460144043</ele>
        <time>2017-10-21T08:28:08Z</time>
      </trkpt>
      <trkpt lat="45.3014" lon="5.89346">
        <ele>402.4460144043</ele>
        <time>2017-10-21T08:28:10Z</time>
      </trkpt>
      <trkpt lat="45.30135" lon="5.89349">
        <ele>402.4460144043</ele>
        <time>2017-10-21T08:28:13Z</time>
      </trkpt>
      <trkpt lat="45.3013" lon="5.89347">
        <ele>399.4460144043</ele>
        <time>2017-10-21T08:28:16Z</time>
      </trkpt>
      <trkpt lat="45.30126" lon="5.89346">
        <ele>394.4460144043</ele>
        <time>2017-10-21T08:28:19Z</time>
      </trkpt>
      <trkpt lat="45.3012" lon="5.89346">
        <ele>393.4460144043</ele>
        <time>2017-10-21T08:28:22Z</time>
      </trkpt>
      <trkpt lat="45.30115" lon="5.89347">
        <ele>392.4460144043</ele>
        <time>2017-10-21T08:28:26Z</time>
      </trkpt>
      <trkpt lat="45.30111" lon="5.89346">
        <ele>389.4460144043</ele>
        <time>2017-10-21T08:28:30Z</time>
      </trkpt>
      <trkpt lat="45.30106" lon="5.89343">
        <ele>387.4460144043</ele>
        <time>2017-10-21T08:28:34Z</time>
      </trkpt>
      <trkpt lat="45.301" lon="5.89343">
        <ele>388.4460144043</ele>
        <time>2017-10-21T08:28:38Z</time>
      </trkpt>
      <trkpt lat="45.30095" lon="5.89339">
        <ele>385.4460144043</ele>
        <time>2017-10-21T08:28:42Z</time>
      </trkpt>
      <trkpt lat="45.3009" lon="5.89338">
        <ele>385.4460144043</ele>
        <time>2017-10-21T08:28:45Z</time>
      </trkpt>
      <trkpt lat="45.30085" lon="5.89336">
        <ele>385.4460144043</ele>
        <time>2017-10-21T08:28:48Z</time>
      </trkpt>
      <trkpt lat="45.30081" lon="5.89333">
        <ele>382.4460144043</ele>
        <time>2017-10-21T08:28:52Z</time>
      </trkpt>
      <trkpt lat="45.30075" lon="5.8933">
        <ele>377.4460144043</ele>
        <time>2017-10-21T08:28:57Z</time>
      </trkpt>
      <trkpt lat="45.3007" lon="5.89329">
        <ele>377.4460144043</ele>
        <time>2017-10-21T08:29:01Z</time>
      </trkpt>
      <trkpt lat="45.30065" lon="5.89332">
        <ele>378.4460144043</ele>
        <time>2017-10-21T08:29:03Z</time>
      </trkpt>
      <trkpt lat="45.30061" lon="5.89334">
        <ele>378.4460144043</ele>
        <time>2017-10-21T08:29:05Z</time>
      </trkpt>
      <trkpt lat="45.30055" lon="5.89338">
        <ele>377.4460144043</ele>
        <time>2017-10-21T08:29:08Z</time>
      </trkpt>
      <trkpt lat="45.3005" lon="5.89342">
        <ele>376.4460144043</ele>
        <time>2017-10-21T08:29:11Z</time>
      </trkpt>
      <trkpt lat="45.30047" lon="5.89349">
        <ele>375.4460144043</ele>
        <time>2017-10-21T08:29:14Z</time>
      </trkpt>
      <trkpt lat="45.30044" lon="5.89354">
        <ele>372.4460144043</ele>
        <time>2017-10-21T08:29:17Z</time>
      </trkpt>
      <trkpt lat="45.30041" lon="5.8936">
        <ele>373.4460144043</ele>
        <time>2017-10-21T08:29:20Z</time>
      </trkpt>
      <trkpt lat="45.30039" lon="5.89366">
        <ele>372.4460144043</ele>
        <time>2017-10-21T08:29:24Z</time>
      </trkpt>
      <trkpt lat="45.30035" lon="5.89372">
        <ele>369.4460144043</ele>
        <time>2017-10-21T08:29:28Z</time>
      </trkpt>
      <trkpt lat="45.30031" lon="5.89378">
        <ele>366.4460144043</ele>
        <time>2017-10-21T08:29:32Z</time>
      </trkpt>
      <trkpt lat="45.30028" lon="5.89384">
        <ele>366.4460144043</ele>
        <time>2017-10-21T08:29:37Z</time>
      </trkpt>
      <trkpt lat="45.30024" lon="5.89391">
        <ele>365.4460144043</ele>
        <time>2017-10-21T08:29:42Z</time>
      </trkpt>
      <trkpt lat="45.3002" lon="5.89398">
        <ele>365.4460144043</ele>
        <time>2017-10-21T08:29:44Z</time>
      </trkpt>
      <trkpt lat="45.30017" lon="5.89401">
        <ele>365.4460144043</ele>
        <time>2017-10-21T08:29:48Z</time>
      </trkpt>
      <trkpt lat="45.30014" lon="5.89408">
        <ele>365.4460144043</ele>
        <time>2017-10-21T08:29:52Z</time>
      </trkpt>
      <trkpt lat="45.30011" lon="5.89417">
        <ele>367.4460144043</ele>
        <time>2017-10-21T08:29:55Z</time>
      </trkpt>
      <trkpt lat="45.30009" lon="5.89424">
        <ele>366.4460144043</ele>
        <time>2017-10-21T08:29:59Z</time>
      </trkpt>
      <trkpt lat="45.30011" lon="5.89432">
        <ele>367.4460144043</ele>
        <time>2017-10-21T08:30:02Z</time>
      </trkpt>
      <trkpt lat="45.30012" lon="5.89438">
        <ele>365.4460144043</ele>
        <time>2017-10-21T08:30:06Z</time>
      </trkpt>
      <trkpt lat="45.30016" lon="5.89443">
        <ele>359.4460144043</ele>
        <time>2017-10-21T08:30:10Z</time>
      </trkpt>
      <trkpt lat="45.30019" lon="5.8945">
        <ele>355.4460144043</ele>
        <time>2017-10-21T08:30:14Z</time>
      </trkpt>
      <trkpt lat="45.30021" lon="5.89457">
        <ele>355.4460144043</ele>
        <time>2017-10-21T08:30:17Z</time>
      </trkpt>
      <trkpt lat="45.30024" lon="5.89464">
        <ele>354.4460144043</ele>
        <time>2017-10-21T08:30:20Z</time>
      </trkpt>
      <trkpt lat="45.30028" lon="5.89469">
        <ele>352.4460144043</ele>
        <time>2017-10-21T08:30:25Z</time>
      </trkpt>
      <trkpt lat="45.30033" lon="5.89474">
        <ele>355.4460144043</ele>
        <time>2017-10-21T08:30:28Z</time>
      </trkpt>
      <trkpt lat="45.30036" lon="5.89479">
        <ele>356.4460144043</ele>
        <time>2017-10-21T08:30:31Z</time>
      </trkpt>
      <trkpt lat="45.30039" lon="5.89486">
        <ele>352.4460144043</ele>
        <time>2017-10-21T08:30:36Z</time>
      </trkpt>
      <trkpt lat="45.30042" lon="5.89492">
        <ele>352.4460144043</ele>
        <time>2017-10-21T08:30:40Z</time>
      </trkpt>
      <trkpt lat="45.30046" lon="5.89498">
        <ele>348.4460144043</ele>
        <time>2017-10-21T08:30:45Z</time>
      </trkpt>
      <trkpt lat="45.30049" lon="5.89504">
        <ele>346.4460144043</ele>
        <time>2017-10-21T08:30:49Z</time>
      </trkpt>
      <trkpt lat="45.30052" lon="5.8951">
        <ele>344.4460144043</ele>
        <time>2017-10-21T08:30:52Z</time>
      </trkpt>
      <trkpt lat="45.30054" lon="5.89516">
        <ele>343.4460144043</ele>
        <time>2017-10-21T08:30:56Z</time>
      </trkpt>
      <trkpt lat="45.30058" lon="5.89521">
        <ele>343.4460144043</ele>
        <time>2017-10-21T08:31:02Z</time>
      </trkpt>
      <trkpt lat="45.3006" lon="5.89527">
        <ele>341.4460144043</ele>
        <time>2017-10-21T08:31:05Z</time>
      </trkpt>
      <trkpt lat="45.30063" lon="5.89533">
        <ele>341.4460144043</ele>
        <time>2017-10-21T08:31:08Z</time>
      </trkpt>
      <trkpt lat="45.30065" lon="5.89539">
        <ele>336.4460144043</ele>
        <time>2017-10-21T08:31:13Z</time>
      </trkpt>
      <trkpt lat="45.30068" lon="5.89545">
        <ele>336.4460144043</ele>
        <time>2017-10-21T08:31:18Z</time>
      </trkpt>
      <trkpt lat="45.30065" lon="5.89551">
        <ele>330.4460144043</ele>
        <time>2017-10-21T08:31:22Z</time>
      </trkpt>
      <trkpt lat="45.30064" lon="5.89558">
        <ele>327.4460144043</ele>
        <time>2017-10-21T08:31:26Z</time>
      </trkpt>
      <trkpt lat="45.30064" lon="5.89566">
        <ele>325.4460144043</ele>
        <time>2017-10-21T08:31:31Z</time>
      </trkpt>
      <trkpt lat="45.30065" lon="5.89573">
        <ele>323.4460144043</ele>
        <time>2017-10-21T08:31:34Z</time>
      </trkpt>
      <trkpt lat="45.30064" lon="5.89579">
        <ele>316.4460144043</ele>
        <time>2017-10-21T08:31:39Z</time>
      </trkpt>
      <trkpt lat="45.30062" lon="5.89588">
        <ele>313.4460144043</ele>
        <time>2017-10-21T08:31:44Z</time>
      </trkpt>
      <trkpt lat="45.30065" lon="5.89593">
        <ele>313.4460144043</ele>
        <time>2017-10-21T08:31:47Z</time>
      </trkpt>
      <trkpt lat="45.30069" lon="5.89597">
        <ele>315.4460144043</ele>
        <time>2017-10-21T08:31:50Z</time>
      </trkpt>
      <trkpt lat="45.30076" lon="5.89597">
        <ele>315.4460144043</ele>
        <time>2017-10-21T08:31:58Z</time>
      </trkpt>
      <trkpt lat="45.30081" lon="5.89599">
        <ele>314.4460144043</ele>
        <time>2017-10-21T08:32:05Z</time>
      </trkpt>
      <trkpt lat="45.30087" lon="5.89608">
        <ele>314.4460144043</ele>
        <time>2017-10-21T08:32:08Z</time>
      </trkpt>
      <trkpt lat="45.30089" lon="5.89614">
        <ele>314.4460144043</ele>
        <time>2017-10-21T08:32:10Z</time>
      </trkpt>
      <trkpt lat="45.30087" lon="5.89619">
        <ele>311.4460144043</ele>
        <time>2017-10-21T08:32:14Z</time>
      </trkpt>
      <trkpt lat="45.30084" lon="5.89624">
        <ele>307.4460144043</ele>
        <time>2017-10-21T08:32:20Z</time>
      </trkpt>
      <trkpt lat="45.30079" lon="5.89626">
        <ele>301.4460144043</ele>
        <time>2017-10-21T08:32:26Z</time>
      </trkpt>
      <trkpt lat="45.30074" lon="5.89628">
        <ele>297.4460144043</ele>
        <time>2017-10-21T08:32:31Z</time>
      </trkpt>
      <trkpt lat="45.30072" lon="5.89634">
        <ele>295.4460144043</ele>
        <time>2017-10-21T08:32:34Z</time>
      </trkpt>
      <trkpt lat="45.30073" lon="5.89642">
        <ele>296.4460144043</ele>
        <time>2017-10-21T08:32:38Z</time>
      </trkpt>
      <trkpt lat="45.30072" lon="5.89649">
        <ele>296.4460144043</ele>
        <time>2017-10-21T08:32:41Z</time>
      </trkpt>
      <trkpt lat="45.3007" lon="5.89655">
        <ele>292.4460144043</ele>
        <time>2017-10-21T08:32:45Z</time>
      </trkpt>
      <trkpt lat="45.3007" lon="5.89663">
        <ele>292.4460144043</ele>
        <time>2017-10-21T08:32:49Z</time>
      </trkpt>
      <trkpt lat="45.30071" lon="5.89671">
        <ele>291.4460144043</ele>
        <time>2017-10-21T08:32:52Z</time>
      </trkpt>
      <trkpt lat="45.30071" lon="5.89679">
        <ele>291.4460144043</ele>
        <time>2017-10-21T08:32:56Z</time>
      </trkpt>
      <trkpt lat="45.3007" lon="5.89685">
        <ele>289.4460144043</ele>
        <time>2017-10-21T08:32:59Z</time>
      </trkpt>
      <trkpt lat="45.3007" lon="5.89693">
        <ele>287.4460144043</ele>
        <time>2017-10-21T08:33:03Z</time>
      </trkpt>
      <trkpt lat="45.3007" lon="5.89702">
        <ele>288.4460144043</ele>
        <time>2017-10-21T08:33:07Z</time>
      </trkpt>
      <trkpt lat="45.30069" lon="5.89709">
        <ele>287.4460144043</ele>
        <time>2017-10-21T08:33:11Z</time>
      </trkpt>
      <trkpt lat="45.30068" lon="5.89715">
        <ele>284.4460144043</ele>
        <time>2017-10-21T08:33:15Z</time>
      </trkpt>
      <trkpt lat="45.30065" lon="5.89721">
        <ele>282.4460144043</ele>
        <time>2017-10-21T08:33:19Z</time>
      </trkpt>
      <trkpt lat="45.30063" lon="5.89727">
        <ele>281.4460144043</ele>
        <time>2017-10-21T08:33:28Z</time>
      </trkpt>
      <trkpt lat="45.30059" lon="5.89733">
        <ele>277.4460144043</ele>
        <time>2017-10-21T08:33:33Z</time>
      </trkpt>
      <trkpt lat="45.30056" lon="5.89739">
        <ele>275.4460144043</ele>
        <time>2017-10-21T08:33:36Z</time>
      </trkpt>
      <trkpt lat="45.30052" lon="5.89746">
        <ele>274.4460144043</ele>
        <time>2017-10-21T08:33:39Z</time>
      </trkpt>
      <trkpt lat="45.30048" lon="5.89753">
        <ele>272.4460144043</ele>
        <time>2017-10-21T08:33:42Z</time>
      </trkpt>
      <trkpt lat="45.30044" lon="5.89759">
        <ele>270.4460144043</ele>
        <time>2017-10-21T08:33:45Z</time>
      </trkpt>
      <trkpt lat="45.30042" lon="5.89768">
        <ele>271.4460144043</ele>
        <time>2017-10-21T08:33:48Z</time>
      </trkpt>
      <trkpt lat="45.30038" lon="5.89772">
        <ele>271.4460144043</ele>
        <time>2017-10-21T08:33:50Z</time>
      </trkpt>
      <trkpt lat="45.30036" lon="5.89779">
        <ele>270.4460144043</ele>
        <time>2017-10-21T08:33:54Z</time>
      </trkpt>
      <trkpt lat="45.30031" lon="5.8978">
        <ele>263.4460144043</ele>
        <time>2017-10-21T08:34:00Z</time>
      </trkpt>
      <trkpt lat="45.30027" lon="5.89783">
        <ele>264.4460144043</ele>
        <time>2017-10-21T08:34:03Z</time>
      </trkpt>
      <trkpt lat="45.30023" lon="5.89782">
        <ele>260.4460144043</ele>
        <time>2017-10-21T08:34:08Z</time>
      </trkpt>
      <trkpt lat="45.30018" lon="5.89784">
        <ele>259.4460144043</ele>
        <time>2017-10-21T08:34:11Z</time>
      </trkpt>
      <trkpt lat="45.30011" lon="5.89788">
        <ele>260.4460144043</ele>
        <time>2017-10-21T08:34:14Z</time>
      </trkpt>
      <trkpt lat="45.30006" lon="5.89792">
        <ele>260.4460144043</ele>
        <time>2017-10-21T08:34:18Z</time>
      </trkpt>
      <trkpt lat="45.30001" lon="5.89794">
        <ele>257.4460144043</ele>
        <time>2017-10-21T08:34:22Z</time>
      </trkpt>
      <trkpt lat="45.29995" lon="5.89797">
        <ele>256.4460144043</ele>
        <time>2017-10-21T08:34:26Z</time>
      </trkpt>
      <trkpt lat="45.2999" lon="5.89802">
        <ele>255.44599914551</ele>
        <time>2017-10-21T08:34:29Z</time>
      </trkpt>
      <trkpt lat="45.29986" lon="5.89807">
        <ele>255.44599914551</ele>
        <time>2017-10-21T08:34:31Z</time>
      </trkpt>
      <trkpt lat="45.29982" lon="5.89812">
        <ele>258.4460144043</ele>
        <time>2017-10-21T08:34:33Z</time>
      </trkpt>
      <trkpt lat="45.29977" lon="5.89817">
        <ele>259.4460144043</ele>
        <time>2017-10-21T08:34:36Z</time>
      </trkpt>
      <trkpt lat="45.29974" lon="5.89822">
        <ele>259.4460144043</ele>
        <time>2017-10-21T08:34:39Z</time>
      </trkpt>
      <trkpt lat="45.29973" lon="5.8983">
        <ele>258.4460144043</ele>
        <time>2017-10-21T08:34:43Z</time>
      </trkpt>
      <trkpt lat="45.29974" lon="5.89838">
        <ele>257.4460144043</ele>
        <time>2017-10-21T08:34:46Z</time>
      </trkpt>
      <trkpt lat="45.29971" lon="5.89844">
        <ele>255.44599914551</ele>
        <time>2017-10-21T08:34:49Z</time>
      </trkpt>
      <trkpt lat="45.29968" lon="5.89849">
        <ele>255.44599914551</ele>
        <time>2017-10-21T08:34:52Z</time>
      </trkpt>
      <trkpt lat="45.29965" lon="5.89853">
        <ele>256.4460144043</ele>
        <time>2017-10-21T08:34:55Z</time>
      </trkpt>
      <trkpt lat="45.2996" lon="5.89856">
        <ele>255.44599914551</ele>
        <time>2017-10-21T08:34:59Z</time>
      </trkpt>
      <trkpt lat="45.29953" lon="5.8986">
        <ele>255.44599914551</ele>
        <time>2017-10-21T08:35:03Z</time>
      </trkpt>
      <trkpt lat="45.29948" lon="5.89864">
        <ele>255.44599914551</ele>
        <time>2017-10-21T08:35:06Z</time>
      </trkpt>
      <trkpt lat="45.29943" lon="5.89866">
        <ele>255.44599914551</ele>
        <time>2017-10-21T08:35:08Z</time>
      </trkpt>
      <trkpt lat="45.29938" lon="5.8987">
        <ele>255.44599914551</ele>
        <time>2017-10-21T08:35:11Z</time>
      </trkpt>
      <trkpt lat="45.29932" lon="5.89873">
        <ele>257.4460144043</ele>
        <time>2017-10-21T08:35:14Z</time>
      </trkpt>
      <trkpt lat="45.29927" lon="5.89872">
        <ele>255.44599914551</ele>
        <time>2017-10-21T08:35:20Z</time>
      </trkpt>
      <trkpt lat="45.29923" lon="5.89876">
        <ele>256.4460144043</ele>
        <time>2017-10-21T08:35:23Z</time>
      </trkpt>
      <trkpt lat="45.29918" lon="5.89884">
        <ele>258.4460144043</ele>
        <time>2017-10-21T08:35:27Z</time>
      </trkpt>
      <trkpt lat="45.29914" lon="5.89884">
        <ele>259.4460144043</ele>
        <time>2017-10-21T08:35:30Z</time>
      </trkpt>
      <trkpt lat="45.2991" lon="5.89888">
        <ele>261.4460144043</ele>
        <time>2017-10-21T08:35:32Z</time>
      </trkpt>
      <trkpt lat="45.29906" lon="5.89892">
        <ele>262.4460144043</ele>
        <time>2017-10-21T08:35:35Z</time>
      </trkpt>
      <trkpt lat="45.299" lon="5.89895">
        <ele>261.4460144043</ele>
        <time>2017-10-21T08:35:39Z</time>
      </trkpt>
      <trkpt lat="45.29894" lon="5.89898">
        <ele>257.4460144043</ele>
        <time>2017-10-21T08:35:46Z</time>
      </trkpt>
    </trkseg>
  </trk>
</gpx>